[[{"header":{"parameterUnit":"m.s-1","parameterCategory":1,"la1":30.6,"la2":28.766,"lo1":-90.7593,"lo2":-88.6598,"dy":0.0162,"dx":0.0183,"nx":116,"ny":114,"refTime":"2023-08-24T12:00:00:Z","depth":0,"parameterNumber":2,"parameterNumberName":"U-component_of_WINDS"},"data":[0.0,0.0,0.0,0.0,0.0,0.0,0.0,0.0,0.0,0.0,0.0,0.0,0.0,0.0,0.0,0.0,0.0,0.0,0.0,0.0,0.0,0.0,0.0,0.0,0.0,0.0,0.0,0.0,0.0,0.0,0.0,0.0,0.0,0.0,0.0,0.0,0.0,0.0,0.0,0.0,0.0,0.0,0.0,0.0,0.0,0.0,0.0,0.0,0.0,0.0,0.0,0.0,0.0,0.0,0.0,0.0,0.0,0.0,0.0,0.0,0.0,0.0,0.0,0.0,0.0,0.0,0.0,0.0,0.0,0.0,0.0,0.0,0.0,0.0,0.0,0.0,0.0,0.0,0.0,0.0,0.0,0.0,0.0,0.0,0.0,0.0,0.0,0.0,0.0,0.0,0.0,0.0,0.0,0.0,0.0,0.0,0.0,0.0,0.0,0.0,0.0,0.0,0.0,0.0,0.0,0.0,0.0,0.0,0.0,0.0,0.0,0.0,0.0,0.0,0.0,0.0,0.0,0.0,0.0,0.0,0.0,0.0,0.0,0.0,0.0,0.0,0.0,0.0,0.0,0.0,0.0,0.0,0.0,0.0,0.0,0.0,0.0,0.0,0.0,0.0,0.0,0.0,0.0,0.0,0.0,0.0,0.0,0.0,0.0,0.0,0.0,0.0,0.0,0.0,0.0,0.0,0.0,0.0,0.0,0.0,0.0,0.0,0.0,0.0,0.0,0.0,0.0,0.0,0.0,0.0,0.0,0.0,0.0,0.0,0.0,0.0,0.0,0.0,0.0,0.0,0.0,0.0,0.0,0.0,0.0,0.0,0.0,0.0,0.0,0.0,0.0,0.0,0.0,0.0,0.0,0.0,0.0,0.0,0.0,0.0,0.0,0.0,0.0,0.0,0.0,0.0,0.0,0.0,0.0,0.0,0.0,0.0,0.0,0.0,0.0,0.0,0.0,0.0,0.0,0.0,0.0,0.0,0.0,0.0,0.0,0.0,0.0,0.0,0.0,0.0,0.0,0.0,0.0,0.0,0.0,0.0,0.0,0.0,0.0,0.0,0.0,0.0,0.0,0.0,0.0,0.0,0.0,0.0,0.0,0.0,0.0,0.0,0.0,0.0,0.0,0.0,0.0,0.0,0.0,0.0,0.0,0.0,0.0,0.0,0.0,0.0,0.0,0.0,0.0,0.0,0.0,0.0,0.0,0.0,0.0,0.0,0.0,0.0,0.0,0.0,0.0,0.0,0.0,0.0,0.0,0.0,0.0,0.0,0.0,0.0,0.0,0.0,0.0,0.0,0.0,0.0,0.0,0.0,0.0,0.0,0.0,0.0,0.0,0.0,0.0,0.0,0.0,0.0,0.0,0.0,0.0,0.0,0.0,0.0,0.0,0.0,0.0,0.0,0.0,0.0,0.0,0.0,0.0,0.0,0.0,0.0,0.0,0.0,0.0,0.0,0.0,0.0,0.0,0.0,0.0,0.0,0.0,0.0,0.0,0.0,0.0,0.0,0.0,0.0,0.0,0.0,0.0,0.0,0.0,0.0,0.0,0.0,0.0,0.0,0.0,0.0,0.0,0.0,0.0,0.0,0.0,0.0,0.0,0.0,0.0,0.0,0.0,0.0,0.0,0.0,0.0,0.0,0.0,0.0,0.0,0.0,0.0,0.0,0.0,0.0,0.0,0.0,0.0,0.0,0.0,0.0,0.0,0.0,0.0,0.0,0.0,0.0,0.0,0.0,0.0,0.0,0.0,0.0,0.0,0.0,0.0,0.0,0.0,0.0,0.0,0.0,0.0,0.0,0.0,0.0,0.0,0.0,0.0,0.0,0.0,0.0,0.0,0.0,0.0,0.0,0.0,0.0,0.0,0.0,0.0,0.0,0.0,0.0,0.0,0.0,0.0,0.0,0.0,0.0,0.0,0.0,0.0,0.0,0.0,0.0,0.0,0.0,0.0,0.0,0.0,0.0,0.0,0.0,0.0,0.0,0.0,0.0,0.0,0.0,0.0,0.0,0.0,0.0,0.0,0.0,0.0,0.0,0.0,0.0,0.0,0.0,0.0,0.0,0.0,0.0,0.0,0.0,0.0,0.0,0.0,0.0,0.0,0.0,0.0,0.0,0.0,0.0,0.0,0.0,0.0,0.0,0.0,0.0,0.0,0.0,0.0,0.0,0.0,0.0,0.0,0.0,0.0,0.0,0.0,0.0,0.0,0.0,0.0,0.0,0.0,0.0,0.0,0.0,0.0,0.0,0.0,0.0,0.0,0.0,0.0,0.0,0.0,0.0,0.0,0.0,0.0,0.0,0.0,0.0,0.0,0.0,0.0,0.0,0.0,0.0,0.0,0.0,0.0,0.0,0.0,0.0,0.0,0.0,0.0,0.0,0.0,0.0,0.0,0.0,0.0,0.0,0.0,0.0,0.0,0.0,0.0,0.0,0.0,0.0,0.0,0.0,0.0,0.0,0.0,0.0,0.0,0.0,0.0,0.0,0.0,0.0,0.0,0.0,0.0,0.0,0.0,0.0,0.0,0.0,0.0,0.0,0.0,0.0,0.0,0.0,0.0,0.0,0.0,0.0,0.0,0.0,0.0,0.0,0.0,0.0,0.0,0.0,0.0,0.0,0.0,0.0,0.0,0.0,0.0,0.0,0.0,0.0,0.0,0.0,0.0,0.0,0.0,0.0,0.0,0.0,0.0,0.0,0.0,0.0,0.0,0.0,0.0,0.0,0.0,0.0,0.0,0.0,0.0,0.0,0.0,0.0,0.0,0.0,0.0,0.0,0.0,0.0,0.0,0.0,0.0,0.0,0.0,0.0,0.0,0.0,0.0,0.0,0.0,0.0,0.0,0.0,0.0,0.0,0.0,0.0,0.0,0.0,0.0,0.0,0.0,0.0,0.0,0.0,0.0,0.0,0.0,0.0,0.0,0.0,0.0,0.0,0.0,0.0,0.0,0.0,0.0,0.0,0.0,0.0,0.0,0.0,0.0,0.0,0.0,0.0,0.0,0.0,0.0,0.0,0.0,0.0,0.0,0.0,0.0,0.0,0.0,0.0,0.0,0.0,0.0,0.0,0.0,0.0,0.0,0.0,0.0,0.0,0.0,0.0,0.0,0.0,0.0,0.0,0.0,0.0,0.0,0.0,0.0,0.0,0.0,0.0,0.0,0.0,0.0,0.0,0.0,0.0,0.0,0.0,0.0,0.0,0.0,0.0,0.0,0.0,0.0,0.0,0.0,0.0,0.0,0.0,0.0,0.0,0.0,0.0,0.0,0.0,0.0,0.0,0.0,0.0,0.0,0.0,0.0,0.0,0.0,0.0,0.0,0.0,0.0,0.0,0.0,0.0,0.0,0.0,0.0,0.0,0.0,0.0,0.0,0.0,0.0,0.0,0.0,0.0,0.0,0.0,0.0,0.0,0.0,0.0,0.0,0.0,0.0,0.0,0.0,0.0,0.0,0.0,0.0,0.0,0.0,0.0,0.0,0.0,0.0,0.0,0.0,0.0,0.0,0.0,0.0,0.0,0.0,0.0,0.0,0.0,0.0,0.0,0.0,0.0,0.0,0.0,0.0,0.0,0.0,0.0,0.0,0.0,0.0,0.0,0.0,0.0,0.0,0.0,0.0,0.0,0.0,0.0,0.0,0.0,0.0,0.0,0.0,0.0,0.0,0.0,0.0,0.0,0.0,0.0,0.0,0.0,0.0,0.0,0.0,0.0,0.0,0.0,0.0,0.0,0.0,0.0,0.0,0.0,0.0,0.0,0.0,0.0,0.0,0.0,0.0,0.0,0.0,0.0,0.0,0.0,0.0,0.0,0.0,0.0,0.0,0.0,0.0,0.0,0.0,0.0,0.0,0.0,0.0,0.0,0.0,0.0,0.0,0.0,0.0,0.0,0.0,0.0,0.0,0.0,0.0,0.0,0.0,0.0,0.0,0.0,0.0,0.0,0.0,0.0,0.0,0.0,0.0,0.0,0.0,0.0,0.0,0.0,0.0,0.0,0.0,0.0,0.0,0.0,0.0,0.0,0.0,0.0,0.0,0.0,0.0,0.0,0.0,0.0,0.0,0.0,0.0,0.0,0.0,0.0,0.0,0.0,0.0,0.0,0.0,0.0,0.0,0.0,0.0,0.0,0.0,0.0,0.0,0.0,0.0,0.0,0.0,0.0,0.0,0.0,0.0,0.0,0.0,0.0,0.0,0.0,0.0,0.0,0.0,0.0,0.0,0.0,0.0,0.0,0.0,0.0,0.0,0.0,0.0,0.0,0.0,0.0,0.0,0.0,0.0,0.0,0.0,0.0,0.0,0.0,0.0,0.0,0.0,0.0,0.0,0.0,0.0,0.0,0.0,0.0,0.0,0.0,0.0,0.0,0.0,0.0,0.0,0.0,0.0,0.0,0.0,0.0,0.0,0.0,0.0,0.0,0.0,0.0,0.0,0.0,0.0,0.0,0.0,0.0,0.0,0.0,0.0,0.0,0.0,0.0,0.0,0.0,0.0,0.0,0.0,0.0,0.0,0.0,0.0,0.0,0.0,0.0,0.0,0.0,0.0,0.0,0.0,0.0,0.0,0.0,0.0,0.0,0.0,0.0,0.0,0.0,0.0,0.0,0.0,0.0,0.0,0.0,0.0,0.0,0.0,0.0,0.0,0.0,0.0,0.0,0.0,0.0,0.0,0.0,0.0,0.0,0.0,0.0,0.0,0.0,0.0,0.0,0.0,0.0,0.0,0.0,0.0,0.0,0.0,0.0,0.0,0.0,0.0,0.0,0.0,0.0,0.0,0.0,0.0,0.0,0.0,0.0,0.0,0.0,0.0,0.0,0.0,0.0,0.0,0.0,0.0,0.0,0.0,0.0,0.0,0.0,0.0,0.0,0.0,0.0,0.0,0.0,0.0,0.0,0.0,0.0,0.0,0.0,0.0,0.0,0.0,0.0,0.0,0.0,0.0,0.0,0.0,0.0,0.0,0.0,0.0,0.0,0.0,0.0,0.0,0.0,0.0,0.0,0.0,0.0,0.0,0.0,0.0,0.0,0.0,0.0,0.0,0.0,0.0,0.0,0.0,0.0,0.0,0.0,0.0,0.0,0.0,0.0,0.0,0.0,0.0,0.0,0.0,0.0,0.0,0.0,0.0,0.0,0.0,0.0,0.0,0.0,0.0,0.0,0.0,0.0,0.0,0.0,0.0,0.0,0.0,0.0,0.0,0.0,0.0,0.0,0.0,0.0,0.0,0.0,0.0,0.0,0.0,0.0,0.0,0.0,0.0,0.0,0.0,0.0,0.0,0.0,0.0,0.0,0.0,0.0,0.0,0.0,0.0,0.0,0.0,0.0,0.0,0.0,0.0,0.0,0.0,0.0,0.0,0.0,0.0,0.0,0.0,0.0,0.0,0.0,0.0,0.0,0.0,0.0,0.0,0.0,0.0,0.0,0.0,0.0,0.0,0.0,0.0,0.0,0.0,0.0,0.0,0.0,0.0,0.0,0.0,0.0,0.0,0.0,0.0,0.0,0.0,0.0,0.0,0.0,0.0,0.0,0.0,0.0,0.0,0.0,0.0,0.0,0.0,0.0,0.0,0.0,0.0,0.0,0.0,0.0,0.0,0.0,0.0,0.0,0.0,0.0,0.0,0.0,0.0,0.0,0.0,0.0,0.0,0.0,0.0,0.0,0.0,0.0,0.0,0.0,0.0,0.0,0.0,0.0,0.0,0.0,0.0,0.0,0.0,0.0,0.0,0.0,0.0,0.0,0.0,0.0,0.0,0.0,0.0,0.0,0.0,0.0,0.0,0.0,0.0,0.0,0.0,0.0,0.0,0.0,0.0,0.0,0.0,0.0,0.0,0.0,0.0,0.0,0.0,0.0,0.0,0.0,0.0,0.0,0.0,0.0,0.0,0.0,0.0,0.0,0.0,0.0,0.0,0.0,0.0,0.0,0.0,0.0,0.0,0.0,0.0,0.0,0.0,0.0,0.0,0.0,0.0,0.0,0.0,0.0,0.0,0.0,0.0,0.0,0.0,0.0,0.0,0.0,0.0,0.0,0.0,0.0,0.0,0.0,0.0,0.0,0.0,0.0,0.0,0.0,0.0,0.0,1.3438,0.0,0.0,0.0,0.0,0.0,0.0,0.0,0.0,0.0,0.0,0.0,0.0,0.0,0.0,0.0,0.0,0.0,0.0,0.0,0.0,0.0,0.0,0.0,0.0,0.0,0.0,0.0,0.0,0.0,0.0,0.0,0.0,0.0,0.0,0.0,0.0,0.0,0.0,0.0,1.3336,1.3672,1.4136,1.3644,1.3,1.2205,0.0,0.0,0.0,0.0,0.0,0.0,0.0,0.0,0.0,0.0,0.0,0.0,0.0,0.0,0.0,0.0,0.0,0.0,0.0,0.0,0.0,0.0,0.0,0.0,0.0,0.0,0.0,0.0,0.0,0.0,0.0,0.0,0.0,0.0,0.0,0.0,0.0,0.0,0.0,0.0,0.0,0.0,0.0,0.0,0.0,0.0,0.0,0.0,0.0,0.0,0.0,0.0,0.0,0.0,0.0,0.0,0.0,0.0,0.0,0.0,0.0,0.0,0.0,0.0,0.0,0.0,0.0,0.0,0.0,0.0,0.0,1.4495,0.0,0.0,0.0,0.0,0.0,0.0,0.0,0.0,0.0,0.0,0.0,0.0,0.0,0.0,0.0,0.0,0.0,0.0,0.0,0.0,0.0,0.0,0.0,0.0,1.2823,1.3118,1.3199,1.3233,0.0,0.0,0.0,0.0,0.0,0.0,0.0,1.4528,1.4768,1.471,1.5112,1.5436,1.5653,1.5506,1.4772,1.3578,1.3495,0.0,0.0,0.0,0.0,0.0,0.0,0.0,0.0,0.0,0.0,0.0,0.0,0.0,0.0,0.0,0.0,0.0,0.0,0.0,0.0,0.0,0.0,0.0,0.0,0.0,0.0,0.0,0.0,0.0,0.0,0.0,0.0,0.0,0.0,0.0,0.0,0.0,0.0,0.0,0.0,0.0,0.0,0.0,0.0,0.0,0.0,0.0,0.0,0.0,0.0,0.0,0.0,0.0,0.0,0.0,0.0,0.0,0.0,0.0,0.0,0.0,0.0,0.0,1.7376,1.7403,1.7417,1.7483,1.7503,1.751,1.7645,1.7157,1.629,1.6281,0.0,0.0,0.0,0.0,0.0,0.0,0.0,0.0,0.0,0.0,0.0,0.0,0.0,0.0,0.0,0.0,0.0,0.0,0.0,0.0,0.0,1.3478,1.3907,1.4786,1.4934,1.4993,0.0,0.0,0.0,0.0,0.0,0.0,1.5753,1.5637,1.583,1.6374,1.5999,1.5708,1.5522,1.5253,1.4986,1.4686,1.4742,1.4635,1.446,0.0,0.0,0.0,0.0,0.0,0.0,0.0,0.0,0.0,0.0,0.0,0.0,0.0,0.0,0.0,0.0,0.0,0.0,0.0,0.0,0.0,0.0,0.0,0.0,0.0,0.0,0.0,0.0,0.0,0.0,0.0,0.0,0.0,0.0,0.0,0.0,0.0,0.0,0.0,0.0,0.0,1.2973,1.4427,0.0,0.0,0.0,0.0,0.0,0.0,0.0,0.0,0.0,0.0,0.0,0.0,0.0,1.8021,1.8772,1.8788,1.8856,1.8971,1.8987,1.9017,1.9092,1.9092,1.9121,1.9183,1.9203,0.0,1.7045,1.7045,0.0,0.0,0.0,0.0,0.0,0.0,0.0,0.0,0.0,0.0,0.0,0.0,0.0,0.0,0.0,0.0,0.0,0.0,0.0,0.0,0.0,1.4223,1.4543,1.5107,1.5641,1.6006,1.6066,1.6523,0.0,0.0,0.0,1.6624,1.6761,1.6551,1.663,1.7039,1.6992,1.7061,1.724,1.7313,1.7257,1.7085,1.6965,1.5991,1.4464,1.4436,0.0,0.0,0.0,0.0,0.0,0.0,0.0,0.0,0.0,0.0,0.0,0.0,0.0,0.0,0.0,0.0,0.0,0.0,0.0,0.0,0.0,0.0,0.0,0.0,0.0,0.0,0.0,0.0,0.0,0.0,0.0,0.0,0.0,0.0,0.0,0.0,0.0,0.0,0.0,1.3539,1.4258,1.5384,1.5575,1.5749,0.0,0.0,0.0,0.0,0.0,0.0,0.0,0.0,0.0,1.9703,1.9777,2.0011,2.0391,2.0427,2.0479,2.0532,2.0567,2.0619,2.0653,2.0686,2.0701,2.0751,2.0815,2.047,1.974,1.8415,1.7632,1.7229,0.0,0.0,0.0,0.0,1.6867,1.693,0.0,0.0,0.0,0.0,0.0,0.0,0.0,0.0,0.0,0.0,0.0,0.0,1.4306,1.459,1.4878,1.532,1.6035,1.6595,1.6889,1.7532,0.0,0.0,1.7738,1.7677,1.7629,1.7733,1.7789,1.7823,1.8171,1.8508,1.8807,1.8973,1.8924,1.8684,1.8442,1.7212,1.5297,1.5231,1.5128,1.4943,0.0,0.0,0.0,0.0,0.0,0.0,0.0,0.0,0.0,0.0,0.0,0.0,0.0,0.0,0.0,0.0,0.0,0.0,0.0,0.0,0.0,0.0,0.0,0.0,0.0,0.0,0.0,0.0,0.0,0.0,0.0,0.0,0.0,0.0,0.0,0.0,0.0,1.4985,1.5349,1.6181,1.6515,1.6761,0.0,0.0,0.0,0.0,0.0,0.0,2.1061,2.1141,2.1164,2.1184,2.1303,2.1342,2.1362,2.144,2.1479,2.1479,2.1534,2.1571,2.1607,2.1643,2.166,2.1678,2.1784,2.1818,2.1725,1.9996,1.8832,1.8098,1.8111,1.8037,1.7875,1.7684,1.7667,1.7738,0.0,0.0,0.0,0.0,0.0,0.0,0.0,0.0,0.0,0.0,0.0,1.3023,1.4095,1.4391,1.4918,1.596,1.6277,1.6789,1.768,1.7849,1.7909,1.7903,1.7776,1.7965,1.8524,1.9392,1.9647,1.9208,1.9658,1.9722,1.9342,1.9058,1.8721,1.842,1.8208,1.8066,1.7992,1.779,1.768,1.7539,1.6785,0.0,0.0,0.0,0.0,0.0,0.0,0.0,0.0,0.0,0.0,0.0,0.0,0.0,0.0,0.0,0.0,0.0,0.0,0.0,0.0,0.0,0.0,0.0,0.0,0.0,0.0,0.0,0.0,0.0,0.0,0.0,0.0,0.0,0.0,0.0,0.0,0.0,0.0,1.6924,1.7765,0.0,0.0,0.0,0.0,2.078,2.0819,2.0915,2.1096,2.1096,2.112,2.1184,2.1205,2.1243,2.1303,2.1362,2.1402,2.1404,2.1461,2.1534,2.1607,2.1607,2.1607,2.1607,2.1607,2.1661,2.1715,2.1725,2.1248,2.0532,2.0593,2.0155,1.9411,1.8696,1.8454,1.8347,0.0,0.0,0.0,0.0,0.0,0.0,0.0,0.0,1.0362,1.0879,1.2207,1.3325,1.3881,1.4616,1.5312,1.5916,1.7132,1.808,1.8537,1.9169,1.9505,1.9517,1.9415,1.9558,1.9937,2.0491,2.056,2.0139,2.0387,2.0301,1.9925,2.0383,2.0424,2.0135,2.0303,2.0292,2.0065,1.8414,1.7599,1.7453,1.7151,1.6869,0.0,0.0,0.0,0.0,0.0,0.0,0.0,0.0,0.0,0.0,0.0,0.0,0.0,0.0,0.0,0.0,0.0,0.0,0.0,0.0,0.0,0.0,0.0,0.0,0.0,0.0,0.0,0.0,0.0,0.0,0.0,0.0,0.0,0.0,0.0,0.0,0.0,1.8362,1.9225,0.0,2.0147,2.0516,2.095,2.1499,2.162,2.19,2.2417,2.2481,2.278,2.3364,2.3427,2.3705,2.4257,2.432,2.4096,2.3595,2.3595,2.3386,2.2958,2.2998,2.3037,2.3019,2.306,2.31,2.3119,2.3215,2.2519,2.1403,2.1427,2.1295,2.0989,2.0247,2.0009,1.9929,0.0,0.0,0.0,0.0,0.0,0.0,0.0,0.0,1.0382,1.0653,1.2157,1.3396,1.3963,1.4775,1.5628,1.6497,1.7795,1.8774,1.9309,1.9983,2.0382,2.0398,2.0554,2.0795,2.1131,2.1443,2.139,2.0943,2.1093,2.1075,2.0895,2.1292,2.145,2.1357,2.1465,2.1378,2.1079,1.933,1.8411,1.8158,1.7919,1.7617,1.7294,0.0,0.0,0.0,0.0,0.0,0.0,0.0,0.0,0.0,0.0,0.0,0.0,0.0,0.0,0.0,0.0,0.0,0.0,0.0,0.0,0.0,0.0,0.0,0.0,0.0,0.0,0.0,0.0,0.0,0.0,0.0,0.0,0.0,0.0,0.0,1.8887,1.9469,2.0325,2.0967,2.1226,2.1607,2.2174,2.2935,2.313,2.3415,2.3907,2.4017,2.4314,2.4921,2.4971,2.5269,2.5775,2.5868,2.5625,2.513,2.5153,2.4931,2.4469,2.4514,2.4392,2.414,2.4169,2.4067,2.3852,2.3873,2.3337,2.2447,2.2243,2.2029,2.1789,2.1321,2.1175,2.1096,0.0,0.0,0.0,0.0,0.0,0.0,0.0,0.8896,1.0029,1.043,1.1834,1.3209,1.4362,1.4795,1.5786,1.7705,1.8148,1.8802,1.9916,2.0186,2.0338,2.0449,2.1036,2.1593,2.2029,2.23,2.2192,2.164,2.1841,2.2026,2.2198,2.1748,2.1668,2.1901,2.151,2.1205,2.1021,2.0713,2.03,1.985,1.9141,1.8475,1.7847,0.0,0.0,0.0,0.0,0.0,0.0,0.0,0.0,0.0,0.0,0.0,0.0,0.0,0.0,0.0,0.0,0.0,0.0,0.0,0.0,0.0,0.0,0.0,0.0,0.0,0.0,0.0,0.0,0.0,0.0,0.0,0.0,0.0,1.8981,1.9562,2.0086,2.0237,2.1095,2.1945,2.2685,2.3578,2.4406,2.5136,2.5255,2.532,2.5374,2.5455,2.5526,2.5641,2.5641,2.5641,2.5676,2.5728,2.5788,2.5836,2.5904,2.5936,2.6009,2.6009,2.5554,2.4818,2.4818,2.441,2.3772,2.3754,2.3757,2.3768,2.3156,2.2446,2.1771,2.1821,2.1829,2.1718,0.0,0.0,0.0,0.0,0.0,0.0,0.0,0.8692,0.9779,1.0029,1.149,1.2899,1.3949,1.4885,1.5992,1.7398,1.837,1.9161,1.982,2.0049,2.0519,2.1311,2.2538,2.3122,2.3022,2.3272,2.3138,2.2553,2.2596,2.2465,2.2133,2.249,2.2521,2.2275,2.2383,2.2235,2.186,2.177,2.1327,2.0578,1.9963,1.9349,1.8695,0.0,0.0,0.0,0.0,0.0,0.0,0.0,0.0,0.0,0.0,0.0,0.0,0.0,0.0,0.0,0.0,0.0,0.0,0.0,0.0,0.0,0.0,0.0,0.0,0.0,0.0,0.0,0.0,0.0,0.0,0.0,0.0,2.0075,1.9569,2.0262,2.1059,2.1644,2.2494,2.3328,2.4081,2.4517,2.4838,2.5046,2.516,2.5244,2.5255,2.5272,2.5589,2.6234,2.6307,2.6599,2.7183,2.7313,2.7075,2.6535,2.6544,2.626,2.5717,2.5717,2.5585,2.5372,2.5422,2.5341,2.5116,2.4575,2.4349,2.4324,2.3768,2.3438,2.3244,2.2736,2.2227,2.1768,0.0,0.0,0.0,0.0,0.0,0.0,0.0,0.8426,0.948,0.9691,1.1146,1.2552,1.3562,1.4669,1.5843,1.7097,1.8217,1.907,1.9556,2.0277,2.1142,2.2196,2.3366,2.3976,2.3987,2.3951,2.3768,2.346,2.3168,2.3015,2.3008,2.3084,2.3005,2.2797,2.2804,2.2591,2.2184,2.2091,2.1694,2.1148,2.0804,2.0202,1.9445,1.9086,1.8575,1.8009,1.7713,1.7293,1.6898,1.7006,0.0,0.0,0.0,0.0,0.0,0.0,0.0,0.0,0.0,0.0,0.0,0.0,0.0,0.0,0.0,0.0,0.0,0.0,0.0,0.0,0.0,0.0,0.0,0.0,2.0754,2.1283,2.1302,2.1637,2.2207,2.3005,2.3625,2.4275,2.5023,2.5261,2.5506,2.5798,2.5937,2.5996,2.5996,2.6085,2.6353,2.6864,2.6941,2.7192,2.7672,2.7766,2.7566,2.7155,2.7155,2.6891,2.6478,2.6478,2.6302,2.602,2.6047,2.5897,2.5544,2.511,2.4729,0.0,0.0,0.0,0.0,0.0,2.2797,2.222,0.0,0.0,0.0,0.0,0.0,0.0,0.0,0.8099,0.9147,0.9389,1.0764,1.2147,1.3208,1.4281,1.5441,1.6703,1.7807,1.8681,1.9269,2.0756,2.2033,2.2948,2.3794,2.4428,2.4829,2.4377,2.4112,2.4121,2.3598,2.3635,2.4218,2.3611,2.3372,2.34,2.2916,2.2494,2.2137,2.1902,2.1712,2.1568,2.1471,2.0838,2.0064,2.0064,1.9692,1.9155,1.9086,1.841,1.7484,1.7501,0.0,0.0,0.0,0.0,0.0,0.0,0.0,0.0,0.0,0.0,0.0,0.0,0.0,0.0,0.0,0.0,0.0,0.0,0.0,0.0,0.0,0.0,0.0,0.0,2.2004,2.2716,2.3497,2.3309,2.3371,2.4211,2.4471,2.4869,2.5644,2.5858,2.6243,2.6908,2.7023,2.707,2.707,0.0,0.0,0.0,0.0,2.7465,2.7465,2.7465,2.7496,2.7539,2.7539,2.76,2.7624,2.7624,2.7291,2.6678,2.6678,2.6247,2.5617,2.553,2.5005,2.4244,2.3697,2.3499,2.3567,2.371,2.3386,2.2893,0.0,0.0,0.0,0.0,0.0,0.0,0.0,0.7771,0.8779,0.8987,1.0363,1.1713,1.273,1.3782,1.4913,1.6136,1.7328,1.8389,1.9328,2.1271,2.2546,2.2903,2.4352,2.5117,2.5037,2.4527,2.4024,2.3549,2.4021,2.4047,2.3645,2.4024,2.393,2.3567,2.2948,2.2447,2.2024,2.1868,2.1664,2.1423,2.1423,2.1003,2.0411,2.0411,2.0057,1.9544,1.9068,1.8782,1.8508,1.8189,1.7671,1.7218,1.7255,1.6994,0.0,0.0,0.0,0.0,0.0,0.0,0.0,0.0,0.0,0.0,0.0,0.0,0.0,0.0,0.0,0.0,0.0,0.0,0.0,2.2536,2.277,2.3195,2.4096,2.4227,2.4388,2.4862,2.5013,2.5414,2.6235,2.6404,2.6522,2.6674,2.6842,2.6942,2.6942,2.704,2.7072,2.7072,2.7135,2.7198,2.7198,2.723,2.7244,2.7276,0.0,0.0,2.7307,2.7307,2.7238,2.7068,2.7068,2.6982,2.6809,2.6204,2.5495,2.4666,2.3696,2.3342,2.3359,2.3508,2.3508,2.3441,0.0,0.0,0.0,0.0,0.0,0.0,0.0,0.7307,0.8179,0.8637,0.9752,1.0835,1.1746,1.2848,1.3968,1.5113,1.6898,1.8309,1.9139,2.0771,2.2036,2.2761,2.4081,2.4935,2.5181,2.4746,2.4388,2.4198,2.4603,2.4613,2.4277,2.4508,2.4311,2.3659,2.3059,2.2559,2.2105,2.1902,2.1664,2.1471,2.1423,2.1247,2.0928,2.0928,2.0576,2.008,1.9812,1.9309,1.8808,1.8632,1.819,1.7705,1.7796,1.7492,1.7098,0.0,0.0,0.0,0.0,0.0,0.0,0.0,0.0,0.0,0.0,0.0,0.0,0.0,0.0,2.1194,0.0,0.0,2.2621,2.3092,2.3305,2.367,2.4496,2.4713,2.4943,2.536,2.5518,2.5773,2.6225,2.6364,2.6417,2.6452,2.6873,2.7145,2.7214,2.7283,2.7352,2.7352,2.7079,2.6891,2.6891,2.7006,2.7055,2.7055,2.7087,2.712,2.712,2.712,2.712,2.712,2.712,2.7087,2.7004,2.617,2.561,2.5149,2.4247,2.3798,2.3601,2.3389,2.333,2.3407,0.0,0.0,0.0,0.0,0.0,0.0,0.0,0.6813,0.7553,0.83,0.9133,0.9978,1.077,1.1853,1.3077,1.4376,1.6439,1.7994,1.8787,2.0004,2.1286,2.2574,2.361,2.453,2.5288,2.4947,2.4798,2.4886,2.4967,2.4895,2.4712,2.4778,2.4424,2.3754,2.3259,2.2761,2.2306,2.2044,2.1793,2.1664,2.152,2.1471,2.1471,2.1471,2.1125,2.0644,2.0522,1.9917,1.9133,1.9067,1.8658,1.818,1.8288,1.7979,1.7543,1.7543,1.7441,0.0,0.0,0.0,0.0,0.0,0.0,0.0,0.0,0.0,2.0764,2.1411,2.1754,2.1979,2.2191,2.24,2.2816,2.3418,2.3725,2.4061,2.4664,2.4997,2.5337,2.5669,2.595,2.6114,2.6114,2.6356,2.6548,2.6604,2.7205,2.759,2.7648,2.7757,2.783,2.783,2.7313,2.7062,2.7062,2.7012,2.7029,2.7029,2.6944,2.6909,2.6909,2.6909,2.6909,2.6909,2.6909,2.6842,2.6725,2.6049,2.573,2.5646,2.4903,2.4488,2.416,2.3632,2.3365,2.3287,0.0,0.0,0.0,0.0,0.0,0.0,0.0,0.0,0.7138,0.7872,0.867,0.9463,1.0198,1.1305,1.2858,1.4999,1.5984,1.7004,1.8211,1.9593,2.0947,2.2296,2.3411,2.4452,2.5369,2.5103,2.4812,2.4468,2.4587,2.4331,2.3684,2.4256,2.4218,2.3618,2.3553,2.3259,2.279,2.2459,2.2184,2.1949,2.1793,2.1746,2.1746,2.1746,2.1575,2.1247,2.0671,2.04,2.0256,1.9768,1.9271,1.8781,1.8837,1.8494,1.8092,1.8092,0.0,1.9,1.9,1.957,0.0,2.0369,2.0425,2.0509,0.0,0.0,2.1041,2.1289,2.1925,2.2465,2.2604,2.3194,2.3712,2.3998,2.4055,2.4168,2.4482,2.5134,2.5618,2.5768,2.619,2.6484,2.6545,2.7192,2.7606,2.7646,2.7941,2.8124,2.8124,2.8202,2.8224,2.8224,2.8272,2.8298,2.8298,2.7704,2.7442,2.7442,2.6821,2.6554,2.6554,2.6554,2.6554,2.6554,2.6554,2.6468,2.6365,2.6282,2.6179,2.6077,2.5379,2.5113,2.5028,2.4712,2.4199,2.3648,0.0,0.0,0.0,0.0,0.0,0.0,0.0,0.0,0.0,0.7154,0.7897,0.8633,0.9412,1.0909,1.2481,1.4106,1.5152,1.6301,1.7647,1.8575,1.9732,2.1189,2.1934,2.3032,2.4546,2.4487,2.451,2.4695,2.4856,2.4599,2.3972,2.4303,2.4048,2.3366,2.3402,2.3154,2.2673,2.2682,2.254,2.2324,2.2184,2.2091,2.2044,2.1949,2.1841,2.1718,2.1376,2.1014,0.0,2.0407,1.9915,1.941,1.9394,1.9259,1.9126,1.9126,1.9389,0.0,1.971,0.0,0.0,0.0,2.0486,2.0614,2.1198,2.1327,2.1513,2.2033,2.2396,2.2688,2.2906,2.3273,2.3581,0.0,2.3782,2.4003,2.46,2.5019,2.5428,2.5901,2.6551,2.695,2.6834,2.7214,2.7458,2.7508,2.8093,2.8461,2.8469,2.851,2.8535,2.8535,2.824,2.8089,2.8089,2.7965,2.7893,2.7893,2.7238,2.6925,2.6909,2.6476,2.6329,2.6329,2.6258,2.617,2.6063,2.5994,2.5921,2.5832,2.5537,2.5422,2.5363,2.4673,2.4262,2.3994,0.0,0.0,0.0,0.0,0.0,0.0,0.0,0.0,0.0,0.0,0.7222,0.7981,0.8992,1.0417,1.1731,1.2885,1.39,1.5166,1.6709,1.7364,1.846,2.0207,2.0703,2.1767,2.3558,2.3867,2.4214,2.462,2.4922,2.4782,2.4231,2.4294,2.3944,2.3274,2.3324,2.3078,2.2607,2.2653,2.2542,2.2352,2.216,2.2026,2.1891,2.177,2.1678,2.1675,2.1777,2.1517,2.1144,2.1052,2.0607,2.0069,2.0065,1.9929,1.9778,1.9778,1.999,2.0244,2.0454,0.0,0.0,2.0673,2.0717,2.0873,2.1561,2.1705,2.1863,2.2426,2.2572,2.2663,2.2904,2.3038,2.3172,2.3319,2.3392,2.3703,2.4537,2.4867,2.5364,2.6122,2.693,2.7333,2.7162,2.7444,2.762,2.766,2.8343,2.8762,2.8817,2.8817,2.8817,2.8817,2.8446,2.8271,2.8271,2.8298,2.8338,2.8321,2.7679,2.7334,2.7301,2.6599,2.6208,2.6026,2.5901,2.5807,2.5733,2.5589,2.5492,2.5416,2.5416,2.5378,2.5281,2.458,2.4293,2.4247,0.0,0.0,0.0,0.0,0.0,0.0,0.0,0.0,0.0,0.0,0.0,0.0,0.0,0.9724,1.0418,1.1571,1.217,1.3301,1.5224,1.5991,1.736,1.9642,2.0223,2.1142,2.2521,2.3501,2.3983,2.3936,2.4456,2.4463,2.4003,2.4081,2.3868,2.3397,2.3459,2.3227,2.275,2.2324,2.1979,2.171,2.1359,2.1196,2.1143,2.1048,2.0937,2.0912,2.1565,2.1793,2.1766,2.1779,2.1379,2.0882,2.0868,2.0378,1.9778,1.9778,2.0233,2.0822,2.1539,0.0,2.1752,2.1752,2.1752,2.1799,2.1955,2.2016,2.2016,2.217,2.2324,2.2463,2.2615,2.2678,2.2754,2.2889,2.2934,2.3198,2.4099,2.4764,2.5556,2.6467,2.719,2.758,0.0,2.824,2.867,2.867,2.8935,2.909,2.909,2.909,2.909,2.909,2.9332,2.9451,2.9451,2.8963,2.8692,2.8676,2.7987,2.768,2.7648,2.6927,2.6215,2.5605,2.5454,2.5394,2.5333,2.5185,2.5068,2.5005,2.4871,2.4815,2.4815,2.4664,2.45,2.4392,0.0,0.0,0.0,0.0,0.0,0.0,0.0,0.0,0.0,0.0,0.0,0.0,0.0,0.0,0.0,0.0,1.1493,1.2419,1.3878,1.5015,1.6184,1.7456,1.8538,1.9773,2.1214,2.1825,2.2474,2.3176,2.3259,2.3437,2.3659,2.336,2.3294,2.339,2.3466,2.3255,2.2813,2.2836,2.2588,2.2194,2.2034,2.1855,2.1674,2.1465,2.1359,2.1336,0.0,2.1211,2.1121,2.1349,2.1258,2.1147,2.1412,2.1318,2.1107,2.1014,2.1056,2.1213,2.1465,0.0,2.1568,2.1664,2.1664,2.1712,2.1841,2.1841,2.1888,2.1949,2.1996,2.2044,2.2184,2.2217,2.2263,2.2402,2.2449,2.2912,2.4226,2.4606,2.5241,2.6491,2.6865,0.0,0.0,0.0,0.0,2.8253,2.8477,2.8636,2.8636,2.8636,2.8636,2.8636,2.8842,2.8967,2.8967,2.896,2.8984,2.8968,2.8224,2.7651,2.7222,2.6968,2.6713,2.6516,2.5916,2.5589,2.545,2.4914,2.4589,2.441,2.4369,2.4245,2.412,2.3994,2.3788,2.3694,0.0,0.0,0.0,0.0,0.0,0.0,0.0,0.0,0.0,0.0,0.0,0.0,0.0,0.0,0.0,0.0,0.0,1.1242,1.2502,1.3589,1.464,1.5622,1.6973,1.8235,1.9438,2.0459,2.1389,2.2221,2.2495,2.2821,2.3165,2.2795,2.2703,2.2839,2.2705,2.2614,2.25,2.2532,2.2443,2.2305,2.2112,2.1882,2.1647,2.1399,2.1265,0.0,2.0893,2.0637,2.0506,2.0912,2.1221,2.1462,2.1675,2.1815,2.1902,2.1664,2.1568,2.1471,2.1423,2.1572,2.1735,2.1784,2.1784,2.1784,2.1833,2.167,2.152,2.152,2.1568,2.1616,2.1712,2.1746,2.1793,2.1902,2.1902,2.2407,2.3688,2.4077,2.4688,2.5959,2.6275,2.6418,0.0,0.0,0.0,2.766,2.7989,2.8088,2.8088,2.8088,2.8088,2.8088,2.8268,2.8398,2.8446,2.8653,2.8795,2.8842,2.8388,2.7793,2.7092,2.7092,2.6967,2.6673,2.6075,2.5744,2.5582,2.5037,2.4665,2.4519,2.4387,2.4253,2.4074,2.3847,2.3603,2.3467,0.0,0.0,0.0,0.0,0.0,0.0,0.0,0.0,0.0,0.0,0.0,0.0,0.0,0.0,0.0,0.0,0.0,0.0,1.1123,1.1799,1.275,1.4132,1.5528,1.6593,1.729,1.9339,2.0641,2.1043,2.2068,2.2557,2.2523,2.2335,2.2098,2.1834,2.1404,2.1527,2.1958,2.1492,2.153,2.1911,2.1582,2.1252,2.1037,2.0862,2.0682,2.0467,2.0296,2.017,2.0116,2.0633,2.1254,2.1772,2.1713,2.1903,2.2137,2.1746,2.1616,2.1568,2.1423,2.183,2.2214,2.2113,2.2062,2.2011,2.1859,2.1382,2.0997,2.0983,2.1082,2.118,0.0,0.0,2.1375,2.1375,2.1361,2.1689,2.2614,2.3271,2.3983,0.0,0.0,0.0,0.0,0.0,0.0,2.7063,0.0,2.7575,2.756,2.756,2.756,2.756,2.7675,2.7825,2.7959,2.8073,2.8235,2.8348,2.8348,2.7994,2.7287,2.7287,2.6856,2.6123,2.5985,2.5816,2.5661,2.5396,2.5254,2.5206,2.4791,2.463,2.4581,2.4148,2.3858,2.3622,0.0,0.0,0.0,0.0,0.0,0.0,0.0,0.0,0.0,0.0,0.0,0.0,0.0,0.0,0.0,0.0,0.0,0.0,0.9766,1.0834,1.1806,1.2624,1.4,1.5092,1.5822,1.7344,1.8439,1.9046,2.005,2.0943,2.1699,2.166,2.1868,2.2314,2.2011,2.1816,2.1683,2.136,2.1115,2.0939,2.0653,2.0389,2.025,2.0545,2.06,2.0532,2.0783,2.0764,2.067,0.0,0.0,0.0,0.0,2.2321,2.2184,2.2091,2.1841,2.1616,2.1568,2.158,2.1591,2.1457,2.1457,2.1394,2.1259,2.1103,2.0983,2.0858,2.0858,2.0858,0.0,0.0,0.0,2.0809,2.0908,0.0,2.2062,2.2796,0.0,2.4231,0.0,2.523,2.523,2.5342,0.0,0.0,2.6443,2.6826,2.693,2.6945,2.6945,2.6945,2.7086,2.7122,2.7159,2.7473,2.7604,2.764,2.764,2.7565,2.7385,2.724,2.7036,2.6807,2.6248,2.5864,2.5658,2.5038,2.4589,2.4262,2.4047,2.3794,2.3485,2.3107,2.2738,2.2415,0.0,0.0,0.0,0.0,0.0,0.0,0.0,0.0,0.0,0.0,0.0,0.0,0.0,0.0,0.0,0.0,0.0,0.0,0.0,0.9731,1.0494,1.111,1.2488,1.3567,1.4291,1.5627,1.6654,1.733,1.849,1.9443,2.0182,2.0617,2.1076,2.1522,2.1314,2.1295,2.1415,2.115,2.106,0.0,0.0,2.0565,2.0396,2.0559,2.0499,2.0431,2.0883,2.1061,0.0,0.0,0.0,2.1936,2.2367,2.2538,2.2586,2.2417,0.0,2.1841,2.1698,2.1794,2.1803,2.1569,2.1519,2.1469,2.1281,2.0983,2.0749,2.0686,2.0623,0.0,2.0422,0.0,0.0,0.0,0.0,0.0,2.1246,2.2101,2.2844,0.0,2.4073,0.0,2.4593,2.465,2.4751,0.0,2.5687,2.6204,2.6365,2.6365,2.6365,2.6365,2.6404,2.651,2.6563,2.6788,2.6893,2.6893,2.6893,2.6893,2.6893,2.6826,2.6707,2.6654,0.0,2.5888,2.5621,2.5047,2.4577,2.4229,2.396,2.3633,2.3247,2.2773,2.2318,2.1836,0.0,0.0,0.0,0.0,0.0,0.0,0.0,0.0,0.0,0.0,0.0,0.0,0.0,0.0,0.0,0.0,0.0,0.0,0.0,0.0,0.0,0.9728,1.1009,1.2004,1.2682,1.4084,1.5119,1.5814,1.7162,1.7987,1.8365,1.9284,1.9857,2.0091,1.9992,2.0379,2.105,2.0813,2.1004,2.1444,2.1197,2.0989,2.0777,0.0,2.0411,2.0239,2.0858,0.0,0.0,0.0,2.1838,2.1847,2.2274,2.2685,2.2966,2.2709,2.2463,2.2184,2.1949,2.2131,2.2333,2.1944,2.1792,2.1703,2.1459,2.0913,2.0461,2.0461,0.0,2.0182,2.0131,2.0131,2.0131,2.008,0.0,2.0182,2.0271,2.1301,2.2066,2.2239,2.3189,2.3865,2.3943,2.3956,2.4002,2.4176,2.4921,2.5495,2.5729,2.5729,2.5784,2.5784,2.5868,2.5965,2.6075,2.6295,2.6378,2.6378,2.6378,2.6378,2.6378,2.6323,2.6269,2.6132,2.6022,2.5855,2.5688,2.5222,2.4922,2.462,2.421,2.3795,2.3422,2.2739,2.2106,2.1464,0.0,0.0,0.0,0.0,0.0,0.0,0.0,0.0,0.0,0.0,0.4068,0.4327,0.0,0.0,0.0,0.0,0.0,0.0,0.0,0.0,0.0,0.0,0.9724,1.0451,1.1174,1.2516,1.3568,1.4372,1.5644,1.654,1.7032,1.7487,1.8198,1.9058,1.9142,1.9627,2.0375,2.0323,2.0296,2.0279,2.0112,1.9944,1.9804,2.0252,0.0,0.0,0.0,0.0,0.0,0.0,2.1697,2.1728,2.2681,2.2768,2.2582,2.2937,2.2768,2.2463,2.2184,2.2019,2.1863,2.1572,2.1327,2.1156,2.1033,2.0753,0.0,0.0,2.0144,1.999,1.9759,1.9708,0.0,1.9577,0.0,0.0,0.0,0.0,2.1142,0.0,0.0,0.0,0.0,0.0,0.0,0.0,2.3688,2.4144,2.4948,2.5005,2.5061,2.5174,2.5652,2.5911,2.5898,2.6507,2.6813,2.6813,2.6813,2.6813,2.6813,2.6576,2.6457,2.641,2.623,0.0,2.5656,2.5458,2.4961,2.4392,2.3855,2.3311,2.2784,2.206,2.1289,2.0508,0.0,0.0,0.0,0.0,0.0,0.0,0.0,0.3911,0.3911,0.3911,0.3952,0.4096,0.4322,0.4622,0.4964,0.0,0.0,0.0,0.0,0.0,0.0,0.0,0.0,0.0,0.0,1.1145,1.2015,1.2763,0.0,1.5055,1.5638,1.6447,1.7223,1.7914,1.809,1.844,1.8908,1.8941,1.9163,1.9473,1.9374,1.9522,0.0,0.0,0.0,0.0,0.0,0.0,0.0,0.0,2.1761,2.2037,2.2771,2.2978,2.3046,2.3486,2.3334,2.2934,2.2678,2.2356,2.1996,2.1616,2.1375,2.1144,2.0938,0.0,0.0,0.0,1.9357,1.892,1.8809,0.0,0.0,0.0,0.0,0.0,0.0,0.0,0.0,0.0,0.0,0.0,0.0,0.0,0.0,0.0,2.2985,2.3565,2.453,2.4925,2.5216,2.5263,2.5588,2.5807,2.5807,2.6134,2.6219,2.6158,2.6158,2.6096,2.6034,2.5861,2.5785,2.566,2.5471,2.5205,2.4873,2.4462,2.394,2.3356,2.2728,2.2104,2.1472,2.0702,1.9838,1.8879,0.0,0.0,0.0,0.0,0.0,0.0,0.0,0.3911,0.3911,0.3911,0.3911,0.3911,0.398,0.4302,0.4563,0.0,0.0,0.0,0.0,0.0,0.0,0.0,0.0,0.0,0.0,0.0,0.0,0.0,1.2624,0.0,0.0,0.0,0.0,0.0,1.691,1.7221,1.7597,1.7708,1.8121,0.0,0.0,1.9139,0.0,0.0,0.0,0.0,0.0,0.0,0.0,0.0,2.1942,2.233,2.29,2.3159,2.3342,2.385,2.3682,2.3329,2.3069,2.2768,2.2402,2.1888,2.152,2.1185,2.0837,2.0083,0.0,0.0,1.8576,1.8037,1.7989,0.0,0.0,0.0,0.0,0.0,0.0,0.0,0.0,0.0,0.0,0.0,0.0,0.0,0.0,0.0,2.2674,2.3361,2.4267,2.4849,2.5205,2.5205,2.5447,2.5575,2.5575,2.5704,2.5704,2.5576,2.5576,2.5446,2.5264,2.5264,2.5121,2.4912,2.4727,2.4438,2.4013,2.3461,2.2846,2.2291,2.1659,2.0936,2.0141,1.9251,1.8265,1.7123,0.0,0.0,0.0,0.0,0.0,0.0,0.0,0.3911,0.3911,0.3911,0.3911,0.3911,0.3911,0.394,0.4125,0.0,0.0,0.0,0.0,0.0,0.0,0.0,0.0,0.0,0.0,0.0,0.0,1.061,0.0,0.0,0.0,0.0,0.0,0.0,0.0,0.0,1.7252,1.751,0.0,0.0,0.0,0.0,0.0,0.0,0.0,0.0,0.0,0.0,0.0,0.0,0.0,2.2146,2.335,2.3062,2.2495,2.3371,0.0,0.0,2.3329,2.3113,2.2754,2.2402,2.1532,2.0716,2.0482,0.0,0.0,1.8716,1.8431,1.8109,1.7858,1.7654,1.7652,0.0,0.0,1.8071,0.0,0.0,0.0,0.0,0.0,0.0,0.0,0.0,0.0,2.1889,2.2822,2.3501,2.3928,2.4136,2.4214,2.4214,2.4785,2.5056,2.5056,2.5605,2.5852,2.584,2.584,2.577,2.5563,2.5366,2.5155,2.5003,2.4566,2.4198,0.0,2.3161,2.2498,2.1686,2.0918,2.0149,1.9293,1.8179,1.696,1.5725,0.0,0.0,0.0,0.0,0.0,0.0,0.3809,0.3911,0.3911,0.3911,0.3911,0.3911,0.3911,0.3911,0.3963,0.4118,0.0,0.0,0.0,0.0,0.0,0.0,0.0,0.0,0.0,0.0,0.9295,0.9894,1.0535,0.0,0.0,0.0,0.0,0.0,0.0,0.0,0.0,0.0,0.0,0.0,0.0,0.0,0.0,0.0,0.0,0.0,0.0,0.0,0.0,0.0,0.0,0.0,2.2713,2.2536,0.0,0.0,2.3462,2.3158,2.2939,2.2576,2.2179,2.1714,2.1126,2.055,2.0134,0.0,1.8548,1.8351,1.7709,1.7142,1.6963,1.6959,1.692,1.6929,1.7284,0.0,0.0,0.0,0.0,0.0,0.0,0.0,0.0,0.0,0.0,2.1642,2.2332,2.2898,2.3333,2.3968,2.4317,2.4317,2.4658,2.4835,2.4835,2.5039,2.5075,2.4862,2.4862,2.4719,2.4371,2.4154,2.402,2.379,2.339,2.2872,0.0,2.1714,2.0951,2.0187,1.9325,1.8364,1.739,1.6234,1.4989,1.3646,0.0,0.0,0.0,0.0,0.0,0.3113,0.37,0.3872,0.3931,0.3931,0.3931,0.3931,0.3931,0.3931,0.3931,0.3931,0.4178,0.0,0.0,0.0,0.0,0.0,0.0,0.0,0.0,0.0,0.875,0.9257,0.9881,1.0505,0.0,0.0,0.0,0.0,0.0,0.0,0.0,0.0,0.0,0.0,0.0,0.0,0.0,0.0,0.0,0.0,0.0,0.0,0.0,0.0,0.0,0.0,0.0,0.0,0.0,0.0,2.3424,2.3088,2.2841,2.2443,2.2002,2.1475,2.0925,2.0369,0.0,0.0,1.8269,1.7998,1.7231,1.6565,1.6436,1.6406,1.6346,1.6268,1.6787,1.7157,1.7224,0.0,0.0,0.0,0.0,0.0,0.0,0.0,2.0543,2.1371,2.1792,2.2136,2.2531,2.3191,2.3706,2.4082,2.407,2.4131,2.4131,2.4059,2.3925,2.3632,2.3632,2.3423,2.3065,2.2916,2.2681,2.2317,2.2043,2.1558,0.0,2.0267,1.9514,1.8714,1.773,1.6643,1.5536,1.4334,1.2954,1.1472,0.0,0.0,0.0,0.0,0.0,0.0,0.3454,0.3789,0.4009,0.4009,0.4009,0.4009,0.4009,0.4009,0.4009,0.4009,0.3939,0.0,0.0,0.0,0.0,0.0,0.0,0.0,0.0,0.0,0.8238,0.8701,0.9375,0.9941,1.0427,1.1027,1.1554,1.2039,0.0,0.0,0.0,0.0,0.0,0.0,0.0,0.0,0.0,0.0,0.0,0.0,0.0,0.0,0.0,0.0,0.0,0.0,0.0,0.0,0.0,0.0,2.3321,2.3052,2.3306,2.298,2.2502,2.2087,2.1126,2.0187,0.0,0.0,1.8083,1.7611,1.7157,1.6833,1.6565,1.6132,1.5927,1.6325,1.6534,1.6768,1.7126,0.0,0.0,0.0,0.0,0.0,0.0,0.0,2.0607,2.1073,2.1312,0.0,2.1512,2.1328,2.1776,2.3001,2.2852,2.2703,2.2703,2.2553,2.2402,2.2402,2.2402,2.2241,2.1842,2.1842,2.1451,2.0779,2.0729,2.0329,0.0,1.9108,1.8415,1.7462,1.6309,1.5239,1.4155,1.2439,1.0881,0.9309,0.0,0.0,0.0,0.0,0.0,0.0,0.0,0.3789,0.4009,0.4009,0.4009,0.4009,0.4009,0.4009,0.4009,0.4009,0.398,0.0,0.0,0.0,0.0,0.0,0.0,0.0,0.0,0.0,0.7927,0.8365,0.8906,0.9383,0.9864,1.0427,1.0952,1.1413,1.1873,0.0,0.0,0.0,0.0,0.0,0.0,0.0,0.0,0.0,0.0,0.0,0.0,0.0,0.0,0.0,0.0,0.0,0.0,0.0,0.0,2.2117,2.2268,0.0,2.255,2.2332,2.1876,2.1429,2.0794,2.0182,1.9678,1.9104,1.8563,1.8147,1.7639,1.7227,1.6921,1.6423,1.6029,1.593,1.6228,1.6441,0.0,0.0,0.0,0.0,0.0,0.0,0.0,0.0,1.9746,2.0033,2.0399,2.0557,2.0382,2.0382,2.076,2.1776,2.17,2.17,2.17,2.1624,2.1547,2.1519,2.1519,2.1352,2.1072,2.0919,2.0501,1.9907,1.945,1.8913,1.8165,1.7423,1.6404,1.5239,1.4263,1.2898,1.1344,0.9868,0.8192,0.6415,0.0,0.0,0.0,0.0,0.0,0.0,0.0,0.3793,0.4125,0.4125,0.4125,0.4125,0.4125,0.4125,0.4125,0.4125,0.4125,0.0,0.0,0.0,0.0,0.0,0.0,0.0,0.7056,0.7362,0.7695,0.8045,0.8535,0.8984,0.9429,0.993,1.0412,1.0859,1.1341,1.1831,0.0,0.0,0.0,0.0,0.0,0.0,1.4841,0.0,0.0,0.0,0.0,0.0,0.0,0.0,0.0,0.0,0.0,0.0,0.0,0.0,2.1506,2.1511,0.0,2.1472,2.1039,2.0626,2.0175,1.9702,1.922,1.8986,1.8739,1.8285,1.7981,1.7666,1.7256,1.6778,1.6393,1.6203,1.6384,0.0,0.0,0.0,0.0,0.0,0.0,0.0,0.0,1.8695,1.8938,1.9352,1.9468,1.945,1.9274,1.9204,1.9432,1.9825,2.0382,2.0615,2.0703,2.0624,2.0589,2.0602,2.0501,2.0311,2.0054,1.9724,1.929,1.8682,1.8128,1.7393,0.0,1.5826,1.4767,1.346,1.2352,1.0942,0.9246,0.762,0.5888,0.3962,0.0,0.0,0.0,0.0,0.0,0.0,0.0,0.381,0.428,0.4305,0.4313,0.4313,0.4313,0.4313,0.4313,0.4313,0.0,0.0,0.0,0.0,0.0,0.0,0.0,0.0,0.6978,0.7253,0.7528,0.7793,0.8241,0.8676,0.9081,0.955,0.9969,1.0396,1.0907,1.1407,1.1854,1.2692,1.3278,1.3665,1.3952,1.4216,0.0,0.0,0.0,0.0,0.0,0.0,0.0,0.0,0.0,0.0,0.0,0.0,0.0,0.0,0.0,0.0,0.0,2.0556,0.0,1.985,1.9475,1.905,1.8663,1.8732,0.0,1.8191,1.8238,1.8187,1.7679,1.724,1.6926,1.7004,1.6872,0.0,0.0,0.0,0.0,0.0,0.0,0.0,1.8322,1.7952,1.806,1.8859,1.8425,1.8175,1.8175,1.8031,1.7797,1.7652,1.8763,1.9512,1.9661,1.9506,1.9472,1.9615,1.9333,1.9093,1.8868,1.8428,1.7819,0.0,1.6733,1.5936,1.4929,1.4349,1.329,1.1925,1.0658,0.9186,0.7505,0.5613,0.3709,0.1703,0.0,0.0,0.0,0.0,0.0,0.0,0.0,0.0,0.0,0.0,0.4313,0.4313,0.4362,0.4382,0.4403,0.0,0.0,0.0,0.0,0.0,0.0,0.0,0.0,0.0,0.6987,0.7253,0.7518,0.7715,0.8126,0.8507,0.8799,0.9274,0.9684,1.0033,1.0508,1.1164,1.1912,1.2364,1.2801,1.3192,1.3506,1.381,0.0,0.0,0.0,0.0,1.5186,1.5882,0.0,0.0,0.0,0.0,0.0,0.0,0.0,0.0,2.0385,2.0269,2.0156,0.0,2.0877,2.0545,2.0123,1.967,0.0,1.9423,1.9483,1.8946,0.0,0.0,1.8344,1.7693,1.7229,0.0,0.0,0.0,0.0,0.0,0.0,0.0,0.0,0.0,1.7665,1.7203,1.7141,1.7738,1.7448,1.7204,1.6878,1.6804,1.6759,1.676,1.7096,1.7554,1.8321,1.8507,1.8584,1.8515,1.8507,1.8205,1.7644,1.736,1.67,1.5771,1.5181,1.426,1.3216,1.2308,1.1063,0.9485,0.8199,0.6407,0.441,0.2506,0.0501,-0.1603,0.0,0.0,0.0,0.0,0.0,0.0,0.0,0.0,0.0,0.0,0.0,0.0,0.0,0.0,0.0,0.0,0.0,0.0,0.0,0.0,0.0,0.0,0.0,0.6945,0.7095,0.7301,0.7508,0.7744,0.8084,0.8375,0.8607,0.9046,0.9434,0.9739,1.0373,1.1001,1.1645,1.203,1.24,1.2799,1.3141,0.0,0.0,0.0,0.0,0.0,1.4634,1.5136,0.0,1.5746,1.6406,1.7297,0.0,0.0,0.0,0.0,1.9705,1.9715,1.9988,2.0269,2.0383,2.0101,1.9714,1.9312,1.8924,1.9399,0.0,0.0,0.0,0.0,0.0,0.0,0.0,0.0,0.0,0.0,0.0,0.0,0.0,0.0,0.0,1.6838,0.0,1.6519,1.6308,1.6609,1.6312,1.5974,1.5643,1.556,1.554,1.5519,1.5568,1.6148,1.736,1.7546,1.7535,1.7239,1.7139,1.6765,1.6183,1.5704,1.5032,1.4064,1.3204,1.2237,1.117,0.9985,0.8696,0.7211,0.571,0.391,0.1908,0.0,-0.2004,-0.4207,0.0,0.0,0.0,0.0,0.0,0.0,0.0,0.0,0.0,0.0,0.0,0.0,0.0,0.0,0.0,0.0,0.0,0.0,0.0,0.0,0.0,0.0,0.6636,0.7116,0.7232,0.7388,0.7566,0.7793,0.8078,0.8308,0.8512,0.8899,0.9262,0.9581,1.0298,1.0859,1.1265,1.1659,1.203,1.2439,1.2778,0.0,0.0,0.0,0.0,0.0,0.0,0.0,0.0,1.4814,1.5424,1.6193,1.6396,0.0,0.0,0.0,0.0,0.0,1.9931,1.9927,1.9654,1.9365,1.9052,1.8735,1.8422,0.0,0.0,0.0,0.0,0.0,0.0,0.0,0.0,0.0,0.0,0.0,0.0,0.0,0.0,0.0,0.0,0.0,1.6396,1.5921,1.5551,1.5545,1.5075,1.4741,1.4398,1.4223,1.413,1.4125,1.4167,1.4799,1.607,1.6359,1.6309,1.5906,1.5615,1.5134,1.4561,1.38,1.3022,1.2145,1.1165,0.0,0.9008,0.771,0.6318,0.492,0.3311,0.1506,-0.0402,-0.2306,-0.4405,-0.6592,0.0,0.0,0.0,0.0,0.0,0.0,0.0,0.0,0.0,0.0,0.0,0.0,0.0,0.0,0.0,0.0,0.0,0.0,0.0,0.0,0.0,0.6231,0.6934,0.7351,0.7361,0.7547,0.7704,0.7793,0.8125,0.8357,0.8512,0.8855,0.9262,0.9776,1.0122,1.0532,1.0991,1.1265,1.1623,1.2039,1.2412,0.0,0.0,0.0,0.0,0.0,0.0,0.0,0.0,1.4598,1.4823,1.5185,1.6,0.0,0.0,0.0,0.0,0.0,1.9256,1.9723,2.0111,1.9801,1.9545,1.929,1.9034,0.0,0.0,0.0,0.0,0.0,0.0,0.0,0.0,0.0,0.0,0.0,0.0,0.0,0.0,0.0,0.0,1.6046,1.5734,1.5132,1.4643,1.4622,1.4048,1.3457,1.3039,1.279,1.2667,1.27,1.2751,1.28,1.2951,1.4303,1.4912,1.458,1.4088,1.3409,1.2721,1.195,1.1072,0.9998,0.0,0.7915,0.6819,0.5418,0.4117,0.2716,0.0905,-0.1005,-0.2913,-0.501,-0.7099,-0.9985,0.0,0.0,0.0,0.0,0.0,0.0,0.0,0.0,0.0,0.0,0.0,0.0,0.0,0.0,0.0,0.0,0.0,0.0,0.0,0.0,0.6463,0.6471,0.7316,0.7715,0.7617,0.7715,0.7832,0.8011,0.8199,0.8396,0.8557,0.8965,0.9354,0.971,1.0021,1.0373,1.0753,1.1024,1.1333,1.1703,0.0,0.0,0.0,0.0,0.0,0.0,0.0,0.0,0.0,0.0,1.4448,1.4677,1.5179,0.0,0.0,0.0,0.0,0.0,1.8902,1.9654,2.0273,2.0145,1.9942,1.9842,2.012,2.0747,0.0,0.0,0.0,0.0,0.0,0.0,0.0,0.0,0.0,0.0,0.0,1.8975,1.8192,0.0,0.0,1.5888,1.514,1.4424,1.3828,1.3355,1.2699,1.2037,1.1455,1.1187,1.1025,1.098,1.0876,1.0839,1.0872,1.1253,1.1843,1.2651,1.2052,1.1365,1.0583,0.9792,0.8905,0.7816,0.0,0.562,0.4518,0.3114,0.1708,0.0302,-0.1607,-0.3512,-0.5787,-1.0764,-1.3987,-1.6881,0.0,0.0,0.0,0.0,0.0,0.0,0.0,0.0,0.0,0.0,0.0,0.0,0.0,0.0,0.0,0.0,0.0,0.0,0.0,0.0,0.6655,0.668,0.7623,0.8084,0.7862,0.789,0.8003,0.8213,0.8329,0.8473,0.8706,0.9112,0.9393,0.9591,0.9905,1.0223,1.0548,1.0825,1.1094,1.1423,0.0,0.0,0.0,0.0,0.0,0.0,0.0,0.0,0.0,0.0,0.0,0.0,0.0,0.0,0.0,1.5552,1.6448,1.7416,1.8351,1.9267,2.0017,2.0263,0.0,2.0268,2.1015,2.1556,0.0,0.0,0.0,0.0,0.0,0.0,0.0,0.0,0.0,2.1536,2.0564,1.9731,1.872,1.7629,1.6794,1.5747,1.4464,1.3722,1.2884,1.1945,1.1107,1.0358,0.9775,0.9338,0.9178,0.905,0.8816,0.8698,0.8711,0.8308,0.8901,1.0596,0.9993,0.9304,0.8517,0.7621,0.6623,0.562,0.452,0.3417,0.2313,0.0704,-0.0704,-0.2111,-0.4112,-0.6738,-1.0278,-1.6484,-2.1029,-2.5073,0.0,0.0,0.0,0.0,0.0,0.0,0.0,0.0,0.0,0.0,0.0,0.0,0.0,0.0,0.0,0.0,0.0,0.0,0.0,0.0,0.688,0.6881,0.784,0.8288,0.8087,0.8195,0.8273,0.8294,0.849,0.8717,0.8983,0.9135,0.9324,0.9511,0.9776,1.0059,1.0324,1.0621,1.0873,1.1155,1.1423,0.0,0.0,0.0,0.0,0.0,0.0,0.0,0.0,0.0,0.0,0.0,0.0,0.0,1.4356,1.4482,1.5237,1.6224,1.7159,1.8154,1.9101,1.9909,2.0201,2.0483,2.1284,2.198,0.0,2.3214,0.0,0.0,0.0,0.0,0.0,0.0,0.0,2.2994,2.1703,0.0,1.9586,1.8055,1.666,1.5251,1.3796,1.2694,1.1685,1.0509,0.9388,0.8533,0.802,0.7334,0.6997,0.6926,0.6761,0.646,0.6126,0.5924,0.6915,0.9004,0.7915,0.712,0.6523,0.5522,0.4422,0.3416,0.2313,0.1208,0.0101,-0.151,-0.2917,-0.4418,-0.6504,-1.1619,-1.8026,-2.0199,-2.6299,-3.3584,0.0,0.0,0.0,0.0,0.0,0.0,0.0,0.0,0.0,0.0,0.0,0.0,0.0,0.0,0.0,0.0,0.0,0.0,0.0,0.6487,0.7058,0.7087,0.8036,0.8538,0.8467,0.843,0.8447,0.849,0.8717,0.8905,0.9065,0.9217,0.9366,0.9564,0.975,0.9995,1.0262,1.0474,1.0705,1.0944,1.1201,1.1452,0.0,0.0,0.0,0.0,0.0,0.0,0.0,0.0,1.3261,1.3427,1.3572,1.3739,1.3878,1.3993,1.4736,1.5729,1.6682,1.7669,1.8651,1.9572,2.0296,0.0,0.0,2.253,2.3035,2.4268,2.4992,0.0,0.0,0.0,0.0,0.0,0.0,2.4608,2.351,2.2196,2.0585,1.8466,1.6716,1.4934,1.2963,1.1513,1.0193,0.886,0.7643,0.6672,0.5874,0.5435,0.5082,0.4645,0.4398,0.4188,0.4021,0.3519,0.3715,0.4309,0.4918,0.4922,0.4418,0.3316,0.2212,0.1107,0.0101,-0.1106,-0.2314,-0.3819,-0.5415,-0.7372,-1.2685,-1.7003,-2.1014,-2.711,-3.1968,-3.5954,0.0,0.0,0.0,0.0,0.0,0.0,0.0,0.0,0.0,0.0,0.0,0.0,0.0,0.0,0.0,0.0,0.0,0.0,0.5759,0.6504,0.7028,0.7246,0.8079,0.8629,0.8792,0.8738,0.8717,0.8706,0.8905,0.9065,0.9135,0.9259,0.942,0.9617,0.9736,0.9931,1.0173,1.0374,1.0548,1.0753,1.0968,1.1215,0.0,0.0,0.0,0.0,0.0,0.0,0.0,0.0,1.2834,1.2982,1.314,1.3261,1.3377,1.3518,1.4099,1.4914,1.6097,1.6958,1.7821,1.8994,0.0,0.0,2.223,2.2834,2.3534,2.494,2.5982,2.6847,2.7549,0.0,0.0,0.0,2.7022,2.6174,2.515,2.3564,2.1473,1.8965,1.672,1.4353,1.191,1.007,0.8336,0.6697,0.546,0.4391,0.3403,0.3135,0.269,0.2246,0.1937,0.1629,0.1408,0.1,0.06,0.0302,0.1306,0.1808,0.201,0.1006,0.0,-0.1107,-0.2112,-0.3416,-0.4718,-0.6019,-0.8691,-1.2494,-1.9082,-2.331,-2.6384,-3.2706,-3.6465,-3.8926,0.0,0.0,0.0,0.0,0.0,0.0,0.0,0.0,0.0,0.0,0.0,0.0,0.0,0.0,0.0,0.0,0.0,0.0,0.59,0.6329,0.6852,0.7381,0.791,0.8445,0.8981,0.9135,0.9101,0.8905,0.9026,0.9135,0.9217,0.9328,0.9461,0.9617,0.9736,0.9905,1.0122,1.0249,1.0399,1.0621,1.0729,1.0968,1.1215,0.0,0.0,0.0,0.0,0.0,0.0,0.0,1.2291,1.2431,1.2626,1.2741,1.282,1.3037,1.3176,1.365,1.5347,1.5941,0.0,0.0,0.0,0.0,2.1353,2.2778,2.4169,2.5119,2.6532,2.7788,2.8396,2.8856,0.0,2.9034,2.8474,2.766,2.6594,2.4699,2.2342,1.9465,1.6609,1.3658,1.0494,0.8261,0.6163,0.4026,0.2778,0.1615,0.0718,0.018,-0.018,-0.045,-0.0806,-0.1209,-0.1607,-0.1777,-0.2073,-0.2415,-0.3016,-0.2211,-0.0503,-0.1308,-0.2212,-0.3317,-0.4321,-0.562,-0.6913,-0.8301,-1.306,-2.0012,-2.5419,-3.0559,-3.5054,-3.6225,-3.9469,-4.3398,0.0,0.0,0.0,0.0,0.0,0.0,0.0,0.0,0.0,0.0,0.0,0.0,0.0,0.0,0.0,0.0,0.0,0.0,0.5963,0.6456,0.7,0.759,0.8122,0.8668,0.9215,0.9251,0.9247,0.9178,0.9232,0.9286,0.9328,0.942,0.9538,0.9658,0.9762,0.988,1.0046,1.0173,1.0274,1.0399,1.0597,1.0753,1.092,0.0,0.0,0.0,0.0,0.0,0.0,0.0,0.0,0.0,1.2164,1.2251,1.2336,1.2475,1.2633,1.3076,1.4673,1.5241,0.0,0.0,0.0,0.0,0.0,2.206,0.0,0.0,2.7242,2.8017,2.9388,2.9648,0.0,3.0768,3.0059,2.9242,2.8836,2.6234,2.309,1.9648,1.5887,1.2152,0.843,0.5797,0.3315,0.1076,-0.0179,-0.1256,-0.2244,-0.278,-0.3136,-0.3317,-0.3831,-0.4133,-0.4231,-0.4687,-0.4986,-0.5308,-0.5775,-0.491,-0.2912,-0.3814,-0.4814,-0.6108,-0.6907,-0.8195,-1.0036,-1.4813,-2.0172,-2.5722,-3.0763,-3.411,-3.6498,-4.0024,-4.2412,-4.4031,0.0,0.0,0.0,0.0,0.0,0.0,0.0,0.0,0.0,0.0,0.0,0.0,0.0,0.0,0.0,0.0,0.0,0.0,0.0,0.6385,0.6897,0.766,0.8098,0.8665,0.9437,0.9461,0.9473,0.9473,0.9381,0.9381,0.9446,0.9511,0.9617,0.9736,0.9776,0.988,0.9995,1.011,1.0224,1.0299,1.0474,1.0597,1.0705,0.0,0.0,0.0,0.0,0.0,0.0,0.0,0.0,0.0,1.1674,1.1762,1.1811,1.194,1.2071,1.2458,1.3937,0.0,0.0,0.0,0.0,1.9565,2.038,0.0,0.0,0.0,0.0,2.8112,2.955,2.983,0.0,3.1681,3.1184,3.0595,3.0472,2.7422,2.3641,1.9426,1.4654,0.9985,0.5546,0.254,-0.0179,-0.2599,-0.3666,-0.4645,-0.5641,-0.5902,-0.6228,-0.643,-0.6783,-0.7082,-0.7071,-0.754,-0.7813,-0.8062,-0.8508,-0.8188,-0.7104,-0.6874,-0.74,-0.8678,-1.1472,-1.3438,-1.5288,-2.2608,-2.7569,-3.1112,-3.5911,-3.8387,-3.9617,-4.2591,-4.4042,-4.4607,0.0,0.0,0.0,0.0,0.0,0.0,0.0,0.0,0.0,0.0,0.5558,0.0,0.0,0.0,0.0,0.0,0.0,0.0,0.0,0.0,0.666,0.7682,0.8014,0.8638,0.9672,0.971,0.971,0.971,0.9514,0.9473,0.9523,0.9591,0.9684,0.9802,0.9802,0.988,0.9995,1.0072,1.0148,1.0274,1.0349,1.0449,1.0572,1.0572,0.0,0.0,0.0,0.0,0.0,0.0,0.0,0.0,1.1192,1.1239,1.1247,1.1378,1.1468,1.1798,1.3075,0.0,0.0,0.0,0.0,0.0,0.0,0.0,2.4541,2.5826,0.0,2.7851,2.8999,2.9377,3.0088,3.1797,3.1776,3.1552,3.1646,2.8086,2.3681,1.8606,1.2683,0.6965,0.1719,-0.1531,-0.4295,-0.6802,-0.7566,-0.8348,-0.927,-0.9331,-0.9393,-0.969,-0.988,-0.999,-1.0079,-1.0375,-1.0641,-1.1071,-1.1657,-1.2308,-1.3026,-1.0605,-1.0227,-1.1702,-1.7484,-2.0726,-2.259,-3.0667,-3.468,-3.6189,-4.0595,-4.2758,-4.3465,-4.4129,-4.4656,-4.5107,0.0,0.0,0.0,0.0,0.0,0.0,0.0,0.0,0.0,0.0,0.0,0.0,0.0,0.0,0.0,0.0,0.0,0.0,0.0,0.0,0.6762,0.7878,0.8844,0.9458,0.9684,0.971,0.971,0.971,0.9658,0.9658,0.9658,0.9736,0.9788,0.9802,0.9854,0.9905,0.9919,0.9995,1.0046,1.0072,1.0148,1.0211,1.0274,1.0274,1.0324,0.0,0.0,0.0,0.0,0.0,0.0,0.0,1.0705,1.0753,1.0753,1.0801,1.0849,1.1049,0.0,1.2439,0.0,0.0,0.0,0.0,0.0,0.0,2.1622,2.4067,2.4951,2.5782,2.738,2.7996,2.8895,3.0799,3.1043,3.137,3.2511,2.6863,2.0919,1.6391,0.8388,0.1243,-0.3898,-0.6569,-0.8913,-1.1042,-1.1701,-1.231,-1.3064,-1.3309,-1.3305,-1.322,-1.3251,-1.3265,-1.3348,-1.3404,-1.464,-1.7064,-1.7516,-1.9451,-2.2324,-1.5382,-1.4663,-1.905,-2.393,-2.8218,-3.1878,-3.4333,-3.7553,-4.1071,-4.2558,-4.3527,-4.4129,-4.4662,-4.5109,-4.5517,0.0,0.0,0.0,0.0,0.0,0.0,0.0,0.0,0.0,0.0,0.0,0.0,0.0,0.0,0.0,0.0,0.0,0.0,0.0,0.0,0.6875,0.8043,0.9145,0.9764,0.9802,0.9802,0.9802,0.9802,0.9802,0.9776,0.9762,0.9788,0.9828,0.9854,0.988,0.9905,0.9905,0.997,0.9995,1.0021,1.0072,1.0122,1.0135,1.0135,1.0161,1.0211,1.0161,0.0,0.0,0.0,0.0,0.0,0.0,0.0,1.0261,1.0236,1.0236,1.0378,0.0,0.0,0.0,0.0,0.0,0.0,0.0,0.0,1.8541,2.037,2.2329,2.4089,2.5413,2.5978,2.6723,2.829,2.8705,2.8748,2.8477,2.1507,1.4473,0.9211,-0.0075,-0.7793,-1.2378,-1.4615,-1.6378,-1.7914,-1.87,-1.9316,-1.9755,-2.022,-2.0351,-2.0184,-2.0183,-2.0073,-2.0001,-2.001,-2.077,-2.2355,-2.2725,-2.4412,-2.7079,-2.2391,-2.199,-2.5096,-2.9536,-3.3095,-3.5798,-3.8224,-4.0766,-4.3173,-4.3769,-4.4261,-4.4721,-4.515,-4.5472,-4.5774,0.0,0.0,0.0,0.0,0.0,0.0,0.0,0.0,0.0,0.0,0.0,0.0,0.0,0.0,0.0,0.0,0.0,0.0,0.0,0.0,0.0,0.8164,0.9259,0.9854,0.9905,0.9905,0.9905,0.9905,0.9905,0.988,0.9828,0.9828,0.9854,0.9905,0.9905,0.9905,0.9905,0.9944,0.997,0.9995,1.0046,1.0072,1.0072,1.0046,1.0046,1.0046,0.997,0.9944,0.9931,0.988,0.0,0.0,0.0,0.0,0.9776,0.9698,0.9646,0.9717,0.0,0.0,0.0,0.0,0.0,0.0,0.0,0.0,0.0,1.632,1.9346,2.2103,2.2979,2.3393,2.3892,2.4964,2.5313,2.4759,2.2789,1.5042,0.727,0.1051,-0.8652,-1.6427,-2.0535,-2.2364,-2.3657,-2.4627,-2.5402,-2.5977,-2.6301,-2.6863,-2.7199,-2.7172,-2.7087,-2.6908,-2.6735,-2.6706,-2.6933,-2.7413,-2.8325,-2.9522,-3.0852,-3.0506,-3.0341,-3.06,-3.4841,-3.7119,-3.8095,-4.1654,-4.3428,-4.3994,-4.4523,-4.4916,-4.5227,-4.5534,-4.577,-4.5942,0.0,0.0,0.0,0.0,0.0,0.0,0.0,0.0,0.0,0.0,0.0,0.0,0.0,0.0,0.0,0.0,0.0,0.0,0.6401,0.0,0.0,0.8271,0.9311,0.9905,0.9905,0.9905,0.9905,0.9905,0.9905,0.9893,0.988,0.988,0.9905,0.9905,0.9905,0.9905,0.9905,0.9905,0.9905,0.9905,0.9931,0.9919,0.9931,0.9854,0.9828,0.9828,0.9762,0.971,0.9658,0.9644,0.9579,0.0,0.0,0.0,0.9286,0.9217,0.9058,0.891,0.0,0.0,0.0,0.0,0.0,0.0,0.0,0.0,0.0,0.0,1.6371,1.8683,1.9547,2.0001,2.0455,2.1139,2.0795,2.0013,1.8639,1.0665,0.286,-0.2883,-1.2,-1.9515,-2.3836,-2.5298,-2.6305,-2.7075,-2.7263,-2.7733,-2.867,-2.8772,-2.899,-2.9463,-2.9223,-2.907,-2.8991,-2.8674,-2.9875,-3.2536,-3.6038,-3.7806,-3.8057,-3.8904,-3.8077,-3.6263,-4.0243,-4.2248,-4.2736,-4.3658,-4.4243,-4.4619,-4.5044,-4.5376,-4.5653,-4.5792,-4.5956,-4.6083,0.0,0.0,0.0,0.0,0.0,0.0,0.0,0.0,0.0,0.0,0.0,0.0,0.0,0.0,0.0,0.7012,0.7032,0.7117,0.7345,0.8161,0.8693,0.8739,0.9474,0.9905,0.9905,0.9905,0.9905,0.9905,0.9905,0.9905,0.9905,0.9905,0.9905,0.9905,0.9905,0.9905,0.9905,0.9905,0.9905,0.9905,0.9905,0.988,0.9828,0.9802,0.9776,0.9736,0.9632,0.9564,0.9511,0.9432,0.9313,0.9205,0.9058,0.0,0.0,0.0,0.8477,0.0,0.0,0.0,0.0,0.0,0.0,0.0,0.0,0.0,0.0,1.1215,1.2253,1.3816,1.594,1.6253,1.6212,1.6229,1.5494,1.3948,1.1118,0.3113,-0.4614,-1.051,-1.9095,-2.5933,-2.9447,-3.0574,-3.1315,-3.1825,-3.2359,-3.2864,-3.3383,-3.3732,-3.4229,-3.4884,-3.4725,-3.4824,-3.5146,-3.4976,-3.5538,-3.684,-3.8596,-3.9695,-4.0142,-4.0779,-4.0695,-4.0182,-4.2124,-4.3427,-4.4252,-4.4562,-4.49,-4.5227,-4.5484,-4.5723,-4.5935,-4.5986,-4.6049,-4.6097,0.0,0.0,0.0,0.0,0.0,0.0,0.0,0.0,0.0,0.0,0.0,0.0,0.0,0.0,0.0,0.0,0.7667,0.7796,0.8049,0.8645,0.9008,0.9086,0.9601,0.9905,0.9905,0.9905,0.9905,0.9905,0.9905,0.9905,0.9905,0.9905,0.9905,0.9905,0.9905,0.9981,1.0106,1.0106,1.0194,1.0332,1.0293,1.0239,1.0185,1.017,1.003,0.9839,0.9716,0.9551,0.9378,0.9178,0.9015,0.8916,0.8673,0.8505,0.0,0.0,0.0,0.0,0.0,0.0,0.0,0.0,0.0,0.0,0.0,0.0,0.0,0.0,0.8573,0.9262,1.1804,1.2212,1.1989,1.1363,1.0173,0.7852,0.3835,-0.3445,-1.0485,-1.6352,-2.3891,-2.973,-3.2585,-3.3828,-3.4614,-3.5029,-3.5805,-3.6396,-3.6716,-3.721,-3.7855,-3.8614,-3.8801,-3.9106,-3.9602,-3.9719,-3.9755,-3.9648,-3.9711,-4.0034,-4.0621,-4.0862,-4.1459,-4.2288,-4.2667,-4.3383,-4.429,-4.4748,-4.5095,-4.5396,-4.5736,-4.5956,-4.6095,-4.6074,-4.6046,-4.6006,0.0,0.0,0.0,0.0,0.0,0.0,0.0,0.0,0.0,0.0,0.0,0.0,0.7257,0.7337,0.7429,0.7497,0.7622,0.7794,0.7981,0.8639,0.9008,0.9008,0.9575,0.0,0.9905,0.9905,0.9905,0.9905,0.9905,0.9905,0.9905,0.9905,0.9905,0.9905,0.9905,1.0194,1.0656,1.0656,0.0,0.0,1.1355,1.1312,1.1295,1.1186,1.0779,1.024,1.0101,0.9653,0.9081,0.8883,0.8701,0.8499,0.8375,0.8109,0.7821,0.0,0.0,0.0,0.0,0.0,0.0,0.0,0.0,0.0,0.0,0.0,0.0,0.0,0.6039,0.5986,0.6902,0.797,0.8245,0.6937,0.5077,0.2377,-0.1692,-0.6878,-1.2274,-1.7678,-2.3112,-2.7609,-3.0578,-3.2599,-3.4031,-3.4675,-3.5078,-3.5726,-3.675,-3.6892,-3.7331,-3.8195,-3.896,-3.9344,-3.9323,-4.0011,-4.0323,-4.025,-4.0323,-4.0376,-4.0424,-4.0552,-4.1105,-4.1951,-4.248,-4.2848,-4.3166,-4.4131,-4.4626,-4.4825,-4.565,-4.6031,-4.61,-4.6041,-4.5916,-4.5789,0.0,0.0,0.0,0.0,0.0,0.0,0.0,0.0,0.0,0.0,0.0,0.0,0.0,0.8097,0.8401,0.8504,0.8671,0.8845,0.8965,0.9227,0.9439,0.951,0.9714,0.9855,0.9905,0.9905,0.9905,0.9905,0.9905,0.9905,0.9905,0.9905,0.9905,0.9918,1.027,1.0518,1.0719,1.1123,0.0,0.0,0.0,1.1351,1.1259,1.1136,1.0893,0.0,0.0,0.0,0.9837,0.9263,0.8939,0.8659,0.8086,0.7753,0.7471,0.7026,0.0,0.0,0.0,0.0,0.0,0.0,0.0,0.0,0.0,0.0,0.0,0.5323,0.4523,0.3633,0.3258,0.4265,0.4755,0.3429,0.1454,-0.1112,-0.4516,-0.8665,-1.298,-1.7617,-2.1667,-2.53,-2.8301,-3.0585,-3.2283,-3.3164,-3.4131,-3.496,-3.5607,-3.5799,-3.6323,-3.7329,-3.7695,-3.8385,-3.9472,-3.9701,-4.0116,-4.0688,-4.0704,-4.0723,-4.0715,-4.0772,-4.0961,-4.1281,-4.1455,-4.2202,-4.3287,-4.3688,-4.3895,-4.396,-4.4273,-4.4376,-4.4345,-4.4239,-4.4085,-4.3914,0.0,0.0,0.0,0.0,0.0,0.0,0.0,0.0,0.0,0.7291,0.0,0.0,0.0,0.0,0.8878,0.9092,0.9205,0.9339,0.9446,0.9536,0.9603,0.9724,0.9777,0.9829,0.9855,0.9893,0.9905,0.9905,0.9905,0.9905,0.9905,0.9905,0.9905,0.9905,1.0616,1.0953,0.0,0.0,0.0,1.1969,0.0,0.0,1.1681,0.0,0.0,0.0,0.0,0.0,0.0,0.9456,0.9077,0.8752,0.7976,0.7416,0.6927,0.0,0.0,0.0,0.5295,0.0,0.0,0.0,0.0,0.0,0.0,0.0,0.0,0.3745,0.2808,0.165,0.0654,0.1009,0.1171,0.0314,-0.1466,-0.3768,-0.6746,-0.9973,-1.3414,-1.7189,-2.0511,-2.3528,-2.6224,-2.8555,-3.0334,-3.1374,-3.2791,0.0,-3.4236,-3.4783,-3.5596,-3.6756,-3.689,-3.7636,-3.9118,-3.9375,-3.9823,-4.0461,-4.0757,-4.0894,-4.0892,-4.0896,-4.0898,-4.0874,-4.0869,-4.1504,-4.2591,-4.2926,-4.3043,-4.3049,-4.3293,-4.3335,-4.3249,-4.3095,-4.2879,-4.2661,0.0,0.0,0.0,0.0,0.0,0.0,0.0,0.0,0.7555,0.8145,0.0,0.0,0.0,0.0,0.0,0.9111,0.9127,0.9224,0.9405,0.947,0.9526,0.9595,0.9712,0.979,0.9804,0.9855,0.9905,0.9905,0.9905,0.9905,0.9905,0.9905,0.9854,0.9852,1.0916,1.1485,1.1625,0.0,1.2622,1.3072,0.0,1.2745,1.2674,0.0,0.0,0.0,1.116,1.0608,0.0,0.9453,0.0,0.0,0.0,0.0,0.0,0.0,0.0,0.0,0.0,0.0,0.0,0.0,0.0,0.0,0.0,0.0,0.0,0.1612,0.0755,-0.0,-0.0794,-0.1851,-0.2533,-0.2434,-0.3754,-0.5739,-0.8419,-1.0887,-1.3564,-1.6643,-1.9676,-2.2346,-2.4431,-2.6647,-2.8367,-2.9445,-3.1011,-3.2172,-3.2716,-3.3895,-3.5145,-3.6509,-3.6687,-3.7206,-3.8143,-3.8981,-3.946,-3.9559,-4.0437,-4.0842,-4.0857,-4.0881,-4.0857,-4.0785,-4.0777,-4.0825,-4.0935,-4.1807,-4.2104,-4.2111,-4.2834,-4.3032,-4.2893,-4.268,-4.2419,-4.2162,0.0,0.0,0.0,0.0,0.0,0.0,0.7555,0.795,0.8259,0.0,0.0,0.0,0.9361,0.9509,0.9717,0.9956,1.0049,0.9999,0.9707,0.9797,0.9766,0.9538,0.9564,0.9619,0.9713,0.9738,0.975,0.975,0.975,0.975,0.975,0.975,0.975,0.9786,1.0841,1.132,1.1363,1.2328,0.0,1.2815,1.2745,1.2591,0.0,0.0,0.0,0.0,0.0,1.0977,1.049,0.0,0.9264,0.8793,0.0,0.0,0.0,0.0,0.0,0.0,0.428,0.0,0.0,0.0,0.0,0.0,0.0,0.0,0.0,0.0566,-0.0193,-0.1039,-0.2188,-0.3047,-0.3818,-0.4656,-0.5669,-0.7087,-0.9182,-1.1334,-1.3717,-1.6353,-1.8554,-2.0751,-2.2992,-2.5033,-2.6747,0.0,-2.9443,-3.0588,-3.1175,-3.2618,-3.3996,-3.5186,-3.5388,-3.5955,-3.6884,-3.7223,-3.7719,-3.8374,-3.9305,-3.9732,-3.9761,-4.03,-4.0532,-4.0507,-4.0419,-4.0352,-4.0356,-4.0796,-4.0875,-4.0742,-4.0831,-4.0768,-4.0589,-4.0394,-4.0134,-3.9869,0.0,0.0,0.0,0.0,0.0,0.7744,0.8009,0.8444,0.8775,0.0,0.0,0.0,0.9686,0.9863,1.0015,1.0156,1.0297,1.0301,1.0107,1.0179,1.0072,0.9724,0.9737,0.9701,0.9619,0.9658,0.9658,0.971,0.971,0.971,0.971,0.9658,0.9753,0.9982,0.0,0.0,0.0,0.0,0.0,0.0,1.252,0.0,0.0,1.2029,1.1811,0.0,0.0,0.0,1.0542,0.982,0.9094,0.0,0.0,0.0,0.0,0.0,0.0,0.0,0.0,0.0,0.0,0.0,0.0,0.0,0.1993,0.1163,0.0315,0.0,-0.1222,-0.2156,-0.2991,-0.3843,-0.4696,-0.5765,-0.6922,-0.825,-0.9917,-1.1668,-1.3652,-1.5931,-1.7611,-1.9339,-2.1153,-2.3093,-2.4655,-2.577,-2.7584,-2.9171,-3.0321,-3.178,-3.2937,-3.3717,-3.429,-3.4907,-3.555,-3.6001,-3.6506,-3.7133,-3.7993,-3.8588,-3.8953,-3.938,-3.9715,-4.0024,-3.9908,-3.9806,-3.9678,-3.9791,-3.987,-3.9928,-3.974,-3.9538,-3.9333,-3.908,-3.883,-3.8554,0.0,0.0,0.7129,0.7227,0.7871,0.8389,0.8469,0.8865,0.9175,0.0,0.9516,0.976,0.9956,1.0082,1.0196,1.0287,1.0376,1.0465,1.0583,1.0559,1.0421,1.0052,1.0099,0.9971,0.9551,0.9625,0.9656,0.9658,0.9658,0.9658,0.9658,0.9579,0.9815,1.0271,0.0,0.0,0.0,0.0,0.0,1.2401,1.221,1.2136,0.0,0.0,1.1625,1.1329,1.1072,1.0684,1.0252,0.971,0.8762,0.0,0.0,0.0,0.0,0.0,0.4904,0.0,0.0,0.0,0.0,0.0,0.0,0.0,0.102,0.0313,-0.0358,0.0,-0.2213,-0.3119,-0.3398,-0.4275,-0.5313,-0.6224,-0.7597,-0.9077,-1.0514,-1.187,-1.3445,-1.5488,-1.6891,-1.8194,-1.9462,-2.1126,-2.251,-2.349,-2.5652,-2.7774,-2.9751,-3.0981,-3.1771,-3.2145,-3.3213,-3.3883,-3.4139,-3.5038,-3.5562,-3.575,-3.6585,-3.7341,-3.8058,-3.8112,-3.8573,-3.9239,-3.9164,-3.9066,-3.8971,-3.882,-3.9053,-3.9438,-3.9205,-3.8962,-3.8733,-3.84,-3.8111,-3.7859,0.0,0.0,0.7249,0.8008,0.818,0.8393,0.8828,0.9238,0.9665,1.0083,1.0885,1.151,1.1706,1.1747,1.186,1.2093,1.1936,1.1632,1.1238,1.102,1.0766,1.0416,1.0402,1.0267,0.9897,0.9908,0.9739,0.9381,0.9381,0.9381,0.9381,0.9354,0.9596,1.0009,1.0522,0.0,0.0,0.0,0.0,1.1856,1.1859,0.0,1.2146,1.1923,1.1837,1.1828,1.1489,1.1113,1.0547,0.9401,0.8472,0.765,0.0,0.0,0.0,0.5198,0.0,0.0,0.0,0.0,0.0,0.0,0.0,0.0,0.0311,-0.0359,-0.1119,0.0,-0.2705,-0.3302,-0.3705,-0.4746,-0.5805,-0.6585,-0.7689,-0.8868,-1.0082,-1.1626,-1.3273,-1.5078,-1.635,-1.7697,-1.9194,-2.0343,-2.1339,-2.2147,-2.4088,-2.6148,-2.8235,-2.8853,-2.9647,-3.0695,-3.1758,-3.2401,-3.2547,-3.3574,-3.4102,-3.4171,-3.5131,-3.5671,-3.5857,-3.6366,-3.7026,-3.7728,-3.7533,-3.7765,-3.819,-3.8062,-3.8273,-3.8626,-3.8524,-3.8291,-3.7995,-3.7773,-3.7505,-3.7226,0.7014,0.7347,0.7742,0.8165,0.8513,0.8856,0.9191,0.9798,1.0312,1.0596,1.134,1.1854,1.2027,1.2156,1.2275,1.2372,1.2413,1.23,1.2063,1.1752,1.1424,1.1074,1.0865,1.0576,1.0217,1.019,1.0113,0.9904,0.9677,0.9677,0.9892,0.9551,0.9779,1.0457,1.0608,1.0888,0.0,0.0,1.1452,1.1373,1.1676,0.0,1.2005,1.183,1.1772,1.1703,1.1318,1.0687,0.9905,0.8868,0.8121,0.0,0.0,0.6211,0.5528,0.0,0.4282,0.3633,0.0,0.0,0.0,0.1726,0.0,0.0,0.0,-0.1075,-0.1884,-0.233,-0.2996,-0.3612,-0.414,-0.5056,-0.5935,-0.6724,-0.7705,-0.8777,-0.9806,-1.1122,-1.2556,-1.4136,-1.5254,-1.6448,-1.7883,-1.9096,-2.0433,-2.1819,-2.338,-2.487,-2.6145,-2.7282,-2.8254,-2.9015,-3.012,-3.0987,-3.1546,-3.217,-3.2685,-3.313,-3.3599,-3.4057,-3.4456,-3.4793,-3.5377,-3.6053,-3.5872,-3.6149,-3.6736,-3.6626,-3.6783,-3.7197,-3.756,-3.7487,-3.719,-3.6978,-3.6741,-3.6457,0.7241,0.7741,0.8226,0.8314,0.8932,0.946,0.9695,1.0357,1.0987,1.1227,1.1714,1.2128,1.2353,1.2489,1.2613,1.2638,1.2748,1.2828,1.2861,1.2505,1.2127,1.1839,1.1415,1.1012,1.0605,1.0508,1.0446,1.0414,1.0007,1.0049,1.0371,0.9841,1.0024,1.0873,1.0699,1.0841,0.0,0.0,0.0,1.0995,0.0,1.1716,1.1768,1.1794,1.1704,1.1512,1.0921,1.0077,0.9136,0.8443,0.7861,0.727,0.6544,0.5859,0.0,0.0,0.0,0.0,0.0,0.0,0.0,0.0,0.0,-0.0,0.0,0.0,0.0,0.0,0.0,0.0,0.0,0.0,0.0,0.0,0.0,0.0,0.0,-1.0526,0.0,-1.3216,-1.4135,-1.5181,-1.641,-1.7932,-1.9634,-2.1545,-2.2647,-2.3559,-2.4273,-2.5848,-2.6906,-2.738,-2.8493,-2.9489,-3.0316,-3.0849,-3.1423,-3.2053,-3.2194,-3.2633,-3.3266,-3.3213,-3.3617,-3.4337,-3.4174,-3.4457,-3.5025,-3.4887,-3.5,-3.5368,-3.6475,-3.6661,-3.6316,-3.6139,-3.5924,-3.5671,0.8067,0.8102,0.8333,0.9045,0.9479,0.9909,1.0397,1.0861,1.1474,1.2359,1.2968,1.3488,1.3965,0.0,0.0,0.0,0.0,0.0,1.3507,0.0,1.2572,1.2591,1.2136,1.1686,1.1296,1.0883,1.0471,1.0048,0.9983,0.9983,1.0037,0.9853,1.0033,1.0453,1.0383,0.0,0.0,0.0,1.0715,0.0,1.1156,1.147,0.0,1.1801,1.1817,1.1733,1.0789,0.9872,0.9023,0.0,0.7772,0.7002,0.0,0.5469,0.48,0.405,0.0,0.0,0.0,0.0,0.0,0.0,-0.0134,0.0,0.0,0.0,-0.246,-0.2993,0.0,0.0,0.0,0.0,0.0,0.0,0.0,0.0,-0.9261,-0.9946,-1.1045,-1.2669,-1.3497,-1.4473,-1.5759,-1.741,-1.8984,-2.0377,-2.0941,-2.1925,-2.3606,-2.4249,-2.4968,-2.5893,-2.7042,-2.7712,-2.7906,-2.9496,-3.0375,-3.046,-3.1185,-3.1582,-3.1668,-3.1538,-3.191,-3.2667,-3.2485,-3.2763,-3.3347,-3.3227,-3.3078,-3.3195,-3.5248,-3.5803,-3.5509,-3.5237,-3.5052,-3.4927,0.8489,0.863,0.0,0.9431,0.9827,1.0275,1.0779,1.1433,1.2158,1.2855,1.3303,1.3744,0.0,0.0,0.0,0.0,0.0,1.4124,0.0,0.0,1.3062,1.3107,1.2477,1.2037,1.1858,1.1408,1.109,1.0882,1.0347,1.0211,1.0416,1.0025,1.0067,1.0413,1.0263,0.0,1.0293,0.0,1.0375,0.0,0.0,0.0,0.0,1.1423,1.1271,1.0685,1.0079,0.9372,0.8718,0.0,0.7309,0.0,0.0,0.0,0.0,0.0,0.0,0.0,0.0,0.0,0.0,0.0,0.0,0.0,-0.1839,0.0,-0.2857,0.0,0.0,0.0,0.0,0.0,0.0,0.0,-0.7946,0.0,0.0,0.0,-1.0696,0.0,0.0,0.0,-1.544,-1.6741,-1.7849,-1.865,-1.9815,-2.0848,-2.1828,-2.2979,-2.3887,-2.4433,-2.5486,-2.6303,-2.6809,-2.7663,-2.8522,-2.9383,-2.9705,-3.0128,-3.0485,-3.0385,-3.0551,-3.0891,-3.0738,-3.1019,-3.1602,-3.1482,-3.1542,-3.1774,-3.2704,-3.343,-3.4049,-3.4252,-3.4267,-3.4118,0.9158,0.0,0.0,0.0,1.0303,1.0827,1.138,1.2153,1.2851,1.3327,0.0,0.0,1.4315,1.4551,0.0,0.0,1.467,1.4617,0.0,0.0,1.3521,0.0,0.0,0.0,0.0,1.1721,1.1432,1.1338,1.069,1.0429,1.0524,1.0121,1.0028,1.0176,0.0,0.9853,0.9723,0.0,0.9933,0.9865,1.0241,1.0181,0.9998,1.0705,1.049,0.971,0.9309,0.8784,0.8165,0.7402,0.6769,0.0,0.5233,0.0,0.0,0.0,0.0,0.0,0.1663,0.0,0.0,0.0,0.0,0.0,0.0,0.0,0.0,0.0,0.0,0.0,0.0,0.0,-0.6816,-0.7447,0.0,-0.8683,0.0,-0.9804,0.0,0.0,0.0,0.0,0.0,-1.5951,-1.6756,-1.7385,-1.866,-1.9706,-2.0404,-2.1717,-2.269,-2.3255,-2.4108,-2.4966,-2.5726,-2.6134,-2.6864,-2.7949,-2.8335,-2.8742,-2.9239,-2.9387,-2.9422,-2.9438,-2.9241,-2.9435,-2.9864,-2.9738,-2.9892,-3.0183,-3.0335,-3.1011,-3.193,-3.2729,-3.3077,-3.3081,1.0289,1.0015,0.0,0.0,0.0,0.0,1.254,0.0,0.0,0.0,0.0,0.0,0.0,0.0,0.0,0.0,0.0,1.4926,1.4524,0.0,1.3906,0.0,0.0,1.2589,0.0,0.0,1.1293,1.0908,1.0879,1.0624,1.0118,1.004,0.9873,0.9619,0.9558,0.9328,0.9041,0.9384,0.9479,0.946,0.9715,0.9565,0.9249,0.0,0.9465,0.9159,0.8633,0.0,0.0,0.6848,0.6253,0.5675,0.4805,0.0,0.0,0.0,0.0,0.0,0.0,0.0,0.0,-0.0716,0.0,0.0,0.0,0.0,-0.3571,0.0,0.0,0.0,0.0,-0.6489,-0.7083,-0.7587,-0.8234,0.0,0.0,0.0,0.0,0.0,0.0,0.0,0.0,-1.4962,-1.5936,-1.6943,-1.7366,-1.829,-1.9933,-2.0308,-2.1173,-2.2675,-2.3061,-2.36,-2.4374,-2.5133,-2.5617,-2.5837,-2.7136,-2.7762,-2.7764,-2.8295,-2.8559,-2.8511,-2.8271,-2.814,-2.8155,-2.8042,-2.7993,-2.8035,-2.8631,-2.8919,-2.9061,-3.0284,-3.1089,-3.1663,0.0,0.0,0.0,0.0,0.0,0.0,0.0,1.3718,0.0,0.0,0.0,0.0,0.0,1.5935,1.5972,0.0,0.0,1.5685,1.5248,1.482,0.0,0.0,0.0,1.3035,0.0,0.0,0.0,1.123,1.0881,1.0453,0.9976,0.9751,0.9444,0.9056,0.0,0.8962,0.0,0.0,0.0,0.0,0.0,0.8639,0.8355,0.0,0.8573,0.815,0.7723,0.7187,0.6701,0.6105,0.5555,0.4937,0.4178,0.3458,0.2856,0.2427,0.1764,0.103,0.0424,-0.014,-0.0696,-0.1399,0.0,0.0,0.0,0.0,0.0,0.0,0.0,0.0,0.0,-0.6696,-0.7293,-0.7821,-0.8398,-0.8926,0.0,0.0,0.0,0.0,0.0,0.0,0.0,0.0,-1.4868,-1.5455,-1.6512,-1.7429,-1.819,-1.923,-2.0088,-2.0779,-2.1845,-2.256,-2.2924,-2.3653,-2.4295,-2.4776,-2.5213,-2.5876,-2.6687,-2.6928,-2.721,-2.7565,-2.7363,-2.7261,-2.7174,-2.7019,-2.6901,-2.6864,-2.7164,-2.7267,-2.7489,-2.9275,-3.0152,-3.0456,1.1315,0.0,0.0,0.0,0.0,0.0,0.0,0.0,0.0,0.0,1.5433,0.0,1.5909,0.0,1.6065,0.0,1.6039,1.5864,1.5457,1.5109,0.0,1.4237,1.3846,0.0,0.0,0.0,0.0,0.0,0.0,1.0299,0.983,0.955,0.9243,0.8875,0.0,0.8625,0.852,0.0,0.8706,0.0,0.0,0.7717,0.0,0.0,0.7396,0.7235,0.0,0.6322,0.5778,0.5234,0.468,0.4125,0.3405,0.292,0.2433,0.1922,0.1152,0.0357,-0.0196,-0.0826,-0.1445,-0.1943,-0.2288,0.0,-0.3132,0.0,-0.4232,0.0,0.0,0.0,0.0,-0.6901,-0.7454,-0.7987,-0.8488,-0.9016,0.0,-1.0293,0.0,0.0,0.0,0.0,0.0,0.0,-1.3943,-1.4469,-1.5451,-1.6348,-1.7033,-1.8048,-1.8847,-1.9512,-2.0526,-2.1326,-2.186,-2.2411,-2.2979,-2.3652,-2.3917,-2.4542,-2.5579,-2.5712,-2.6112,-2.6654,-2.6481,-2.6322,-2.6229,-2.6122,-2.6068,-2.6014,-2.6136,-2.6204,-2.6397,-2.7974,-2.8821,-2.9289,0.0,0.0,0.0,0.0,1.3176,0.0,0.0,0.0,1.5304,0.0,1.5903,1.6022,1.604,1.6251,1.6184,1.5786,1.5742,1.5566,1.5186,1.5142,0.0,0.0,1.3985,1.3556,1.2624,0.0,0.0,0.0,0.0,1.0242,0.966,0.9391,0.9152,0.8943,0.8631,0.0,0.7997,0.8158,0.7917,0.7422,0.7147,0.675,0.6303,0.5878,0.6046,0.6426,0.5937,0.5336,0.4791,0.4187,0.3691,0.3246,0.2633,0.2408,0.2115,0.1132,0.0427,-0.0159,-0.0817,-0.162,-0.2309,-0.2359,-0.2713,-0.3152,0.0,0.0,-0.4596,0.0,0.0,0.0,0.0,0.0,-0.7587,-0.8134,-0.8578,-0.9136,-0.9961,0.0,0.0,0.0,0.0,0.0,0.0,-1.2627,-1.3152,-1.4069,-1.4264,-1.5008,0.0,-1.6765,-1.7475,-1.8851,-1.9114,-1.988,-2.1215,-2.1391,-2.1792,-2.2466,-2.3065,-2.3692,-2.4298,-2.4681,-2.5208,-2.5783,-2.5467,-2.5342,-2.5342,-2.5342,-2.5342,-2.5356,-2.555,-2.566,-2.5784,-2.6404,-2.7287,-2.8237,1.2734,1.3255,1.3826,0.0,1.4225,1.433,0.0,0.0,0.0,0.0,1.6447,1.6804,1.7106,1.7158,1.7175,1.7069,1.6785,0.0,0.0,0.0,0.0,1.4457,1.403,1.3532,1.2897,1.2398,0.0,1.0844,0.0,0.0,0.9249,0.8965,0.8601,0.8112,0.0,0.0,0.7604,0.7564,0.7142,0.6503,0.6136,0.5773,0.5378,0.0,0.4677,0.4563,0.4736,0.457,0.4132,0.3522,0.3246,0.2914,0.1902,0.1455,0.1119,0.0444,-0.0221,-0.0879,-0.1695,-0.2205,-0.2603,-0.2956,-0.3418,-0.3924,-0.4237,-0.4608,0.0,0.0,0.0,0.0,0.0,-0.7196,-0.7655,-0.825,-0.8886,-0.9487,0.0,0.0,0.0,-1.0954,0.0,0.0,0.0,-1.2365,-1.2686,-1.3139,-1.3653,0.0,-1.4956,0.0,-1.656,-1.713,-1.8178,-1.913,-1.9952,-2.0539,-2.1107,-2.1684,-2.1849,-2.2248,-2.2779,-2.3264,-2.381,-2.4285,-2.4493,-2.4567,-2.4567,-2.4452,-2.4509,-2.4624,-2.4751,-2.5034,-2.5397,-2.6136,-2.6732,-2.7199,1.3375,0.0,0.0,1.5402,0.0,0.0,1.5548,1.5795,0.0,1.6785,1.6969,0.0,1.7336,1.7212,1.7136,1.7136,1.6788,0.0,1.6139,0.0,0.0,1.4763,1.4197,1.3558,1.279,1.2318,0.0,1.0755,0.0,0.0,0.9141,0.8752,0.8298,0.7847,0.0,0.7448,0.0,0.6635,0.6095,0.5609,0.5234,0.4842,0.0,0.4015,0.3627,0.335,0.3516,0.3466,0.3299,0.2796,0.2464,0.2018,0.1064,0.056,0.028,-0.0336,-0.1009,-0.1675,-0.2298,-0.2774,-0.3125,-0.3534,-0.4012,-0.453,-0.4747,-0.5178,-0.5587,-0.5823,-0.6223,-0.6587,-0.6983,-0.737,-0.7904,-0.857,-0.9128,0.0,0.0,0.0,0.0,0.0,-1.105,0.0,-1.1796,-1.2089,-1.2377,-1.2627,-1.3047,0.0,0.0,0.0,-1.5681,-1.6124,-1.7225,-1.8218,-1.9093,-1.9607,-2.0288,-2.1068,-2.097,-2.1239,-2.1822,-2.1983,-2.2522,-2.321,-2.3379,-2.3548,-2.3767,-2.3708,-2.378,-2.3956,-2.4203,-2.4593,-2.5118,-2.5646,-2.6096,-2.6553,0.0,0.0,0.0,0.0,0.0,0.0,0.0,1.6386,0.0,1.7428,0.0,1.7223,1.7266,1.6894,1.6673,1.6673,0.0,1.6308,1.6308,1.5804,1.5299,1.48,1.4329,1.3549,1.2503,1.2104,1.1505,0.0,0.0,0.9479,0.901,0.854,0.8133,0.0,0.0,0.0,0.0,0.5496,0.5003,0.4677,0.4405,0.3962,0.3405,0.313,0.2794,0.2458,0.2294,0.224,0.2296,0.2015,0.1513,0.0842,0.0112,-0.028,-0.0617,-0.1122,-0.1794,-0.2521,-0.2745,-0.3244,-0.3767,-0.4091,-0.4583,-0.506,-0.5277,-0.5726,-0.6154,-0.6441,-0.6829,-0.7135,-0.7276,-0.765,-0.8201,0.0,0.0,0.0,0.0,0.0,0.0,0.0,0.0,0.0,0.0,0.0,0.0,0.0,0.0,0.0,0.0,0.0,-1.4908,-1.5486,-1.6376,-1.7332,-1.8426,-1.8688,-1.9352,-2.0393,-2.0333,-2.0579,-2.1055,-2.0881,-2.1369,-2.2356,-2.2214,-2.2505,-2.3017,-2.3017,-2.315,-2.3403,-2.3878,-2.4332,-2.4778,-2.5061,-2.5564,-2.6165,0.0,0.0,0.0,0.0,0.0,1.6824,1.6987,1.6927,1.6951,1.7467,1.7303,1.7344,1.7553,1.7435,1.7282,1.7282,1.6771,0.0,0.0,0.0,0.0,1.441,1.4023,1.3375,1.2416,1.1855,1.108,0.0,0.0,0.9128,0.8111,0.7902,0.7494,0.0,0.0,0.0,0.5171,0.4618,0.0,0.379,0.335,0.2963,0.2687,0.2575,0.2073,0.1345,0.1233,0.1288,0.1454,0.1176,0.0729,0.0056,-0.0561,-0.1122,-0.1572,-0.1905,-0.2298,-0.2745,-0.3297,-0.3744,-0.4239,-0.4761,-0.5295,-0.5726,-0.6051,-0.6365,-0.6656,-0.699,-0.7096,-0.7244,-0.763,-0.8085,-0.8521,0.0,0.0,0.0,0.0,0.0,0.0,0.0,0.0,-1.0926,0.0,0.0,0.0,0.0,0.0,0.0,0.0,0.0,-1.4341,0.0,-1.5714,-1.6672,0.0,-1.8012,-1.8649,-1.9282,-1.9687,-1.9861,-1.9726,-2.013,-2.0563,-2.0949,-2.1399,-2.191,-2.2531,-2.2531,-2.2775,-2.3198,-2.3675,-2.4073,-2.4465,-2.4991,-2.5508,-2.6002,0.0,0.0,0.0,0.0,0.0,0.0,0.0,1.7669,1.7661,1.7733,1.7579,1.7721,1.8062,1.7861,1.7636,1.7365,1.694,1.6511,1.5998,1.5435,1.4788,1.4154,1.3585,1.2876,1.187,1.1438,1.0672,0.967,0.0,0.8647,0.7747,0.7448,0.6922,0.6197,0.0,0.4838,0.0,0.0,0.3461,0.3246,0.2798,0.2238,0.1681,0.1625,0.1177,0.0505,0.0112,-0.0,0.0056,-0.0,-0.028,-0.0729,-0.1569,-0.1906,-0.2074,-0.2519,-0.2907,-0.3297,-0.3799,-0.4298,-0.4798,-0.5234,-0.5673,-0.614,-0.6521,-0.6865,-0.7217,-0.7511,-0.7692,-0.7883,-0.8105,-0.8532,-0.8831,0.0,0.0,0.0,0.0,0.0,0.0,0.0,0.0,0.0,0.0,0.0,0.0,0.0,0.0,0.0,0.0,0.0,-1.4009,0.0,0.0,0.0,-1.6849,0.0,-1.8068,-1.8597,-1.9047,-1.9198,-1.9117,-1.9251,-1.9761,-2.0355,-2.0605,-2.1236,-2.2061,-2.2247,-2.2543,-2.2909,-2.339,-2.3852,-2.4292,-2.4878,-2.5453,-2.6002,0.0,1.6484,0.0,0.0,1.7286,0.0,1.7926,1.8198,1.8272,1.8,1.7968,1.7989,1.8259,1.8032,1.7762,1.7243,1.6877,1.6453,1.5769,1.5129,1.4479,1.3901,1.3272,1.2445,1.1395,1.096,1.0263,0.0,0.0,0.8122,0.7404,0.6984,0.6314,0.0,0.0,0.0,0.0,0.3083,0.2744,0.2575,0.2115,0.143,0.0687,0.0515,0.0172,-0.0343,-0.1022,-0.1304,-0.1358,-0.1348,-0.1345,-0.1514,-0.2465,-0.2575,-0.2517,-0.313,-0.3519,-0.3852,-0.4245,-0.4798,-0.5289,-0.5622,-0.6064,-0.6445,-0.6933,-0.7306,-0.7676,-0.8037,-0.8397,-0.8679,-0.8611,-0.8893,-0.9111,-0.9039,0.0,0.0,0.0,0.0,0.0,0.0,0.0,0.0,-1.0764,0.0,0.0,0.0,0.0,0.0,-1.1811,0.0,0.0,0.0,-1.4896,-1.5771,-1.6184,0.0,-1.7419,-1.7897,-1.8383,-1.8637,-1.8637,-1.8506,-1.8958,-1.9878,-1.9878,-2.0542,-2.1624,-2.1999,-2.2309,-2.2678,-2.315,-2.3675,-2.4189,-2.4778,-2.5397,-2.6002,0.0,0.0,0.0,0.0,0.0,1.8288,1.8078,1.811,1.8197,1.8321,1.8156,1.8008,1.7787,1.7612,1.7334,1.7041,1.6406,1.5955,1.5926,1.4944,1.4172,1.3682,1.3001,1.2241,1.149,1.0586,0.9817,0.0,0.0,0.7775,0.671,0.6312,0.5527,0.4224,0.0,0.3287,0.2743,0.2812,0.2201,0.1221,0.0671,0.0244,-0.0061,-0.0672,-0.1038,-0.1277,-0.213,-0.2344,-0.2332,-0.2599,-0.2462,-0.2184,-0.274,-0.2963,-0.313,-0.3744,-0.4024,-0.4245,-0.4853,-0.5293,-0.5622,-0.6064,-0.65,-0.6933,-0.7359,-0.7681,-0.8002,-0.8613,-0.9003,-0.919,-0.8965,-0.9096,-0.922,-0.935,0.0,0.0,0.0,0.0,-0.9892,0.0,0.0,0.0,0.0,-1.0544,0.0,0.0,-1.125,0.0,0.0,0.0,0.0,-1.3522,-1.4481,-1.5074,-1.5222,-1.619,-1.6696,-1.6754,-1.7732,-1.8084,-1.7952,-1.7952,-1.8464,-1.9298,-1.9298,-2.0057,-2.1296,-2.1737,-2.2111,-2.2482,-2.2957,-2.3543,-2.4189,-2.4778,-2.5397,-2.6002,0.0,0.0,0.0,0.0,0.0,0.0,0.0,1.8092,1.8135,1.8218,1.8045,1.7998,1.7939,1.7864,1.7606,1.6952,1.6632,1.6125,1.5144,1.4681,1.3959,1.2845,1.2441,1.1762,1.0764,1.0051,0.9216,0.0,0.0,0.0,0.6324,0.5898,0.4929,0.3602,0.3292,0.2833,0.234,0.1851,0.111,0.0247,-0.0308,-0.0862,-0.1357,-0.1911,-0.2096,-0.2154,-0.2794,-0.3026,-0.314,-0.3687,-0.335,-0.2852,-0.3408,-0.3574,-0.3744,-0.4349,-0.4629,-0.4849,-0.5395,-0.5727,-0.6064,-0.65,-0.682,-0.7144,-0.7628,-0.7901,-0.8221,-0.8804,-0.9327,-0.9645,-0.9354,-0.9612,-0.9823,-0.9645,0.0,0.0,0.0,0.0,0.0,0.0,0.0,0.0,0.0,0.0,0.0,0.0,0.0,0.0,0.0,0.0,0.0,-1.3509,0.0,-1.4754,-1.48,-1.5838,-1.6373,-1.6395,-1.739,-1.781,-1.7755,-1.7755,-1.8306,-1.9224,-1.993,-2.0603,-2.1221,-2.1624,-2.1987,-2.2482,-2.2896,-2.3484,-2.4189,-2.4778,-2.5453,-2.6111,1.7227,0.0,1.7723,0.0,1.783,1.8001,1.7925,1.8034,1.8094,1.7994,1.7789,1.7728,1.787,1.7893,1.7617,1.6827,1.6634,1.5917,1.4635,1.4265,1.3547,1.2284,1.1855,0.0,1.0258,0.9519,0.8675,0.7868,0.7313,0.0,0.5776,0.5087,0.4185,0.3132,0.2621,0.2089,0.1645,0.095,0.019,-0.0507,-0.1328,-0.1898,-0.2403,-0.2912,-0.3101,-0.3158,-0.3566,-0.3802,-0.3982,-0.4616,-0.4352,-0.3843,-0.4204,-0.4274,-0.4349,-0.4849,-0.5175,-0.5395,-0.5782,-0.6109,-0.644,-0.6874,-0.7144,-0.7408,-0.7901,-0.8168,-0.854,-0.9054,-0.9636,-0.9923,-0.9788,-1.0067,-1.0204,-0.9996,-1.0,0.0,0.0,-0.9899,0.0,0.0,-0.9932,-1.0049,-1.0205,-1.0273,0.0,0.0,0.0,0.0,0.0,-1.235,-1.2915,-1.3441,-1.4098,-1.4507,-1.4602,-1.551,-1.6045,-1.6199,-1.7037,-1.7434,-1.7445,-1.7789,-1.8356,-1.9115,-2.0347,-2.0914,-2.1106,-2.1509,-2.1937,-2.242,-2.2896,-2.3484,-2.4189,-2.4821,-2.5508,-2.6165,1.7037,1.7346,1.7619,1.7594,1.785,1.8064,1.8109,1.8117,1.8016,1.7729,1.7426,1.7326,1.7333,1.7333,1.7138,1.6676,1.5844,1.5219,1.4663,1.3671,1.282,0.0,0.0,1.0739,0.9987,0.9142,0.8181,0.7208,0.0,0.0,0.5017,0.3808,0.3094,0.2829,0.1814,0.1007,0.0403,0.0134,-0.0403,-0.1209,-0.2421,-0.2891,-0.3021,-0.3553,-0.4018,-0.4334,-0.454,-0.468,-0.4975,-0.5322,-0.5506,-0.5415,-0.5078,-0.4918,-0.4956,-0.5242,-0.5508,-0.5832,-0.6119,-0.644,-0.6761,-0.7031,-0.7402,-0.7777,-0.8115,-0.8487,-0.8962,-0.9465,-0.9836,-1.0051,-1.0257,-1.0284,-1.0294,-1.0286,-1.0293,0.0,0.0,-1.0007,0.0,-0.983,-0.9823,-0.9862,-0.998,-1.0049,0.0,0.0,0.0,0.0,0.0,-1.2058,-1.2602,-1.3297,-1.3765,-1.4244,-1.4712,-1.5169,-1.5626,-1.6105,-1.6584,-1.6807,-1.685,-1.7965,-1.8577,-1.8802,-2.0106,-2.0669,-2.0733,-2.1446,-2.1886,-2.2247,-2.2836,-2.3484,-2.4189,-2.4935,-2.5564,-2.6233,1.7393,1.7938,1.8282,1.8252,1.8384,1.8535,1.8502,1.8177,1.7882,1.7816,1.7355,1.6956,1.6683,1.6707,1.6581,0.0,1.5604,1.5058,0.0,1.3356,1.254,1.1855,1.0937,1.0183,0.9571,0.8582,0.7733,0.6947,0.6125,0.5143,0.3908,0.3328,0.2739,0.2087,0.1143,0.0403,-0.0269,-0.0941,-0.1681,-0.2357,-0.2893,-0.3362,-0.3758,-0.4295,-0.4694,-0.5087,-0.537,-0.5611,-0.5791,-0.6193,-0.635,-0.6299,-0.6292,-0.6087,-0.586,-0.6076,-0.6205,-0.6342,-0.6594,-0.682,-0.7031,-0.73,-0.7628,-0.7949,-0.8268,-0.8745,-0.9159,-0.951,-0.9836,-1.0051,-1.0265,-1.0527,-1.0706,-1.0706,-1.0731,-1.0684,-1.0609,0.0,-1.0496,-1.0404,-1.0533,-1.0619,-1.0671,-1.079,0.0,0.0,0.0,0.0,0.0,-1.2402,-1.2721,-1.3232,-1.3538,-1.3945,-1.4414,-1.5056,-1.5637,-1.6116,-1.6584,-1.6864,-1.6998,-1.8035,-1.8588,-1.8742,-2.0106,-2.0733,-2.0914,-2.1549,-2.2111,-2.2531,-2.3198,-2.3839,-2.4452,-2.5077,-2.5797,-2.6578,1.7567,1.7905,1.8133,1.8174,1.8214,1.8265,1.8255,1.7923,1.7767,1.7743,1.7277,1.6731,1.6375,1.6239,1.6042,1.554,1.5216,1.4558,1.3667,1.2957,1.2128,1.122,1.045,0.9698,0.8963,0.8026,0.7197,0.6468,0.5248,0.4084,0.3096,0.2755,0.2082,0.1228,0.0473,-0.0269,-0.1008,-0.1747,-0.2421,-0.3029,-0.3426,-0.3959,-0.4561,-0.5027,-0.5491,-0.602,-0.6218,-0.6412,-0.6671,-0.7003,-0.7053,-0.7081,-0.7262,-0.7114,-0.6832,-0.6733,-0.6822,-0.6952,-0.7072,-0.7225,-0.7362,-0.7538,-0.7788,-0.8109,-0.858,-0.8949,-0.9316,-0.9673,-0.9888,-1.0102,-1.0316,-1.0667,-1.0922,-1.0922,-1.098,-1.1028,-1.0937,0.0,-1.0804,0.0,0.0,-1.0964,-1.0964,-1.1053,-1.1217,0.0,0.0,0.0,0.0,-1.2556,-1.2739,-1.3198,-1.3545,-1.3959,-1.4399,-1.506,-1.5624,-1.6085,-1.6444,-1.6761,-1.6941,-1.7965,-1.8516,-1.8863,-2.0169,-2.0797,-2.1031,-2.1675,-2.2161,-2.2653,-2.3318,-2.4015,-2.4694,-2.537,-2.6068,-2.6878,1.7366,1.7428,1.7436,1.7493,1.7569,1.7597,1.7537,1.7544,1.7507,1.7541,1.705,1.6572,1.6279,1.5797,1.5319,1.5057,1.458,1.3902,1.3204,1.2406,1.1543,1.0318,0.9771,0.9096,0.8227,0.7457,0.663,0.5749,0.4103,0.3102,0.2645,0.2092,0.1266,0.028,-0.0273,-0.101,-0.1884,-0.2284,-0.2753,-0.336,-0.409,-0.4821,-0.5495,-0.5826,-0.642,-0.6946,-0.7012,-0.7269,-0.7591,-0.7727,-0.7797,-0.7797,-0.7987,-0.8052,-0.7965,-0.7355,-0.741,-0.7607,-0.7485,-0.7586,-0.7751,-0.7763,-0.8008,-0.8374,-0.9054,-0.9211,-0.9368,-0.9895,-0.9999,-1.0102,-1.0419,-1.0718,-1.0922,-1.0922,-1.1124,-1.1206,-1.0959,-1.105,-1.1051,-1.0804,-1.0894,-1.0993,-1.0993,-1.1047,-1.1259,0.0,0.0,0.0,0.0,-1.2443,-1.2696,-1.32,-1.3641,-1.4092,-1.4596,-1.5117,-1.5609,-1.6114,-1.6306,-1.6555,-1.6892,-1.7786,-1.8516,-1.9099,-2.0243,-2.0914,-2.1285,-2.1737,-2.2223,-2.2763,-2.3378,-2.4144,-2.4948,-2.566,-2.6351,-2.7056,1.751,1.7458,1.7514,1.7782,1.8004,1.8164,1.8192,1.7963,1.7825,1.7569,1.7074,1.6472,1.5719,1.5246,1.4719,1.422,1.3913,1.342,1.2948,1.1782,1.0885,1.0357,0.9496,0.8581,0.7701,0.6936,0.5814,0.4382,0.3392,0.2774,0.2495,0.1495,0.0583,-0.035,-0.1183,-0.1922,-0.2627,-0.2891,-0.3422,-0.409,-0.4824,-0.5557,-0.6218,-0.6679,-0.7269,-0.7727,-0.7847,-0.8047,-0.8252,-0.8317,-0.8382,-0.8576,-0.8576,-0.87,-0.8639,-0.7902,-0.7886,-0.8016,-0.7957,-0.8125,-0.83,-0.8205,-0.8311,-0.8626,-0.9106,-0.9211,-0.9368,-0.9895,-0.9999,-1.0102,-1.0419,-1.0718,-1.0922,-1.0922,-1.1124,-1.1292,-1.1206,-1.1338,-1.1353,-1.1305,-1.154,-1.1637,-1.1637,-1.1792,-1.1886,-1.1978,0.0,-1.222,-1.2323,-1.2729,-1.3032,-1.3289,-1.3559,-1.4138,-1.4904,-1.5124,-1.5507,-1.6114,-1.6306,-1.6723,-1.7339,-1.7924,-1.87,-1.9587,-2.0452,-2.1158,-2.1651,-2.2211,-2.2823,-2.3437,-2.406,-2.4681,-2.5356,-2.6082,-2.6759,-2.7449,1.7531,1.7571,1.7592,1.7757,1.7893,1.8003,1.8016,1.7799,1.7595,1.7411,1.6898,1.6207,1.5358,1.4998,1.4314,1.3471,1.3255,1.2964,1.2494,1.1471,1.058,0.9744,0.8913,0.8102,0.7234,0.6387,0.5173,0.3655,0.3015,0.2338,0.1769,0.0685,-0.0224,-0.0871,-0.1912,-0.264,-0.3148,-0.3511,-0.4156,-0.4891,-0.5557,-0.6284,-0.6937,-0.7456,-0.7982,-0.8501,-0.8624,-0.8818,-0.8952,-0.8952,-0.9017,-0.9081,-0.9022,-0.9081,-0.9052,-0.8535,-0.8502,-0.8572,-0.8508,-0.8566,-0.8652,-0.8551,-0.8673,-0.885,-0.9141,-0.9211,-0.9368,-0.9895,-0.9999,-1.0102,-1.0419,-1.0718,-1.0922,-1.0922,-1.1124,-1.1326,-1.1326,-1.1427,-1.1528,-1.1528,-1.1678,-1.1828,-1.1828,-1.1927,-1.2026,-1.2026,-1.2291,-1.2503,-1.2503,-1.2997,-1.3233,-1.3198,-1.3782,-1.4316,-1.4831,-1.5273,-1.5719,-1.6114,-1.6353,-1.6822,-1.7488,-1.8158,-1.8949,-1.9867,-2.0676,-2.1348,-2.1851,-2.2396,-2.3005,-2.3767,-2.4408,-2.509,-2.5811,-2.6496,-2.721,-2.7913,1.7582,1.7582,1.7582,1.7582,1.7582,1.7582,1.7582,1.7378,1.7173,1.7173,1.663,1.602,1.5161,1.4826,1.4167,1.2959,1.2705,1.2402,1.1923,1.1149,1.0256,0.9088,0.8379,0.7587,0.6707,0.5765,0.4578,0.3182,0.2702,0.1884,0.0785,-0.0154,-0.0912,-0.1437,-0.253,-0.324,-0.3557,-0.4219,-0.4906,-0.5627,-0.6284,-0.7003,-0.7717,-0.8231,-0.8689,-0.921,-0.9402,-0.9588,-0.9646,-0.9646,-0.9646,-0.9588,-0.9466,-0.9402,-0.9402,-0.921,-0.9145,-0.9099,-0.9009,-0.8983,-0.8968,-0.8972,-0.9026,-0.9068,-0.9238,-0.9246,-0.9368,-0.9895,-0.9999,-1.0102,-1.0419,-1.0718,-1.0871,-1.0922,-1.1124,-1.1276,-1.1326,-1.1427,-1.1477,-1.1477,-1.1578,-1.1678,-1.1678,-1.1831,-1.1968,-1.1968,-1.2432,-1.2755,-1.2755,-1.3266,-1.3439,-1.3233,-1.4131,-1.4646,-1.4704,-1.5484,-1.5961,-1.6056,-1.6472,-1.7032,-1.7653,-1.8447,-1.9243,-2.0093,-2.09,-2.1537,-2.2049,-2.2519,-2.3233,-2.3975,-2.465,-2.5453,-2.6272,-2.6967,-2.7615,-2.8304,1.7582,1.7582,1.7582,1.7582,1.7582,1.7582,1.7582,1.7378,1.7067,1.6842,1.653,1.5988,1.5163,1.4698,1.4038,1.3176,1.2283,1.1693,1.1301,1.0583,0.9723,0.8913,0.812,0.7237,0.6266,0.4825,0.3621,0.2761,0.2408,0.1571,0.0471,-0.0391,-0.1314,-0.2272,-0.2925,-0.357,-0.4117,-0.4996,-0.5741,-0.6284,-0.7068,-0.7717,-0.8425,-0.9069,-0.9524,-0.9919,-1.0238,-1.0428,-1.0428,-1.0428,-1.0301,-1.0174,-1.0174,-1.0047,-0.9856,-0.9856,-0.9798,-0.9594,-0.9291,-0.9369,-0.9553,-0.9706,-0.944,-0.9225,-0.9562,-0.94,-0.9368,-0.9895,-0.9999,-1.0102,-1.0419,-1.0624,-1.0769,-1.0871,-1.1023,-1.1175,-1.1276,-1.1326,-1.1318,-1.1318,-1.1427,-1.1519,-1.1519,-1.1928,-1.2174,-1.2174,-1.2636,-1.296,-1.296,-1.3515,-1.382,-1.3755,-1.4316,-1.4838,-1.5255,-1.57,-1.5914,-1.5914,-1.6805,-1.7518,-1.8094,-1.8946,-1.9813,-2.079,-2.1365,-2.1963,-2.2519,-2.3198,-2.3839,-2.4452,-2.5272,-2.5934,-2.6563,-2.7464,-2.8158,-2.8732,1.7582,1.7582,1.7582,1.7582,1.7582,1.7582,1.7384,1.7166,1.6849,1.653,1.6111,1.5589,1.5007,1.4235,1.3576,1.2736,1.191,1.1194,1.0801,1.0117,0.9368,0.8449,0.7677,0.6611,0.5196,0.3996,0.3231,0.2776,0.1873,0.0875,-0.0079,-0.1177,-0.2105,-0.2777,-0.3495,-0.4242,-0.5081,-0.5713,-0.6495,-0.7225,-0.7831,-0.8425,-0.9134,-0.9773,-1.0295,-1.0618,-1.0996,-1.1122,-1.1122,-1.1122,-1.0996,-1.0807,-1.0744,-1.0555,-1.0301,-1.018,-0.9989,-0.974,-0.9606,-0.9699,-0.9824,-0.9862,-0.9854,-0.9806,-0.9695,-0.9615,-0.9681,-0.9933,-0.9999,-1.0102,-1.0419,-1.0624,-1.0718,-1.0871,-1.1023,-1.1175,-1.1276,-1.1326,-1.1353,-1.155,-1.1627,-1.1766,-1.1956,-1.2253,-1.2412,-1.2412,-1.2937,-1.3271,-1.3309,-1.382,-1.4163,-1.4222,-1.4619,-1.4994,-1.541,-1.573,-1.6035,-1.6315,-1.704,-1.7871,-1.876,-1.9486,-2.029,-2.121,-2.1776,-2.2396,-2.2944,-2.3603,-2.4247,-2.4921,-2.5701,-2.6404,-2.7019,-2.7997,-2.8622,-2.9225,1.7483,1.7582,1.7582,1.7582,1.7589,1.7483,1.7279,1.6849,1.6524,1.6324,1.5797,1.5299,1.4784,1.3964,1.3201,1.2415,1.1647,1.09,1.0314,0.9723,0.8979,0.8077,0.7053,0.5723,0.421,0.3423,0.2922,0.2692,0.1316,0.0322,-0.055,-0.1883,-0.2743,-0.3129,-0.3989,-0.4925,-0.5783,-0.6493,-0.7268,-0.8108,-0.8732,-0.9373,-1.003,-1.0748,-1.1198,-1.1589,-1.197,-1.2052,-1.1921,-1.1929,-1.1751,-1.1428,-1.1247,-1.0996,-1.0751,-1.0491,-1.018,-0.9926,-0.9926,-0.9989,-1.0059,-1.0034,-1.0235,-1.0299,-0.9995,-0.9946,-1.0024,-1.0076,-1.012,-1.0194,-1.0435,-1.0573,-1.0718,-1.082,-1.1039,-1.12,-1.1353,-1.1482,-1.1636,-1.1935,-1.1916,-1.2081,-1.2363,-1.2586,-1.2694,-1.2694,-1.3173,-1.3566,-1.3656,-1.4087,-1.4396,-1.4625,-1.4862,-1.5147,-1.5478,-1.5878,-1.6285,-1.6727,-1.7473,-1.8312,-1.9282,-2.0019,-2.0779,-2.1526,-2.2161,-2.2714,-2.3258,-2.3956,-2.4708,-2.5384,-2.6176,-2.6864,-2.758,-2.8528,-2.918,-2.9701,1.7179,1.7378,1.7582,1.7582,1.7378,1.7179,1.7179,1.6749,1.6324,1.6324,1.5797,1.5363,1.5013,1.4063,1.3265,1.273,1.153,1.0609,1.0019,0.9324,0.8586,0.7983,0.6139,0.4757,0.3939,0.3161,0.2666,0.2355,0.1069,-0.0,-0.0786,-0.1961,-0.2743,-0.3132,-0.4373,-0.5313,-0.6101,-0.74,-0.8303,-0.8974,-0.9915,-1.0666,-1.1438,-1.2162,-1.2632,-1.2966,-1.338,-1.3306,-1.2956,-1.2852,-1.2451,-1.1996,-1.1685,-1.1435,-1.1178,-1.087,-1.0555,-1.0238,-1.0238,-1.0238,-1.0301,-1.0471,-1.0444,-1.0409,-1.0481,-1.042,-1.0357,-1.0429,-1.047,-1.0478,-1.0474,-1.0522,-1.0573,-1.0667,-1.1107,-1.1428,-1.1534,-1.199,-1.2321,-1.2346,-1.2355,-1.2363,-1.2389,-1.2723,-1.2995,-1.2995,-1.3457,-1.3786,-1.3786,-1.413,-1.4506,-1.498,-1.498,-1.5205,-1.5672,-1.6237,-1.6697,-1.7095,-1.8258,-1.9018,-1.943,-2.0378,-2.1175,-2.1714,-2.2334,-2.2957,-2.3616,-2.4434,-2.5118,-2.577,-2.6654,-2.7363,-2.7997,-2.898,-2.9629,-3.0149,1.7179,1.7279,1.7378,1.7582,1.7378,1.7173,1.6955,1.653,1.6217,1.6105,1.5577,1.5148,1.5041,1.386,1.2962,1.2756,1.1339,1.0413,1.0019,0.9225,0.8192,0.6948,0.558,0.4478,0.3764,0.3027,0.2528,0.2271,0.0918,-0.0408,-0.1493,-0.2198,-0.2899,-0.3754,-0.4771,-0.5829,-0.6995,-0.7991,-0.899,-0.9916,-1.0735,-1.1491,-1.2241,-1.2983,-1.351,-1.3842,-1.4181,-1.422,-1.4038,-1.3917,-1.3575,-1.3163,-1.2679,-1.2172,-1.1632,-1.0989,-1.0618,-1.0498,-1.0498,-1.0371,-1.0364,-1.0561,-1.0725,-1.0773,-1.0639,-1.0744,-1.0857,-1.0872,-1.086,-1.0933,-1.1075,-1.1106,-1.116,-1.1285,-1.1453,-1.1699,-1.1965,-1.2138,-1.2427,-1.2723,-1.2757,-1.2843,-1.3057,-1.322,-1.3305,-1.3305,-1.3494,-1.37,-1.3769,-1.4139,-1.4616,-1.5349,-1.5349,-1.559,-1.6069,-1.6407,-1.7063,-1.7937,-1.8722,-1.9434,-2.0176,-2.0991,-2.1714,-2.2273,-2.2957,-2.3603,-2.4234,-2.5048,-2.5715,-2.6297,-2.721,-2.7898,-2.8528,-2.9496,-3.0107,-3.0666,1.6961,1.7173,1.7279,1.7582,1.7272,1.6955,1.673,1.6418,1.6111,1.5891,1.5357,1.5041,1.5041,1.365,1.2653,1.2653,1.1339,1.0216,0.9924,0.883,0.7611,0.6283,0.5127,0.4212,0.3497,0.2782,0.2374,0.2188,0.0758,-0.0576,-0.1887,-0.2356,-0.3134,-0.4146,-0.516,-0.6321,-0.7548,-0.8613,-0.9658,-1.0828,-1.1649,-1.2541,-1.3286,-1.4046,-1.4588,-1.4925,-1.5268,-1.5323,-1.5151,-1.4953,-1.4612,-1.4148,-1.3558,-1.2767,-1.192,-1.115,-1.0807,-1.0618,-1.0624,-1.0498,-1.0434,-1.0561,-1.0877,-1.1066,-1.0793,-1.1041,-1.1256,-1.1156,-1.1203,-1.1287,-1.1406,-1.1495,-1.1551,-1.1624,-1.1777,-1.1963,-1.2182,-1.233,-1.2563,-1.2941,-1.2974,-1.3135,-1.3442,-1.3459,-1.3459,-1.3511,-1.3511,-1.3683,-1.4057,-1.4257,-1.4802,-1.5756,-1.5775,-1.6081,-1.6775,-1.7032,-1.7584,-1.8574,-1.9169,-1.9918,-2.07,-2.14,-2.2025,-2.2641,-2.3365,-2.4015,-2.4637,-2.5495,-2.615,-2.6759,-2.765,-2.8384,-2.9042,-2.9935,-3.0584,-3.1089,1.663,1.6955,1.7279,1.7582,1.7054,1.673,1.673,1.6205,1.5891,1.5891,1.5357,1.5041,1.5035,1.365,1.2653,1.2751,1.1339,1.0216,0.9628,0.7856,0.6655,0.6183,0.4943,0.3941,0.3227,0.2512,0.2199,0.2192,0.0758,-0.0576,-0.1887,-0.2512,-0.3292,-0.4146,-0.5541,-0.6707,-0.7633,-0.9236,-1.0513,-1.1484,-1.2746,-1.3775,-1.4713,-1.548,-1.6053,-1.6342,-1.6769,-1.6633,-1.6285,-1.5891,-1.5442,-1.4863,-1.4131,-1.3099,-1.1984,-1.1284,-1.0933,-1.0744,-1.0624,-1.0624,-1.0624,-1.0624,-1.0877,-1.1122,-1.1122,-1.1373,-1.1527,-1.1323,-1.1428,-1.1447,-1.1313,-1.1406,-1.1495,-1.1495,-1.197,-1.2329,-1.2329,-1.2699,-1.2989,-1.2989,-1.2989,-1.3111,-1.331,-1.3302,-1.3354,-1.3511,-1.3511,-1.3804,-1.456,-1.4586,-1.507,-1.6182,-1.6192,-1.6776,-1.7865,-1.808,-1.8466,-1.8913,-1.9749,-2.0366,-2.0892,-2.1463,-2.2025,-2.2641,-2.3458,-2.4163,-2.4892,-2.5729,-2.6525,-2.7174,-2.7997,-2.8764,-2.9496,-3.0318,-3.0931,-3.1511,1.663,1.673,1.7054,1.7477,1.7054,1.673,1.673,1.6205,1.5891,1.5891,1.5357,1.4973,1.4801,1.3554,1.2587,1.2435,1.1155,1.0015,0.9126,0.7664,0.6655,0.6183,0.4943,0.3941,0.3227,0.2512,0.2199,0.2192,0.0758,-0.074,-0.2354,-0.2669,-0.345,-0.454,-0.5699,-0.693,-0.8232,-0.9669,-1.1025,-1.2372,-1.347,-1.4553,-1.5551,-1.6263,-1.676,-1.7097,-1.752,-1.7503,-1.7243,-1.6912,-1.636,-1.5678,-1.4525,-1.322,-1.2151,-1.1732,-1.1227,-1.0744,-1.0624,-1.0624,-1.0624,-1.0624,-1.0877,-1.1122,-1.1122,-1.1373,-1.1593,-1.1613,-1.1783,-1.1936,-1.1964,-1.2122,-1.2242,-1.2242,-1.2398,-1.2522,-1.2643,-1.2793,-1.2867,-1.2989,-1.2989,-1.305,-1.3111,-1.3111,-1.3172,-1.3354,-1.3714,-1.421,-1.4985,-1.5003,-1.5513,-1.6646,-1.6656,-1.7251,-1.8338,-1.8243,-1.8697,-1.9587,-2.0171,-2.0828,-2.1463,-2.2087,-2.2702,-2.3318,-2.3989,-2.4751,-2.5508,-2.6204,-2.6967,-2.775,-2.8543,-2.9271,-2.9995,-3.0788,-3.1414,-3.1914,1.6624,1.6723,1.6935,1.7477,1.7054,1.673,1.673,1.6205,1.5891,1.5891,1.5357,1.4944,1.4704,1.3511,1.2562,1.2344,1.1024,0.9788,0.8833,0.763,0.6723,0.6112,0.492,0.3941,0.3136,0.2512,0.2111,0.1854,0.0589,-0.0904,-0.2511,-0.2901,-0.3682,-0.4851,-0.6012,-0.7238,-0.8613,-1.0045,-1.1391,-1.2813,-1.4042,-1.5188,-1.6184,-1.7019,-1.7579,-1.791,-1.8269,-1.8337,-1.8046,-1.7784,-1.7028,-1.6062,-1.4783,-1.3687,-1.2772,-1.2051,-1.1453,-1.1022,-1.0715,-1.0624,-1.0624,-1.0624,-1.0877,-1.1122,-1.1122,-1.1373,-1.1622,-1.1685,-1.1872,-1.2058,-1.2182,-1.2367,-1.2498,-1.256,-1.2621,-1.2629,-1.2683,-1.2744,-1.2744,-1.2805,-1.2867,-1.2867,-1.2928,-1.2928,-1.3108,-1.3512,-1.3984,-1.4552,-1.5393,-1.5411,-1.593,-1.7091,-1.7168,-1.7552,-1.8482,-1.8543,-1.9002,-1.9933,-2.0453,-2.1083,-2.1714,-2.2334,-2.2957,-2.3628,-2.4363,-2.509,-2.5839,-2.6616,-2.7363,-2.8143,-2.8904,-2.9673,-3.0377,-3.1184,-3.1804,-3.2351,1.663,1.6717,1.6922,1.747,1.716,1.673,1.673,1.6311,1.5891,1.5891,1.5357,1.4938,1.467,1.3501,1.2659,1.2314,1.0911,0.9649,0.8698,0.777,0.687,0.5907,0.4887,0.3851,0.2957,0.2423,0.1935,0.1432,0.0336,-0.0985,-0.2589,-0.3136,-0.3992,-0.5082,-0.6395,-0.7629,-0.8851,-1.0288,-1.1694,-1.3084,-1.4466,-1.5683,-1.6742,-1.7696,-1.824,-1.8576,-1.8998,-1.9008,-1.8741,-1.8337,-1.7373,-1.614,-1.5085,-1.434,-1.3646,-1.2299,-1.1694,-1.1386,-1.0796,-1.0645,-1.0624,-1.0624,-1.0807,-1.1059,-1.1122,-1.1373,-1.156,-1.1622,-1.1685,-1.1872,-1.2058,-1.2182,-1.2367,-1.256,-1.256,-1.2621,-1.2621,-1.2621,-1.2621,-1.2621,-1.2621,-1.2629,-1.2744,-1.2838,-1.314,-1.3916,-1.4261,-1.4872,-1.5792,-1.581,-1.6319,-1.7451,-1.747,-1.7803,-1.8482,-1.8942,-1.9407,-1.9933,-2.0582,-2.121,-2.1788,-2.2396,-2.3005,-2.3734,-2.4664,-2.5384,-2.6056,-2.6982,-2.7715,-2.8432,-2.918,-2.9962,-3.0747,-3.149,-3.2127,-3.2752,1.6543,1.6736,1.6935,1.7477,1.7272,1.6955,1.673,1.6424,1.6111,1.5891,1.5577,1.5088,1.4419,1.3707,1.2999,1.2185,1.0829,0.9649,0.8698,0.777,0.687,0.5907,0.4887,0.3941,0.3136,0.2512,0.1935,0.1432,0.0336,-0.1149,-0.2982,-0.3292,-0.407,-0.5318,-0.6549,-0.7927,-0.9296,-1.0807,-1.2365,-1.389,-1.5117,-1.6254,-1.7304,-1.8104,-1.8643,-1.8998,-1.9341,-1.9274,-1.8875,-1.792,-1.7038,-1.6193,-1.5545,-1.4689,-1.3739,-1.2979,-1.2169,-1.1435,-1.1046,-1.0735,-1.0624,-1.0624,-1.0744,-1.0933,-1.1059,-1.1247,-1.1428,-1.156,-1.1685,-1.1809,-1.1872,-1.212,-1.2305,-1.2367,-1.2498,-1.2621,-1.2621,-1.2621,-1.2621,-1.2621,-1.2621,-1.2621,-1.2621,-1.3002,-1.3558,-1.4471,-1.4706,-1.5181,-1.5992,-1.6148,-1.6531,-1.7235,-1.751,-1.792,-1.8482,-1.9008,-1.9539,-2.0042,-2.0764,-2.1486,-2.2123,-2.2848,-2.3556,-2.4176,-2.4964,-2.5742,-2.6563,-2.7327,-2.811,-2.8966,-2.9673,-3.046,-3.1201,-3.1841,-3.2453,-3.3111,1.6636,1.6736,1.6836,1.7477,1.7364,1.7041,1.673,1.6424,1.6217,1.5891,1.569,1.5176,1.4441,1.3777,1.2978,1.1722,1.0703,0.9803,0.8771,0.7914,0.7025,0.5822,0.4952,0.4121,0.3227,0.2602,0.2023,0.1432,0.0252,-0.1313,-0.3141,-0.345,-0.4226,-0.547,-0.6703,-0.8003,-0.9523,-1.1031,-1.2586,-1.4114,-1.5401,-1.6594,-1.7774,-1.8519,-1.9121,-1.9594,-1.9802,-1.9539,-1.8942,-1.7998,-1.7176,-1.6482,-1.5718,-1.4939,-1.405,-1.3194,-1.2384,-1.1636,-1.1029,-1.0717,-1.0561,-1.0498,-1.0561,-1.0744,-1.0933,-1.1115,-1.1303,-1.1428,-1.1622,-1.1747,-1.1809,-1.1926,-1.2112,-1.2182,-1.2367,-1.2436,-1.2436,-1.256,-1.2621,-1.2621,-1.271,-1.2877,-1.3036,-1.3435,-1.3929,-1.4514,-1.4825,-1.5286,-1.5921,-1.6211,-1.6551,-1.7166,-1.7501,-1.7988,-1.8617,-1.9208,-1.9736,-2.0366,-2.1019,-2.1663,-2.2309,-2.315,-2.3852,-2.4593,-2.5314,-2.6122,-2.6982,-2.7665,-2.848,-2.9332,-3.0064,-3.0788,-3.1507,-3.2179,-3.2983,-3.376,1.663,1.6736,1.6842,1.7477,1.7457,1.7127,1.6836,1.653,1.6318,1.5998,1.5684,1.5276,1.4435,1.37,1.2687,1.1423,1.0708,0.9955,0.8828,0.8149,0.7082,0.5822,0.5104,0.4302,0.3315,0.2781,0.2111,0.1432,0.0084,-0.1396,-0.3141,-0.3608,-0.446,-0.5622,-0.6777,-0.8152,-0.9744,-1.1174,-1.2652,-1.4186,-1.5542,-1.6872,-1.8104,-1.8865,-1.9528,-2.0107,-2.0074,-1.9681,-1.9008,-1.8279,-1.752,-1.6691,-1.5788,-1.507,-1.4299,-1.317,-1.2445,-1.1792,-1.1068,-1.0692,-1.0507,-1.0379,-1.0404,-1.0561,-1.0681,-1.0989,-1.124,-1.1303,-1.1435,-1.156,-1.1747,-1.1802,-1.1864,-1.1996,-1.2182,-1.2243,-1.2243,-1.2436,-1.2522,-1.2577,-1.2901,-1.3314,-1.364,-1.3942,-1.421,-1.449,-1.4898,-1.5355,-1.5726,-1.607,-1.6551,-1.7097,-1.751,-1.8056,-1.8808,-1.9341,-1.9998,-2.0635,-2.1198,-2.1839,-2.2469,-2.3318,-2.4086,-2.4892,-2.566,-2.6457,-2.721,-2.8046,-2.8857,-2.9585,-3.036,-3.1106,-3.1787,-3.2601,-3.3496,-3.4386,1.6543,1.6649,1.6855,1.7483,1.7575,1.7477,1.7173,1.6849,1.6524,1.6324,1.5998,1.5475,1.4435,1.3098,1.2046,1.1595,1.0801,0.9955,0.8828,0.8149,0.7175,0.6094,0.5193,0.4389,0.3849,0.296,0.2111,0.1432,0.0084,-0.1396,-0.3141,-0.3608,-0.446,-0.5622,-0.6927,-0.8376,-0.997,-1.1545,-1.3091,-1.4609,-1.5965,-1.7226,-1.8337,-1.9008,-1.9594,-2.0107,-2.0074,-1.9681,-1.9008,-1.8279,-1.7382,-1.6542,-1.5709,-1.4919,-1.4049,-1.3361,-1.2548,-1.1874,-1.1545,-1.094,-1.0403,-1.0403,-1.0354,-1.0364,-1.0371,-1.0618,-1.0926,-1.124,-1.1303,-1.1373,-1.156,-1.1747,-1.1809,-1.1872,-1.1996,-1.2127,-1.2127,-1.2127,-1.2227,-1.2519,-1.2987,-1.347,-1.4005,-1.4085,-1.4313,-1.4775,-1.5037,-1.5275,-1.5505,-1.5991,-1.6482,-1.6908,-1.7588,-1.8212,-1.8808,-1.9473,-2.0129,-2.0635,-2.1451,-2.2075,-2.2592,-2.3603,-2.4363,-2.5005,-2.5974,-2.6811,-2.7515,-2.8463,-2.9257,-3.0011,-3.0747,-3.149,-3.2266,-3.3343,-3.4055,-3.452,1.6636,1.6736,1.6942,1.7477,1.7582,1.7483,1.7279,1.6955,1.663,1.6324,1.6105,1.5581,1.4645,1.3138,1.2078,1.1883,1.0998,1.0052,0.9108,0.8337,0.7366,0.6183,0.546,0.4746,0.3939,0.3101,0.243,0.1852,0.042,-0.1313,-0.3141,-0.345,-0.4304,-0.5622,-0.6927,-0.8376,-1.0045,-1.1626,-1.3164,-1.4744,-1.6035,-1.7354,-1.8452,-1.9075,-1.9671,-2.0259,-2.0064,-1.9605,-1.8998,-1.8124,-1.7295,-1.6464,-1.548,-1.4705,-1.3912,-1.3112,-1.2387,-1.1799,-1.1365,-1.0931,-1.0583,-1.0371,-1.0305,-1.0367,-1.034,-1.0428,-1.0618,-1.0926,-1.1178,-1.1303,-1.1435,-1.156,-1.1685,-1.1685,-1.1809,-1.1994,-1.2183,-1.2277,-1.2531,-1.299,-1.3384,-1.3746,-1.423,-1.434,-1.4474,-1.4705,-1.4991,-1.5204,-1.5355,-1.5921,-1.6482,-1.6908,-1.7598,-1.8337,-1.8942,-1.966,-2.0313,-2.0967,-2.1726,-2.2334,-2.2919,-2.3813,-2.4637,-2.5453,-2.6244,-2.7071,-2.7913,-2.8764,-2.9589,-3.0368,-3.1067,-3.2004,-3.2983,-3.3742,-3.4302,-3.4732]},{"header":{"parameterUnit":"m.s-1","parameterCategory":1,"la1":30.6,"la2":28.766,"lo1":-90.7593,"lo2":-88.6598,"dy":0.0162,"dx":0.0183,"nx":116,"ny":114,"refTime":"2023-08-24T12:00:00:Z","depth":0,"parameterNumber":3,"parameterNumberName":"V-component_of_WINDS"},"data":[0.0,0.0,0.0,0.0,0.0,0.0,0.0,0.0,0.0,0.0,0.0,0.0,0.0,0.0,0.0,0.0,0.0,0.0,0.0,0.0,0.0,0.0,0.0,0.0,0.0,0.0,0.0,0.0,0.0,0.0,0.0,0.0,0.0,0.0,0.0,0.0,0.0,0.0,0.0,0.0,0.0,0.0,0.0,0.0,0.0,0.0,0.0,0.0,0.0,0.0,0.0,0.0,0.0,0.0,0.0,0.0,0.0,0.0,0.0,0.0,0.0,0.0,0.0,0.0,0.0,0.0,0.0,0.0,0.0,0.0,0.0,0.0,0.0,0.0,0.0,0.0,0.0,0.0,0.0,0.0,0.0,0.0,0.0,0.0,0.0,0.0,0.0,0.0,0.0,0.0,0.0,0.0,0.0,0.0,0.0,0.0,0.0,0.0,0.0,0.0,0.0,0.0,0.0,0.0,0.0,0.0,0.0,0.0,0.0,0.0,0.0,0.0,0.0,0.0,0.0,0.0,0.0,0.0,0.0,0.0,0.0,0.0,0.0,0.0,0.0,0.0,0.0,0.0,0.0,0.0,0.0,0.0,0.0,0.0,0.0,0.0,0.0,0.0,0.0,0.0,0.0,0.0,0.0,0.0,0.0,0.0,0.0,0.0,0.0,0.0,0.0,0.0,0.0,0.0,0.0,0.0,0.0,0.0,0.0,0.0,0.0,0.0,0.0,0.0,0.0,0.0,0.0,0.0,0.0,0.0,0.0,0.0,0.0,0.0,0.0,0.0,0.0,0.0,0.0,0.0,0.0,0.0,0.0,0.0,0.0,0.0,0.0,0.0,0.0,0.0,0.0,0.0,0.0,0.0,0.0,0.0,0.0,0.0,0.0,0.0,0.0,0.0,0.0,0.0,0.0,0.0,0.0,0.0,0.0,0.0,0.0,0.0,0.0,0.0,0.0,0.0,0.0,0.0,0.0,0.0,0.0,0.0,0.0,0.0,0.0,0.0,0.0,0.0,0.0,0.0,0.0,0.0,0.0,0.0,0.0,0.0,0.0,0.0,0.0,0.0,0.0,0.0,0.0,0.0,0.0,0.0,0.0,0.0,0.0,0.0,0.0,0.0,0.0,0.0,0.0,0.0,0.0,0.0,0.0,0.0,0.0,0.0,0.0,0.0,0.0,0.0,0.0,0.0,0.0,0.0,0.0,0.0,0.0,0.0,0.0,0.0,0.0,0.0,0.0,0.0,0.0,0.0,0.0,0.0,0.0,0.0,0.0,0.0,0.0,0.0,0.0,0.0,0.0,0.0,0.0,0.0,0.0,0.0,0.0,0.0,0.0,0.0,0.0,0.0,0.0,0.0,0.0,0.0,0.0,0.0,0.0,0.0,0.0,0.0,0.0,0.0,0.0,0.0,0.0,0.0,0.0,0.0,0.0,0.0,0.0,0.0,0.0,0.0,0.0,0.0,0.0,0.0,0.0,0.0,0.0,0.0,0.0,0.0,0.0,0.0,0.0,0.0,0.0,0.0,0.0,0.0,0.0,0.0,0.0,0.0,0.0,0.0,0.0,0.0,0.0,0.0,0.0,0.0,0.0,0.0,0.0,0.0,0.0,0.0,0.0,0.0,0.0,0.0,0.0,0.0,0.0,0.0,0.0,0.0,0.0,0.0,0.0,0.0,0.0,0.0,0.0,0.0,0.0,0.0,0.0,0.0,0.0,0.0,0.0,0.0,0.0,0.0,0.0,0.0,0.0,0.0,0.0,0.0,0.0,0.0,0.0,0.0,0.0,0.0,0.0,0.0,0.0,0.0,0.0,0.0,0.0,0.0,0.0,0.0,0.0,0.0,0.0,0.0,0.0,0.0,0.0,0.0,0.0,0.0,0.0,0.0,0.0,0.0,0.0,0.0,0.0,0.0,0.0,0.0,0.0,0.0,0.0,0.0,0.0,0.0,0.0,0.0,0.0,0.0,0.0,0.0,0.0,0.0,0.0,0.0,0.0,0.0,0.0,0.0,0.0,0.0,0.0,0.0,0.0,0.0,0.0,0.0,0.0,0.0,0.0,0.0,0.0,0.0,0.0,0.0,0.0,0.0,0.0,0.0,0.0,0.0,0.0,0.0,0.0,0.0,0.0,0.0,0.0,0.0,0.0,0.0,0.0,0.0,0.0,0.0,0.0,0.0,0.0,0.0,0.0,0.0,0.0,0.0,0.0,0.0,0.0,0.0,0.0,0.0,0.0,0.0,0.0,0.0,0.0,0.0,0.0,0.0,0.0,0.0,0.0,0.0,0.0,0.0,0.0,0.0,0.0,0.0,0.0,0.0,0.0,0.0,0.0,0.0,0.0,0.0,0.0,0.0,0.0,0.0,0.0,0.0,0.0,0.0,0.0,0.0,0.0,0.0,0.0,0.0,0.0,0.0,0.0,0.0,0.0,0.0,0.0,0.0,0.0,0.0,0.0,0.0,0.0,0.0,0.0,0.0,0.0,0.0,0.0,0.0,0.0,0.0,0.0,0.0,0.0,0.0,0.0,0.0,0.0,0.0,0.0,0.0,0.0,0.0,0.0,0.0,0.0,0.0,0.0,0.0,0.0,0.0,0.0,0.0,0.0,0.0,0.0,0.0,0.0,0.0,0.0,0.0,0.0,0.0,0.0,0.0,0.0,0.0,0.0,0.0,0.0,0.0,0.0,0.0,0.0,0.0,0.0,0.0,0.0,0.0,0.0,0.0,0.0,0.0,0.0,0.0,0.0,0.0,0.0,0.0,0.0,0.0,0.0,0.0,0.0,0.0,0.0,0.0,0.0,0.0,0.0,0.0,0.0,0.0,0.0,0.0,0.0,0.0,0.0,0.0,0.0,0.0,0.0,0.0,0.0,0.0,0.0,0.0,0.0,0.0,0.0,0.0,0.0,0.0,0.0,0.0,0.0,0.0,0.0,0.0,0.0,0.0,0.0,0.0,0.0,0.0,0.0,0.0,0.0,0.0,0.0,0.0,0.0,0.0,0.0,0.0,0.0,0.0,0.0,0.0,0.0,0.0,0.0,0.0,0.0,0.0,0.0,0.0,0.0,0.0,0.0,0.0,0.0,0.0,0.0,0.0,0.0,0.0,0.0,0.0,0.0,0.0,0.0,0.0,0.0,0.0,0.0,0.0,0.0,0.0,0.0,0.0,0.0,0.0,0.0,0.0,0.0,0.0,0.0,0.0,0.0,0.0,0.0,0.0,0.0,0.0,0.0,0.0,0.0,0.0,0.0,0.0,0.0,0.0,0.0,0.0,0.0,0.0,0.0,0.0,0.0,0.0,0.0,0.0,0.0,0.0,0.0,0.0,0.0,0.0,0.0,0.0,0.0,0.0,0.0,0.0,0.0,0.0,0.0,0.0,0.0,0.0,0.0,0.0,0.0,0.0,0.0,0.0,0.0,0.0,0.0,0.0,0.0,0.0,0.0,0.0,0.0,0.0,0.0,0.0,0.0,0.0,0.0,0.0,0.0,0.0,0.0,0.0,0.0,0.0,0.0,0.0,0.0,0.0,0.0,0.0,0.0,0.0,0.0,0.0,0.0,0.0,0.0,0.0,0.0,0.0,0.0,0.0,0.0,0.0,0.0,0.0,0.0,0.0,0.0,0.0,0.0,0.0,0.0,0.0,0.0,0.0,0.0,0.0,0.0,0.0,0.0,0.0,0.0,0.0,0.0,0.0,0.0,0.0,0.0,0.0,0.0,0.0,0.0,0.0,0.0,0.0,0.0,0.0,0.0,0.0,0.0,0.0,0.0,0.0,0.0,0.0,0.0,0.0,0.0,0.0,0.0,0.0,0.0,0.0,0.0,0.0,0.0,0.0,0.0,0.0,0.0,0.0,0.0,0.0,0.0,0.0,0.0,0.0,0.0,0.0,0.0,0.0,0.0,0.0,0.0,0.0,0.0,0.0,0.0,0.0,0.0,0.0,0.0,0.0,0.0,0.0,0.0,0.0,0.0,0.0,0.0,0.0,0.0,0.0,0.0,0.0,0.0,0.0,0.0,0.0,0.0,0.0,0.0,0.0,0.0,0.0,0.0,0.0,0.0,0.0,0.0,0.0,0.0,0.0,0.0,0.0,0.0,0.0,0.0,0.0,0.0,0.0,0.0,0.0,0.0,0.0,0.0,0.0,0.0,0.0,0.0,0.0,0.0,0.0,0.0,0.0,0.0,0.0,0.0,0.0,0.0,0.0,0.0,0.0,0.0,0.0,0.0,0.0,0.0,0.0,0.0,0.0,0.0,0.0,0.0,0.0,0.0,0.0,0.0,0.0,0.0,0.0,0.0,0.0,0.0,0.0,0.0,0.0,0.0,0.0,0.0,0.0,0.0,0.0,0.0,0.0,0.0,0.0,0.0,0.0,0.0,0.0,0.0,0.0,0.0,0.0,0.0,0.0,0.0,0.0,0.0,0.0,0.0,0.0,0.0,0.0,0.0,0.0,0.0,0.0,0.0,0.0,0.0,0.0,0.0,0.0,0.0,0.0,0.0,0.0,0.0,0.0,0.0,0.0,0.0,0.0,0.0,0.0,0.0,0.0,0.0,0.0,0.0,0.0,0.0,0.0,0.0,0.0,0.0,0.0,0.0,0.0,0.0,0.0,0.0,0.0,0.0,0.0,0.0,0.0,0.0,0.0,0.0,0.0,0.0,0.0,0.0,0.0,0.0,0.0,0.0,0.0,0.0,0.0,0.0,0.0,0.0,0.0,0.0,0.0,0.0,0.0,0.0,0.0,0.0,0.0,0.0,0.0,0.0,0.0,0.0,0.0,0.0,0.0,0.0,0.0,0.0,0.0,0.0,0.0,0.0,0.0,0.0,0.0,0.0,0.0,0.0,0.0,0.0,0.0,0.0,0.0,0.0,0.0,0.0,0.0,0.0,0.0,0.0,0.0,0.0,0.0,0.0,0.0,0.0,0.0,0.0,0.0,0.0,0.0,0.0,0.0,0.0,0.0,0.0,0.0,0.0,0.0,0.0,0.0,0.0,0.0,0.0,0.0,0.0,0.0,0.0,0.0,0.0,0.0,0.0,0.0,0.0,0.0,0.0,0.0,0.0,0.0,0.0,0.0,0.0,0.0,0.0,0.0,0.0,0.0,0.0,0.0,0.0,0.0,0.0,0.0,0.0,0.0,0.0,0.0,0.0,0.0,0.0,0.0,0.0,0.0,0.0,0.0,0.0,0.0,0.0,0.0,0.0,0.0,0.0,0.0,0.0,0.0,0.0,0.0,0.0,0.0,0.0,0.0,0.0,0.0,0.0,0.0,0.0,0.0,0.0,0.0,0.0,0.0,0.0,0.0,0.0,0.0,0.0,0.0,0.0,0.0,0.0,0.0,0.0,0.0,0.0,0.0,0.0,0.0,0.0,0.0,0.0,0.0,0.0,0.0,0.0,0.0,0.0,0.0,0.0,0.0,0.0,0.0,0.0,0.0,0.0,0.0,0.0,0.0,0.0,0.0,0.0,0.0,0.0,0.0,0.0,0.0,0.0,0.0,0.0,0.0,0.0,0.0,0.0,0.0,0.0,0.0,0.0,0.0,0.0,0.0,0.0,0.0,0.0,0.0,0.0,0.0,0.0,0.0,0.0,0.0,0.0,0.0,0.0,0.0,0.0,0.0,0.0,0.0,0.0,0.0,0.0,0.0,0.0,0.0,0.0,0.0,0.0,0.0,0.0,0.0,0.0,0.0,0.0,0.0,0.0,0.0,0.0,0.0,0.0,0.0,0.0,0.0,0.0,0.0,0.0,0.0,0.0,0.0,0.0,0.0,0.0,0.0,0.0,0.0,0.0,0.0,0.0,0.0,0.0,0.0,0.0,0.0,0.0,0.0,0.0,0.0,0.0,0.0,0.0,0.0,0.0,0.0,0.0,0.0,0.0,0.0,0.0,0.0,0.0,0.0,0.0,0.0,0.0,0.0,0.0,0.0,0.0,0.0,0.0,0.0,0.0,0.0,0.0,0.0,0.0,0.0,0.0,0.0,0.0,0.0,0.0,0.0,0.0,0.0,0.0,0.0,0.0,0.0,0.0,0.0,0.0,0.0,0.0,0.0,0.0,0.0,0.0,0.0,0.0,0.0,0.0,0.0,0.4076,0.0,0.0,0.0,0.0,0.0,0.0,0.0,0.0,0.0,0.0,0.0,0.0,0.0,0.0,0.0,0.0,0.0,0.0,0.0,0.0,0.0,0.0,0.0,0.0,0.0,0.0,0.0,0.0,0.0,0.0,0.0,0.0,0.0,0.0,0.0,0.0,0.0,0.0,0.0,0.5153,0.5524,0.6183,0.6326,0.6271,0.6118,0.0,0.0,0.0,0.0,0.0,0.0,0.0,0.0,0.0,0.0,0.0,0.0,0.0,0.0,0.0,0.0,0.0,0.0,0.0,0.0,0.0,0.0,0.0,0.0,0.0,0.0,0.0,0.0,0.0,0.0,0.0,0.0,0.0,0.0,0.0,0.0,0.0,0.0,0.0,0.0,0.0,0.0,0.0,0.0,0.0,0.0,0.0,0.0,0.0,0.0,0.0,0.0,0.0,0.0,0.0,0.0,0.0,0.0,0.0,0.0,0.0,0.0,0.0,0.0,0.0,0.0,0.0,0.0,0.0,0.0,0.0,0.4294,0.0,0.0,0.0,0.0,0.0,0.0,0.0,0.0,0.0,0.0,0.0,0.0,0.0,0.0,0.0,0.0,0.0,0.0,0.0,0.0,0.0,0.0,0.0,0.0,-0.2609,-0.2078,-0.1475,-0.0867,0.0,0.0,0.0,0.0,0.0,0.0,0.0,0.465,0.5339,0.598,0.6183,0.6672,0.7424,0.7986,0.8358,0.8567,0.8805,0.0,0.0,0.0,0.0,0.0,0.0,0.0,0.0,0.0,0.0,0.0,0.0,0.0,0.0,0.0,0.0,0.0,0.0,0.0,0.0,0.0,0.0,0.0,0.0,0.0,0.0,0.0,0.0,0.0,0.0,0.0,0.0,0.0,0.0,0.0,0.0,0.0,0.0,0.0,0.0,0.0,0.0,0.0,0.0,0.0,0.0,0.0,0.0,0.0,0.0,0.0,0.0,0.0,0.0,0.0,0.0,0.0,0.0,0.0,0.0,0.0,0.0,0.0,0.6281,0.6206,0.6168,0.5977,0.5856,0.5774,0.5479,0.5001,0.4479,0.4439,0.0,0.0,0.0,0.0,0.0,0.0,0.0,0.0,0.0,0.0,0.0,0.0,0.0,0.0,0.0,0.0,0.0,0.0,0.0,0.0,0.0,-0.358,-0.3051,-0.264,-0.1933,-0.118,0.0,0.0,0.0,0.0,0.0,0.0,0.4295,0.5156,0.5958,0.6657,0.7376,0.844,0.9841,1.0288,1.1039,1.1999,1.0711,1.0391,1.0798,0.0,0.0,0.0,0.0,0.0,0.0,0.0,0.0,0.0,0.0,0.0,0.0,0.0,0.0,0.0,0.0,0.0,0.0,0.0,0.0,0.0,0.0,0.0,0.0,0.0,0.0,0.0,0.0,0.0,0.0,0.0,0.0,0.0,0.0,0.0,0.0,0.0,0.0,0.0,0.0,0.0,0.6718,0.7351,0.0,0.0,0.0,0.0,0.0,0.0,0.0,0.0,0.0,0.0,0.0,0.0,0.0,0.7327,0.7394,0.7353,0.7285,0.7093,0.7052,0.6969,0.6761,0.6761,0.6678,0.6559,0.6379,0.0,0.5171,0.4968,0.0,0.0,0.0,0.0,0.0,0.0,0.0,0.0,0.0,0.0,0.0,0.0,0.0,0.0,0.0,0.0,0.0,0.0,0.0,0.0,0.0,-0.4179,-0.3592,-0.3039,-0.2373,-0.1682,-0.0947,-0.0036,0.0,0.0,0.0,0.3609,0.4609,0.5378,0.6218,0.7145,0.7256,0.846,1.0668,1.1029,1.2028,1.3409,1.2959,1.227,1.1402,1.0928,0.0,0.0,0.0,0.0,0.0,0.0,0.0,0.0,0.0,0.0,0.0,0.0,0.0,0.0,0.0,0.0,0.0,0.0,0.0,0.0,0.0,0.0,0.0,0.0,0.0,0.0,0.0,0.0,0.0,0.0,0.0,0.0,0.0,0.0,0.0,0.0,0.0,0.0,0.0,0.7237,0.7422,0.7923,0.7893,0.7852,0.0,0.0,0.0,0.0,0.0,0.0,0.0,0.0,0.0,0.8516,0.8344,0.8238,0.829,0.8149,0.8015,0.7933,0.7843,0.776,0.767,0.758,0.7483,0.7399,0.7218,0.6899,0.6557,0.5895,0.5391,0.5103,0.0,0.0,0.0,0.0,0.4362,0.3676,0.0,0.0,0.0,0.0,0.0,0.0,0.0,0.0,0.0,0.0,0.0,0.0,-0.5349,-0.4776,-0.4161,-0.3537,-0.2864,-0.2185,-0.1478,-0.0497,0.0,0.0,0.2611,0.3637,0.4765,0.5719,0.674,0.7796,0.7527,0.8878,1.1809,1.2204,1.3189,1.4598,1.4934,1.4063,1.2332,1.2007,1.198,1.2209,0.0,0.0,0.0,0.0,0.0,0.0,0.0,0.0,0.0,0.0,0.0,0.0,0.0,0.0,0.0,0.0,0.0,0.0,0.0,0.0,0.0,0.0,0.0,0.0,0.0,0.0,0.0,0.0,0.0,0.0,0.0,0.0,0.0,0.0,0.0,0.0,0.0,0.8094,0.8118,0.8423,0.8415,0.8448,0.0,0.0,0.0,0.0,0.0,0.0,0.9598,0.9468,0.9368,0.9321,0.9097,0.9004,0.8958,0.8717,0.8569,0.8569,0.8428,0.8334,0.8294,0.8146,0.8099,0.8051,0.7875,0.778,0.7693,0.6837,0.6255,0.5924,0.5885,0.586,0.5851,0.5746,0.5066,0.4177,0.0,0.0,0.0,0.0,0.0,0.0,0.0,0.0,0.0,0.0,0.0,-0.6177,-0.5983,-0.5345,-0.4775,-0.4277,-0.346,-0.2622,-0.1819,-0.0896,0.0156,0.1291,0.234,0.3492,0.4661,0.6489,0.7888,0.8906,0.8907,1.0708,1.4247,1.469,1.5364,1.6083,1.6323,1.5567,1.4184,1.4342,1.4509,1.4587,1.421,0.0,0.0,0.0,0.0,0.0,0.0,0.0,0.0,0.0,0.0,0.0,0.0,0.0,0.0,0.0,0.0,0.0,0.0,0.0,0.0,0.0,0.0,0.0,0.0,0.0,0.0,0.0,0.0,0.0,0.0,0.0,0.0,0.0,0.0,0.0,0.0,0.0,0.0,0.8857,0.9101,0.0,0.0,0.0,0.0,0.9967,0.993,0.9864,0.9614,0.9614,0.9514,0.9321,0.9275,0.9237,0.9097,0.8958,0.881,0.8702,0.8562,0.8428,0.8294,0.8294,0.8294,0.8294,0.8294,0.8207,0.8119,0.7693,0.7161,0.6523,0.6394,0.6355,0.6307,0.585,0.5642,0.5522,0.0,0.0,0.0,0.0,0.0,0.0,0.0,0.0,-0.6956,-0.6732,-0.6942,-0.6973,-0.651,-0.6054,-0.5498,-0.479,-0.4271,-0.3514,-0.2399,-0.1635,-0.0511,0.1151,0.2298,0.389,0.6,0.7712,0.8993,0.9768,1.1242,1.2809,1.441,1.4877,1.5957,1.7503,1.7727,1.7562,1.6986,1.552,1.5031,1.5171,1.5041,1.4859,0.0,0.0,0.0,0.0,0.0,0.0,0.0,0.0,0.0,0.0,0.0,0.0,0.0,0.0,0.0,0.0,0.0,0.0,0.0,0.0,0.0,0.0,0.0,0.0,0.0,0.0,0.0,0.0,0.0,0.0,0.0,0.0,0.0,0.0,0.0,0.0,0.0,0.9815,1.0062,0.0,1.0321,1.0285,1.0332,1.0544,1.0428,1.0387,1.0573,1.0483,1.0441,1.0525,1.0431,1.043,1.0484,1.0386,1.0166,0.9894,0.9894,0.9687,0.9392,0.9292,0.9249,0.9242,0.9084,0.8983,0.8933,0.8737,0.8141,0.737,0.7117,0.6765,0.6367,0.619,0.6165,0.6093,0.0,0.0,0.0,0.0,0.0,0.0,0.0,0.0,-0.7508,-0.7118,-0.756,-0.7734,-0.7269,-0.6811,-0.6314,-0.5721,-0.5187,-0.4377,-0.3188,-0.2321,-0.1068,0.0712,0.2478,0.4468,0.6764,0.8447,0.958,1.0214,1.2487,1.3949,1.4631,1.5118,1.6609,1.8895,1.9243,1.9165,1.8649,1.7177,1.6505,1.6349,1.6205,1.6073,1.5847,0.0,0.0,0.0,0.0,0.0,0.0,0.0,0.0,0.0,0.0,0.0,0.0,0.0,0.0,0.0,0.0,0.0,0.0,0.0,0.0,0.0,0.0,0.0,0.0,0.0,0.0,0.0,0.0,0.0,0.0,0.0,0.0,0.0,0.0,0.0,1.0523,1.0681,1.0864,1.1031,1.1167,1.1069,1.1116,1.156,1.1344,1.1294,1.1531,1.1391,1.1403,1.1489,1.138,1.1383,1.1543,1.1382,1.1208,1.0927,1.0872,1.0647,1.0386,1.028,1.0166,1.0061,0.9888,0.9724,0.9577,0.9524,0.9075,0.8448,0.7986,0.7532,0.708,0.6876,0.6626,0.6349,0.0,0.0,0.0,0.0,0.0,0.0,0.0,-0.7598,-0.7942,-0.7474,-0.8057,-0.8456,-0.825,-0.7702,-0.7277,-0.7064,-0.6205,-0.5214,-0.4188,-0.2882,-0.1467,-0.0,0.2863,0.5184,0.684,0.856,0.9649,1.0206,1.2483,1.41,1.5114,1.5656,1.7468,2.0245,2.0772,2.03,1.9094,1.94,1.9097,1.8349,1.7849,1.7303,1.6716,0.0,0.0,0.0,0.0,0.0,0.0,0.0,0.0,0.0,0.0,0.0,0.0,0.0,0.0,0.0,0.0,0.0,0.0,0.0,0.0,0.0,0.0,0.0,0.0,0.0,0.0,0.0,0.0,0.0,0.0,0.0,0.0,0.0,1.1069,1.1351,1.1538,1.1391,1.1454,1.173,1.2126,1.2274,1.2503,1.2877,1.2729,1.2555,1.2444,1.2278,1.2175,1.2025,1.2025,1.2025,1.2041,1.1929,1.1752,1.1503,1.1398,1.1277,1.1107,1.1107,1.0979,1.0663,1.0663,1.0424,1.0029,1.0022,0.9962,0.9784,0.8947,0.8616,0.8466,0.7888,0.7145,0.6382,0.0,0.0,0.0,0.0,0.0,0.0,0.0,-0.786,-0.8278,-0.7942,-0.8541,-0.899,-0.8929,-0.8594,-0.8236,-0.7837,-0.719,-0.6318,-0.5034,-0.3716,-0.166,0.1257,0.3268,0.5073,0.6656,0.847,0.9822,1.0697,1.2332,1.3767,1.5141,1.7179,1.8981,2.0501,2.0873,2.0917,2.0745,2.084,2.0595,2.0134,1.9533,1.8932,1.8371,0.0,0.0,0.0,0.0,0.0,0.0,0.0,0.0,0.0,0.0,0.0,0.0,0.0,0.0,0.0,0.0,0.0,0.0,0.0,0.0,0.0,0.0,0.0,0.0,0.0,0.0,0.0,0.0,0.0,0.0,0.0,0.0,1.2728,1.1875,1.1935,1.2158,1.2433,1.2597,1.2865,1.328,1.3173,1.3068,1.3177,1.2958,1.2793,1.2729,1.2738,1.2758,1.2866,1.276,1.283,1.2966,1.2736,1.2553,1.2233,1.2167,1.2036,1.172,1.172,1.1727,1.163,1.1519,1.1415,1.1248,1.0877,1.0714,1.0576,0.9784,0.9351,0.9098,0.8841,0.8477,0.7977,0.0,0.0,0.0,0.0,0.0,0.0,0.0,-0.8172,-0.8649,-0.8351,-0.8985,-0.9501,-0.9541,-0.9435,-0.9239,-0.8948,-0.8254,-0.7273,-0.5979,-0.4079,-0.171,0.1163,0.2817,0.4498,0.6315,0.813,0.9784,1.1379,1.2383,1.4103,1.6412,1.8198,1.9648,2.0799,2.108,2.1251,2.1423,2.152,2.1505,2.1333,2.0986,2.0291,1.9445,1.9086,1.8575,1.8009,1.7559,1.7068,1.6605,1.6495,0.0,0.0,0.0,0.0,0.0,0.0,0.0,0.0,0.0,0.0,0.0,0.0,0.0,0.0,0.0,0.0,0.0,0.0,0.0,0.0,0.0,0.0,0.0,0.0,1.3868,1.3954,1.3636,1.3324,1.3212,1.3551,1.3572,1.3734,1.4157,1.3931,1.3849,1.4007,1.3791,1.3677,1.3677,1.3507,1.35,1.3614,1.3506,1.3483,1.3571,1.3467,1.3296,1.3025,1.3025,1.2898,1.2629,1.2629,1.2545,1.2411,1.2354,1.2214,1.2047,1.1776,1.1531,0.0,0.0,0.0,0.0,0.0,0.9269,0.8977,0.0,0.0,0.0,0.0,0.0,0.0,0.0,-0.8497,-0.9028,-0.8718,-0.9439,-1.0013,-1.0089,-1.0046,-1.0075,-1.0236,-0.9319,-0.8123,-0.6729,-0.4176,-0.1831,0.02,0.1873,0.3705,0.5846,0.7511,0.9559,1.1895,1.2614,1.4697,1.8002,1.8697,1.9699,2.0977,2.1276,2.1439,2.1471,2.1712,2.1902,2.2044,2.2137,2.1391,2.0152,2.0152,1.9778,1.9239,1.9169,1.841,1.7484,1.7273,0.0,0.0,0.0,0.0,0.0,0.0,0.0,0.0,0.0,0.0,0.0,0.0,0.0,0.0,0.0,0.0,0.0,0.0,0.0,0.0,0.0,0.0,0.0,0.0,1.5052,1.5395,1.5774,1.5065,1.4604,1.4692,1.4487,1.4503,1.488,1.4704,1.4697,1.5069,1.4902,1.4775,1.4775,0.0,0.0,0.0,0.0,1.407,1.407,1.407,1.401,1.3881,1.3881,1.3761,1.3623,1.3623,1.3459,1.3156,1.3156,1.3015,1.2703,1.2659,1.2399,1.1956,1.0924,1.0462,1.0308,0.9821,0.9687,0.96,0.0,0.0,0.0,0.0,0.0,0.0,0.0,-0.8745,-0.9332,-0.9105,-0.9877,-1.0547,-1.0777,-1.0105,-1.0059,-1.1142,-1.0258,-0.8673,-0.6373,-0.4667,-0.2918,-0.11,0.1063,0.314,0.498,0.686,0.8803,1.0732,1.2438,1.4736,1.7496,1.8517,1.9639,2.0759,2.1212,2.1488,2.1643,2.1773,2.1949,2.2184,2.2184,2.1749,2.1044,2.1044,2.0679,2.0062,1.9489,1.9113,1.8834,1.8189,1.7518,1.692,1.6883,1.6339,0.0,0.0,0.0,0.0,0.0,0.0,0.0,0.0,0.0,0.0,0.0,0.0,0.0,0.0,0.0,0.0,0.0,0.0,0.0,1.6299,1.6241,1.6317,1.6561,1.6264,1.5914,1.5535,1.5328,1.5346,1.5686,1.5553,1.5467,1.5556,1.5264,1.5088,1.5088,1.4911,1.4852,1.4852,1.4656,1.4538,1.4538,1.4478,1.441,1.435,0.0,0.0,1.4291,1.4291,1.4255,1.4241,1.4241,1.4196,1.4105,1.3787,1.3414,1.2977,1.143,1.0761,1.0584,1.01,1.01,1.0254,0.0,0.0,0.0,0.0,0.0,0.0,0.0,-0.8708,-0.9245,-0.9384,-1.0321,-1.093,-1.0858,-1.0265,-1.0478,-1.1967,-1.0662,-0.893,-0.6919,-0.5566,-0.4034,-0.2242,-0.021,0.1798,0.3819,0.577,0.7865,1.0023,1.2066,1.4282,1.6607,1.797,1.9165,2.0296,2.0946,2.1314,2.1533,2.1712,2.1949,2.2137,2.2184,2.2002,2.1766,2.1766,2.14,2.0793,2.0427,1.9908,1.9307,1.8877,1.827,1.7705,1.7642,1.7115,1.6512,0.0,0.0,0.0,0.0,0.0,0.0,0.0,0.0,0.0,0.0,0.0,0.0,0.0,0.0,1.6934,0.0,0.0,1.7201,1.7322,1.7166,1.7197,1.7554,1.7384,1.6983,1.639,1.6179,1.6105,1.6228,1.6077,1.5951,1.5894,1.5988,1.5989,1.5871,1.5752,1.5633,1.5633,1.5243,1.5059,1.5059,1.4893,1.4843,1.4843,1.4784,1.4725,1.4725,1.4725,1.4725,1.4725,1.4725,1.4784,1.4815,1.4506,1.4269,1.4012,1.2892,1.206,1.1447,1.0845,1.0694,1.0667,0.0,0.0,0.0,0.0,0.0,0.0,0.0,-0.8681,-0.9163,-0.9632,-1.0693,-1.1278,-1.0912,-1.0625,-1.0973,-1.2279,-1.0727,-0.9168,-0.7926,-0.6693,-0.5209,-0.3424,-0.1703,0.0268,0.2491,0.4511,0.6761,0.9119,1.1247,1.3377,1.5517,1.7189,1.8573,1.9668,2.0488,2.104,2.1353,2.1568,2.1793,2.1949,2.2091,2.2137,2.2137,2.2137,2.1875,2.1471,2.1344,2.0625,1.9726,1.9572,1.907,1.85,1.8448,1.7901,1.7315,1.7315,1.6916,0.0,0.0,0.0,0.0,0.0,0.0,0.0,0.0,0.0,1.7971,1.8206,1.8254,1.8199,1.797,1.7898,1.7906,1.8214,1.8041,1.8049,1.8417,1.8328,1.799,1.7478,1.7094,1.6878,1.6878,1.6791,1.667,1.6543,1.6835,1.699,1.686,1.6678,1.6557,1.6557,1.6089,1.5782,1.5782,1.5596,1.5449,1.5449,1.5244,1.5147,1.5147,1.5147,1.5147,1.5147,1.5147,1.5264,1.5352,1.5115,1.5081,1.5031,1.4523,1.3714,1.2846,1.1912,1.1396,1.1107,0.0,0.0,0.0,0.0,0.0,0.0,0.0,0.0,-0.9515,-0.9985,-1.1097,-1.1739,-1.1527,-1.1206,-1.1079,-1.1251,-1.053,-0.9768,-0.9129,-0.7866,-0.6504,-0.5096,-0.3082,-0.1014,0.1052,0.3249,0.5387,0.7481,0.9685,1.1867,1.409,1.6361,1.8002,1.9125,1.9939,2.0577,2.1067,2.122,2.1423,2.1664,2.1793,2.1841,2.1841,2.1841,2.1955,2.2002,2.1499,2.1217,2.0976,2.047,1.9782,1.9196,1.9169,1.8656,1.8092,1.8092,0.0,1.859,1.859,1.8816,0.0,1.8995,1.8963,1.8959,0.0,0.0,1.878,1.8588,1.8808,1.9018,1.8883,1.912,1.9288,1.9089,1.9049,1.8967,1.8786,1.9026,1.913,1.8894,1.8339,1.7948,1.7821,1.8084,1.8272,1.8212,1.7973,1.7831,1.7831,1.7708,1.7636,1.7636,1.741,1.7256,1.7256,1.6729,1.6407,1.6407,1.6036,1.5798,1.5798,1.5798,1.5798,1.5798,1.5798,1.5904,1.5999,1.5948,1.6042,1.6058,1.5552,1.5239,1.4964,1.3348,1.2263,1.1662,0.0,0.0,0.0,0.0,0.0,0.0,0.0,0.0,0.0,-0.9624,-1.0385,-1.115,-1.178,-1.1699,-1.1588,-1.1474,-1.111,-1.0687,-1.0137,-0.9009,-0.7673,-0.6176,-0.4363,-0.2472,-0.0482,0.1766,0.3937,0.5986,0.8317,1.0379,1.2149,1.4387,1.6528,1.8503,1.9205,1.9775,2.0325,2.0693,2.1019,2.1277,2.1423,2.152,2.1568,2.1664,2.1746,2.1813,2.1657,2.1384,0.0,2.0857,2.0354,1.9838,1.9908,1.9684,1.9378,1.9378,1.9474,0.0,1.9539,0.0,0.0,0.0,1.9526,1.9562,1.9681,1.9714,1.9713,1.9839,1.9989,2.0073,1.9824,1.9877,1.9875,0.0,1.9604,1.9611,1.9743,1.9812,1.9956,2.0145,2.0099,1.976,1.9052,1.9056,1.9048,1.8906,1.8949,1.8927,1.8843,1.8781,1.8708,1.8708,1.8339,1.8068,1.8068,1.7645,1.7429,1.7429,1.6855,1.6581,1.657,1.6304,1.6134,1.6134,1.6249,1.6353,1.6524,1.656,1.6673,1.6775,1.6584,1.6509,1.6314,1.4606,1.3797,1.3437,0.0,0.0,0.0,0.0,0.0,0.0,0.0,0.0,0.0,0.0,-0.9986,-1.0786,-1.1933,-1.1984,-1.1885,-1.1755,-1.151,-1.1223,-1.0955,-0.9924,-0.8706,-0.7355,-0.5741,-0.3985,-0.2113,0.0052,0.2225,0.4341,0.6678,0.8654,1.0348,1.2378,1.453,1.6678,1.7338,1.8111,1.897,1.9519,1.9943,2.0214,2.0395,2.054,2.0684,2.084,2.0935,2.1023,2.1588,2.1517,2.1144,2.1236,2.0879,2.0422,2.0508,2.0368,2.0215,2.0215,2.0253,2.0332,2.0454,0.0,0.0,2.0315,2.027,2.0334,2.055,2.0597,2.0657,2.0913,2.0957,2.0858,2.0623,2.0472,2.0321,2.0182,2.0067,2.0155,2.0589,2.0682,2.0816,2.1247,2.1614,2.1547,2.0748,2.0308,2.0067,1.9912,2.0031,2.0046,1.9898,1.9898,1.9898,1.9898,1.9368,1.9069,1.9069,1.8642,1.8403,1.8392,1.7804,1.7582,1.756,1.7027,1.6696,1.6581,1.674,1.692,1.7032,1.7179,1.7357,1.7468,1.7468,1.7523,1.7457,1.6192,1.5701,1.5447,0.0,0.0,0.0,0.0,0.0,0.0,0.0,0.0,0.0,0.0,0.0,0.0,0.0,-1.1955,-1.1828,-1.1878,-1.1349,-1.1161,-1.1472,-1.0484,-0.9573,-0.8848,-0.7311,-0.5616,-0.387,-0.185,0.0262,0.2463,0.4588,0.6727,0.8915,1.0596,1.1965,1.3103,1.3818,1.5156,1.6834,1.7363,1.7798,1.8216,1.8567,1.8753,1.8871,1.9035,1.9186,1.9501,2.1192,2.1793,2.1766,2.1779,2.1379,2.0882,2.0868,2.0556,2.0215,2.0215,2.0589,2.1189,2.1633,0.0,2.1752,2.1752,2.1752,2.1704,2.1575,2.1541,2.1541,2.141,2.1277,2.1131,2.0997,2.0871,2.0759,2.061,2.056,2.0705,2.1041,2.1527,2.1924,2.2209,2.2714,2.304,0.0,2.2163,2.1604,2.1604,2.1313,2.1135,2.1135,2.1135,2.1135,2.1135,2.073,2.0526,2.0526,1.972,1.9353,1.9342,1.8967,1.8758,1.8736,1.8163,1.7682,1.719,1.7412,1.7534,1.7656,1.7799,1.7963,1.8084,1.8236,1.8278,1.8278,1.8417,1.8047,1.7398,0.0,0.0,0.0,0.0,0.0,0.0,0.0,0.0,0.0,0.0,0.0,0.0,0.0,0.0,0.0,0.0,-1.1953,-1.1683,-1.1749,-1.1263,-1.051,-0.9478,-0.8351,-0.7002,-0.5338,-0.3408,-0.1424,0.0607,0.2547,0.4715,0.712,0.885,1.025,1.1345,1.2151,1.3157,1.4464,1.5842,1.679,1.7339,1.7605,1.7857,1.8106,1.8414,1.8567,1.8711,0.0,1.9953,2.0219,2.0797,2.089,2.0781,2.1318,2.1412,2.1292,2.1384,2.1615,2.1871,2.2035,0.0,2.2044,2.1949,2.1949,2.1902,2.1746,2.1746,2.1698,2.1664,2.1616,2.1568,2.1423,2.1361,2.1313,2.1166,2.1118,2.1366,2.2102,2.2351,2.2727,2.3438,2.3664,0.0,0.0,0.0,0.0,2.2273,2.2049,2.1874,2.1874,2.1874,2.1874,2.1874,2.1537,2.1336,2.1336,2.0848,2.0579,2.0568,2.0132,1.9723,1.9417,1.9236,1.9054,1.8826,1.8657,1.8677,1.8832,1.8604,1.8614,1.8815,1.8869,1.9028,1.9186,1.9344,1.9349,1.9187,0.0,0.0,0.0,0.0,0.0,0.0,0.0,0.0,0.0,0.0,0.0,0.0,0.0,0.0,0.0,0.0,0.0,-1.2056,-1.2021,-1.1606,-1.0982,-1.0048,-0.9263,-0.8167,-0.6598,-0.5054,-0.3292,-0.1408,0.0491,0.26,0.4871,0.6806,0.8376,0.9577,1.0228,1.1152,1.2344,1.3807,1.4855,1.5545,1.5918,1.6266,1.661,1.7022,1.722,0.0,1.7609,1.7939,1.8382,1.9672,2.0226,2.0455,2.1023,2.1438,2.1712,2.1949,2.2044,2.2137,2.2184,2.2339,2.2507,2.246,2.246,2.246,2.2412,2.2244,2.2091,2.2091,2.2044,2.1996,2.1902,2.1841,2.1793,2.1712,2.1712,2.1923,2.2677,2.2948,2.3326,2.3997,2.4288,2.4421,0.0,0.0,0.0,2.3005,2.2665,2.2543,2.2543,2.2543,2.2543,2.2543,2.2285,2.2087,2.2025,2.1788,2.16,2.1537,2.1198,2.0754,2.0323,2.0323,2.0229,2.01,1.9918,1.9933,2.0077,1.9916,1.9974,2.0122,2.0282,2.0441,2.0652,2.0914,2.1159,2.1223,0.0,0.0,0.0,0.0,0.0,0.0,0.0,0.0,0.0,0.0,0.0,0.0,0.0,0.0,0.0,0.0,0.0,0.0,-1.2192,-1.1595,-1.1084,-1.0649,-1.0084,-0.9103,-0.7698,-0.6706,-0.529,-0.3474,-0.164,0.0246,0.2268,0.4544,0.6336,0.7678,0.8003,0.8917,1.0356,1.1248,1.2119,1.2907,1.3486,1.4,1.4391,1.4812,1.5096,1.5353,1.5644,1.5901,1.6435,1.8416,1.9476,2.0038,2.0159,2.0785,2.1471,2.1841,2.1996,2.2044,2.2184,2.2606,2.3104,2.3201,2.3249,2.3297,2.344,2.303,2.2615,2.2601,2.2509,2.2417,0.0,0.0,2.2231,2.2231,2.2217,2.2362,2.2713,2.3271,2.3774,0.0,0.0,0.0,0.0,0.0,0.0,2.3734,0.0,2.3138,2.3125,2.3125,2.3125,2.3125,2.3017,2.2836,2.2641,2.2531,2.2359,2.2247,2.2247,2.197,2.1511,2.1511,2.1362,2.106,2.1136,2.1281,2.1437,2.169,2.1856,2.1911,2.2322,2.247,2.2524,2.3016,2.3344,2.3417,0.0,0.0,0.0,0.0,0.0,0.0,0.0,0.0,0.0,0.0,0.0,0.0,0.0,0.0,0.0,0.0,0.0,0.0,-1.2222,-1.2085,-1.1755,-1.1169,-1.0694,-0.9895,-0.868,-0.7767,-0.6439,-0.4749,-0.349,-0.197,-0.0142,0.1847,0.3512,0.4743,0.5284,0.6256,0.7519,0.9012,1.0128,1.0958,1.1448,1.195,1.2409,1.3152,1.357,1.3849,1.4552,1.5017,1.5506,0.0,0.0,0.0,0.0,2.0997,2.1423,2.152,2.1746,2.1996,2.2044,2.225,2.2456,2.2611,2.2611,2.2644,2.2798,2.2729,2.2601,2.2663,2.2663,2.2663,0.0,0.0,0.0,2.2709,2.2618,0.0,2.3249,2.3709,0.0,2.4657,0.0,2.5674,2.5674,2.5564,0.0,0.0,2.4337,2.3943,2.3826,2.3839,2.3839,2.3839,2.3649,2.3577,2.3505,2.3258,2.3163,2.309,2.309,2.3027,2.2877,2.2959,2.2989,2.2896,2.2617,2.2583,2.27,2.2544,2.263,2.2924,2.3121,2.3382,2.3691,2.4033,2.4383,2.4785,0.0,0.0,0.0,0.0,0.0,0.0,0.0,0.0,0.0,0.0,0.0,0.0,0.0,0.0,0.0,0.0,0.0,0.0,0.0,-1.2399,-1.2072,-1.1454,-1.1146,-1.0552,-0.9549,-0.8751,-0.7634,-0.6179,-0.5171,-0.3868,-0.2299,-0.0585,0.0874,0.2072,0.2853,0.3851,0.5092,0.677,0.8031,0.0,0.0,1.0142,1.0731,1.1455,1.1955,1.2337,1.324,1.4006,0.0,0.0,0.0,1.9153,1.9963,2.0562,2.097,2.118,0.0,2.1746,2.1888,2.2178,2.2578,2.2828,2.2875,2.2922,2.3123,2.2999,2.2843,2.2873,2.2904,0.0,2.3083,0.0,0.0,0.0,0.0,0.0,2.3288,2.4014,2.4604,0.0,2.5702,0.0,2.6258,2.6204,2.6082,0.0,2.5133,2.465,2.4478,2.4478,2.4478,2.4478,2.4408,2.4292,2.4234,2.4015,2.3897,2.3897,2.3897,2.3897,2.3897,2.3943,2.4047,2.4105,0.0,2.393,2.4102,2.4082,2.4257,2.4549,2.4812,2.5123,2.5481,2.5854,2.6247,2.6726,0.0,0.0,0.0,0.0,0.0,0.0,0.0,0.0,0.0,0.0,0.0,0.0,0.0,0.0,0.0,0.0,0.0,0.0,0.0,0.0,0.0,-1.1749,-1.1551,-1.1097,-1.0316,-0.968,-0.8773,-0.7585,-0.6631,-0.5499,-0.424,-0.2839,-0.1606,-0.0526,0.0567,0.1693,0.2912,0.4567,0.5825,0.6813,0.7663,0.8374,0.9034,0.0,1.0232,1.0818,1.1801,0.0,0.0,0.0,1.6456,1.7929,1.894,1.972,2.0319,2.0809,2.1131,2.1423,2.1664,2.2228,2.2825,2.3226,2.3369,2.3478,2.3728,2.3431,2.3127,2.3127,0.0,2.3319,2.3363,2.3363,2.3363,2.3407,0.0,2.3319,2.3216,2.4183,2.4941,2.4917,2.5981,2.6739,2.6826,2.6841,2.6774,2.6616,2.592,2.5384,2.5174,2.5174,2.5118,2.5118,2.5199,2.5184,2.507,2.4953,2.4922,2.4922,2.4922,2.4922,2.4922,2.498,2.5037,2.5236,2.5349,2.5519,2.5688,2.6118,2.6378,2.6633,2.7006,2.7373,2.7667,2.8206,2.868,2.914,0.0,0.0,0.0,0.0,0.0,0.0,0.0,0.0,0.0,0.0,-0.9412,-0.9661,0.0,0.0,0.0,0.0,0.0,0.0,0.0,0.0,0.0,0.0,-1.1955,-1.1405,-1.0697,-1.0364,-0.9634,-0.8466,-0.78,-0.7021,-0.6199,-0.4767,-0.391,-0.3489,-0.1717,-0.03,0.0801,0.2271,0.3442,0.4357,0.5154,0.5908,0.6674,0.7572,0.0,0.0,0.0,0.0,0.0,0.0,1.5051,1.6824,1.8203,1.9021,1.963,2.0293,2.0772,2.1131,2.1423,2.1732,2.2055,2.2339,2.2573,2.2787,2.2953,2.3049,0.0,0.0,2.3378,2.3509,2.3653,2.3696,0.0,2.3855,0.0,0.0,0.0,0.0,2.4863,0.0,0.0,0.0,0.0,0.0,0.0,0.0,2.713,2.6698,2.5948,2.5893,2.5839,2.5729,2.6218,2.6483,2.6469,2.6856,2.7048,2.7048,2.7048,2.7048,2.7048,2.7281,2.7397,2.7468,2.7641,0.0,2.8121,2.8274,2.8714,2.9199,2.959,2.9971,3.0373,3.0927,3.1415,3.1884,0.0,0.0,0.0,0.0,0.0,0.0,0.0,-0.95,-0.95,-0.95,-0.9483,-0.9592,-0.9941,-1.0321,-1.0831,0.0,0.0,0.0,0.0,0.0,0.0,0.0,0.0,0.0,0.0,-1.0952,-1.0262,-0.9315,0.0,-0.8005,-0.7085,-0.6149,-0.5389,-0.4758,-0.3353,-0.206,-0.0826,0.0413,0.1466,0.2305,0.3155,0.3972,0.0,0.0,0.0,0.0,0.0,0.0,0.0,0.0,1.327,1.4725,1.6773,1.7953,1.8746,1.9533,2.0105,2.056,2.0871,2.1215,2.1616,2.1996,2.2231,2.2477,2.2749,0.0,0.0,0.0,2.2664,2.2649,2.2716,0.0,0.0,0.0,0.0,0.0,0.0,0.0,0.0,0.0,0.0,0.0,0.0,0.0,0.0,0.0,2.8258,2.8083,2.7244,2.744,2.7518,2.7449,2.768,2.7796,2.7796,2.8026,2.824,2.8297,2.8297,2.8354,2.8411,2.8595,2.8637,2.8749,2.8917,2.9123,2.9381,2.9674,3.0097,3.0576,3.0998,3.1422,3.1834,3.234,3.2854,3.3369,0.0,0.0,0.0,0.0,0.0,0.0,0.0,-0.95,-0.95,-0.95,-0.95,-0.95,-0.9492,-1.0013,-1.0432,0.0,0.0,0.0,0.0,0.0,0.0,0.0,0.0,0.0,0.0,0.0,0.0,0.0,-0.96,0.0,0.0,0.0,0.0,0.0,-0.4729,-0.3621,-0.2356,-0.1277,-0.0356,0.0,0.0,0.2308,0.0,0.0,0.0,0.0,0.0,0.0,0.0,0.0,1.1483,1.257,1.4871,1.6367,1.751,1.855,1.9263,1.975,2.032,2.0772,2.1166,2.1698,2.1899,2.2034,2.2443,2.2207,0.0,0.0,2.1943,2.1783,2.1822,0.0,0.0,0.0,0.0,0.0,0.0,0.0,0.0,0.0,0.0,0.0,0.0,0.0,0.0,0.0,2.9549,2.9633,2.8666,2.8966,2.9123,2.9123,2.9145,2.9163,2.9163,2.931,2.944,2.9551,2.9551,2.9663,2.9844,2.9844,2.9939,3.0087,3.0265,3.0449,3.0735,3.1134,3.1589,3.1983,3.2414,3.2863,3.3355,3.3854,3.4352,3.4914,0.0,0.0,0.0,0.0,0.0,0.0,0.0,-0.95,-0.95,-0.95,-0.95,-0.95,-0.95,-0.9572,-0.9897,0.0,0.0,0.0,0.0,0.0,0.0,0.0,0.0,0.0,0.0,0.0,0.0,-1.0987,0.0,0.0,0.0,0.0,0.0,0.0,0.0,0.0,-0.4023,-0.293,0.0,0.0,0.0,0.0,0.0,0.0,0.0,0.0,0.0,0.0,0.0,0.0,0.0,1.1042,1.2415,1.4063,1.5751,1.7373,0.0,0.0,1.975,2.0359,2.0759,2.1166,2.1252,2.1265,2.149,0.0,0.0,2.1436,2.1579,2.1774,2.1955,2.2194,2.2594,0.0,0.0,2.3873,0.0,0.0,0.0,0.0,0.0,0.0,0.0,0.0,0.0,2.999,3.1268,3.1471,3.0081,2.9939,2.9902,2.9902,3.047,3.0803,3.0803,3.1339,3.1641,3.1626,3.1626,3.1682,3.185,3.2032,3.2198,3.2292,3.26,3.2851,0.0,3.3542,3.3991,3.4537,3.4985,3.5433,3.5907,3.6462,3.7001,3.75,0.0,0.0,0.0,0.0,0.0,0.0,-0.931,-0.95,-0.95,-0.95,-0.95,-0.95,-0.95,-0.95,-0.9626,-0.9943,0.0,0.0,0.0,0.0,0.0,0.0,0.0,0.0,0.0,0.0,-1.2169,-1.1636,-1.1005,0.0,0.0,0.0,0.0,0.0,0.0,0.0,0.0,0.0,0.0,0.0,0.0,0.0,0.0,0.0,0.0,0.0,0.0,0.0,0.0,0.0,0.0,0.0,1.0351,1.1483,0.0,0.0,1.6582,1.7136,1.8003,1.861,1.9111,1.9638,1.9873,2.0106,2.0578,0.0,2.033,2.056,2.0552,2.052,2.0669,2.1225,2.1852,2.2263,2.3146,0.0,0.0,0.0,0.0,0.0,0.0,0.0,0.0,0.0,0.0,3.1197,3.2192,3.2702,3.2561,3.2097,3.1834,3.1834,3.199,3.2075,3.2075,3.2338,3.2532,3.2695,3.2695,3.2803,3.3087,3.3245,3.3366,3.3507,3.3716,3.407,0.0,3.475,3.5215,3.5681,3.6155,3.6631,3.7082,3.756,3.8053,3.8534,0.0,0.0,0.0,0.0,0.0,-0.761,-0.8932,-0.9347,-0.9491,-0.9491,-0.9491,-0.9491,-0.9491,-0.9491,-0.9491,-0.9491,-1.0024,0.0,0.0,0.0,0.0,0.0,0.0,0.0,0.0,0.0,-1.2614,-1.2173,-1.1672,-1.1167,0.0,0.0,0.0,0.0,0.0,0.0,0.0,0.0,0.0,0.0,0.0,0.0,0.0,0.0,0.0,0.0,0.0,0.0,0.0,0.0,0.0,0.0,0.0,0.0,0.0,0.0,1.4995,1.5647,1.6443,1.7144,1.7738,1.8342,1.8676,1.8995,0.0,0.0,1.9336,1.9641,1.9648,1.9654,1.9762,2.0441,2.1111,2.149,2.2687,2.3723,2.4036,0.0,0.0,0.0,0.0,0.0,0.0,0.0,3.1185,3.2441,3.3239,3.3924,3.4366,3.3901,3.3543,3.3298,3.3282,3.3214,3.3214,3.3266,3.3387,3.3594,3.3594,3.3764,3.4034,3.4134,3.4267,3.4529,3.4936,3.5352,0.0,3.6376,3.6895,3.733,3.7807,3.8276,3.8697,3.9116,3.9574,4.0009,0.0,0.0,0.0,0.0,0.0,0.0,-0.8188,-0.898,-0.9501,-0.9501,-0.9501,-0.9501,-0.9501,-0.9501,-0.9501,-0.9501,-0.9509,0.0,0.0,0.0,0.0,0.0,0.0,0.0,0.0,0.0,-1.2931,-1.26,-1.2329,-1.1953,-1.1479,-1.0931,-1.0403,-0.9837,0.0,0.0,0.0,0.0,0.0,0.0,0.0,0.0,0.0,0.0,0.0,0.0,0.0,0.0,0.0,0.0,0.0,0.0,0.0,0.0,0.0,0.0,1.3396,1.4265,1.5426,1.6316,1.7034,1.7569,1.7727,1.786,0.0,0.0,1.8321,1.8721,1.9139,1.945,1.9654,2.001,2.057,2.1275,2.2243,2.3185,2.401,0.0,0.0,0.0,0.0,0.0,0.0,0.0,3.2978,3.3723,3.4609,0.0,3.5105,3.5148,3.4849,3.4101,3.4201,3.43,3.43,3.4399,3.4497,3.4497,3.4497,3.4578,3.4785,3.4785,3.5005,3.5453,3.6452,3.7055,0.0,3.8748,3.9492,3.9922,4.0365,4.076,4.1108,4.1659,4.2073,4.2428,0.0,0.0,0.0,0.0,0.0,0.0,0.0,-0.898,-0.9501,-0.9501,-0.9501,-0.9501,-0.9501,-0.9501,-0.9501,-0.9501,-0.9492,0.0,0.0,0.0,0.0,0.0,0.0,0.0,0.0,0.0,-1.3192,-1.2942,-1.2719,-1.2396,-1.1966,-1.1479,-1.0952,-1.0412,-0.9701,0.0,0.0,0.0,0.0,0.0,0.0,0.0,0.0,0.0,0.0,0.0,0.0,0.0,0.0,0.0,0.0,0.0,0.0,0.0,0.0,0.8545,1.0384,0.0,1.3283,1.4091,1.4825,1.5497,1.5956,1.6416,1.7106,1.7429,1.7693,1.8147,1.8669,1.9049,1.9295,1.9747,2.0242,2.0667,2.2032,2.3155,0.0,0.0,0.0,0.0,0.0,0.0,0.0,0.0,3.3523,3.4351,3.5155,3.5605,3.5661,3.5661,3.5419,3.4849,3.4897,3.4897,3.4897,3.4944,3.5335,3.5991,3.5991,3.643,3.7245,3.7354,3.7562,3.7837,3.838,3.8778,3.9177,3.9833,4.0347,4.076,4.1132,4.154,4.197,4.2322,4.2638,4.2922,0.0,0.0,0.0,0.0,0.0,0.0,0.0,-0.8723,-0.943,-0.943,-0.943,-0.943,-0.943,-0.943,-0.943,-0.943,-0.943,0.0,0.0,0.0,0.0,0.0,0.0,0.0,-1.37,-1.356,-1.3396,-1.3258,-1.3018,-1.2712,-1.2288,-1.1886,-1.1413,-1.0907,-1.0347,-0.9752,0.0,0.0,0.0,0.0,0.0,0.0,-0.4151,0.0,0.0,0.0,0.0,0.0,0.0,0.0,0.0,0.0,0.0,0.0,0.0,0.0,0.7668,0.9353,0.0,1.2025,1.2767,1.3459,1.4127,1.4779,1.5494,1.6144,1.6725,1.7277,1.7981,1.8616,1.8997,1.9472,1.9974,2.0553,2.1941,0.0,0.0,0.0,0.0,0.0,0.0,0.0,0.0,3.3383,3.4165,3.5274,3.5856,3.6199,3.6249,3.6308,3.6165,3.595,3.5661,3.5707,3.6039,3.6084,3.6576,3.7552,3.7562,3.7998,3.8729,3.892,3.9115,3.9388,4.001,4.0484,0.0,4.1499,4.1991,4.2366,4.2723,4.3085,4.3501,4.3775,4.3983,4.4178,0.0,0.0,0.0,0.0,0.0,0.0,0.0,-0.8266,-0.9232,-0.9285,-0.9303,-0.9303,-0.9303,-0.9303,-0.9303,-0.9303,0.0,0.0,0.0,0.0,0.0,0.0,0.0,0.0,-1.3696,-1.3641,-1.358,-1.3498,-1.3252,-1.2924,-1.2499,-1.2169,-1.1776,-1.1296,-1.0859,-1.0361,-0.9816,-0.8601,-0.7705,-0.7038,-0.6358,-0.5743,0.0,0.0,0.0,0.0,0.0,0.0,0.0,0.0,0.0,0.0,0.0,0.0,0.0,0.0,0.0,0.0,0.0,1.0026,0.0,1.1634,1.2288,1.2971,1.3622,1.4569,0.0,1.6165,1.7156,1.8108,1.863,1.9064,1.9731,2.0812,2.1988,0.0,0.0,0.0,0.0,0.0,0.0,0.0,3.3745,3.412,3.4879,3.6422,3.6753,3.6856,3.6856,3.697,3.7105,3.7217,3.6626,3.6697,3.7568,3.7671,3.8216,3.9128,3.9203,3.9364,3.9559,3.9744,4.0021,0.0,4.1415,4.2063,4.2451,4.3515,4.4157,4.4504,4.4824,4.5149,4.5459,4.5711,4.5846,4.5906,0.0,0.0,0.0,0.0,0.0,0.0,0.0,0.0,0.0,0.0,-0.9303,-0.9303,-0.9301,-0.9292,-0.9282,0.0,0.0,0.0,0.0,0.0,0.0,0.0,0.0,0.0,-1.3713,-1.3641,-1.3563,-1.3498,-1.3391,-1.3037,-1.2508,-1.2307,-1.2012,-1.1593,-1.1219,-1.0594,-0.9776,-0.9066,-0.8473,-0.7927,-0.7257,-0.6661,0.0,0.0,0.0,0.0,-0.3506,-0.2836,0.0,0.0,0.0,0.0,0.0,0.0,0.0,0.0,0.3503,0.4216,0.5448,0.0,0.9624,1.0356,1.1154,1.1936,0.0,1.36,1.4615,1.5274,0.0,0.0,1.7948,1.8563,1.9388,0.0,0.0,0.0,0.0,0.0,0.0,0.0,0.0,0.0,3.4116,3.4504,3.534,3.6981,3.7206,3.7319,3.7468,3.7522,3.7863,3.8545,3.8397,3.8297,3.8197,3.88,3.9628,4.0628,4.061,4.1131,4.2075,4.2172,4.2396,4.275,4.317,4.3565,4.3914,4.438,4.4787,4.5107,4.5339,4.5587,4.5804,4.5908,4.5935,4.589,0.0,0.0,0.0,0.0,0.0,0.0,0.0,0.0,0.0,0.0,0.0,0.0,0.0,0.0,0.0,0.0,0.0,0.0,0.0,0.0,0.0,0.0,0.0,-1.3778,-1.3702,-1.3659,-1.3614,-1.3549,-1.3257,-1.2959,-1.2641,-1.2451,-1.2185,-1.1867,-1.137,-1.0763,-1.0034,-0.9569,-0.905,-0.8512,-0.7974,0.0,0.0,0.0,0.0,0.0,-0.4509,-0.3879,0.0,-0.2706,-0.2123,-0.1513,0.0,0.0,0.0,0.0,0.1984,0.2727,0.339,0.5478,0.7722,0.848,0.9298,1.0107,1.0816,1.2004,0.0,0.0,0.0,0.0,0.0,0.0,0.0,0.0,0.0,0.0,0.0,0.0,0.0,0.0,0.0,3.3047,0.0,3.5225,3.6203,3.7524,3.7739,3.7862,3.8,3.8034,3.8464,3.9397,3.9777,3.9967,3.9924,4.0354,4.1061,4.2137,4.2157,4.2559,4.3284,4.344,4.3656,4.3937,4.4223,4.4501,4.48,4.5039,4.5266,4.5526,4.568,4.5849,4.5996,4.5957,4.5894,4.5784,0.0,0.0,0.0,0.0,0.0,0.0,0.0,0.0,0.0,0.0,0.0,0.0,0.0,0.0,0.0,0.0,0.0,0.0,0.0,0.0,0.0,0.0,-1.2884,-1.3669,-1.3674,-1.3679,-1.3649,-1.3566,-1.3054,-1.2793,-1.2799,-1.2533,-1.2291,-1.2045,-1.1437,-1.0907,-1.0458,-1.0046,-0.9569,-0.8996,-0.8578,0.0,0.0,0.0,0.0,0.0,0.0,0.0,0.0,-0.3797,-0.3243,-0.2637,-0.2049,0.0,0.0,0.0,0.0,0.0,0.1875,0.3514,0.5358,0.6386,0.7266,0.8049,0.8787,0.0,0.0,0.0,0.0,0.0,0.0,0.0,0.0,0.0,0.0,0.0,0.0,0.0,0.0,0.0,0.0,0.0,3.4765,3.597,3.7086,3.7998,3.8271,3.8401,3.851,3.8554,3.9087,4.0167,4.0855,4.1503,4.2137,4.2068,4.2485,4.3408,4.3493,4.3642,4.3836,4.4102,4.4318,4.4546,4.4781,0.0,4.5285,4.5464,4.5678,4.585,4.5916,4.5991,4.6072,4.5919,4.5745,4.5462,0.0,0.0,0.0,0.0,0.0,0.0,0.0,0.0,0.0,0.0,0.0,0.0,0.0,0.0,0.0,0.0,0.0,0.0,0.0,0.0,0.0,-1.124,-1.277,-1.361,-1.3627,-1.3615,-1.3549,-1.343,-1.3002,-1.2808,-1.2799,-1.2588,-1.2291,-1.1912,-1.1593,-1.1196,-1.0801,-1.0458,-1.0059,-0.9619,-0.9101,0.0,0.0,0.0,0.0,0.0,0.0,0.0,0.0,-0.4814,-0.4285,-0.3681,-0.3255,0.0,0.0,0.0,0.0,0.0,0.0294,0.1293,0.2558,0.4617,0.5743,0.6548,0.7259,0.0,0.0,0.0,0.0,0.0,0.0,0.0,0.0,0.0,0.0,0.0,0.0,0.0,0.0,0.0,0.0,3.4023,3.5134,3.6309,3.7412,3.8342,3.8597,3.8807,3.897,3.9073,3.9872,4.1539,4.1707,4.253,4.4074,4.3695,4.3615,4.3892,4.4011,4.4202,4.4364,4.4599,4.4825,4.5096,0.0,4.5468,4.5626,4.5774,4.5909,4.6053,4.6065,4.6044,4.5982,4.5742,4.5465,4.4579,0.0,0.0,0.0,0.0,0.0,0.0,0.0,0.0,0.0,0.0,0.0,0.0,0.0,0.0,0.0,0.0,0.0,0.0,0.0,0.0,-1.0972,-1.0717,-1.242,-1.343,-1.3531,-1.3498,-1.3362,-1.3073,-1.2932,-1.2806,-1.2746,-1.251,-1.2246,-1.1991,-1.1681,-1.137,-1.1038,-1.0739,-1.0385,-0.9995,0.0,0.0,0.0,0.0,0.0,0.0,0.0,0.0,0.0,0.0,-0.5188,-0.4698,-0.4317,0.0,0.0,0.0,0.0,0.0,-0.128,-0.0729,0.0,0.1674,0.3427,0.4947,0.5864,0.7296,0.0,0.0,0.0,0.0,0.0,0.0,0.0,0.0,0.0,0.0,0.0,2.8264,2.9832,0.0,0.0,3.4463,3.482,3.6617,3.7991,3.8512,3.8795,3.9066,3.9302,3.9339,4.0094,4.1704,4.2437,4.3474,4.4853,4.4719,4.4587,4.4486,4.4591,4.4751,4.4943,4.5101,4.5285,4.5486,0.0,4.5769,4.5872,4.5969,4.6042,4.6093,4.6027,4.5901,4.5493,4.317,4.1804,4.0256,0.0,0.0,0.0,0.0,0.0,0.0,0.0,0.0,0.0,0.0,0.0,0.0,0.0,0.0,0.0,0.0,0.0,0.0,0.0,0.0,-1.065,-1.0287,-1.2141,-1.3257,-1.3481,-1.3328,-1.3123,-1.2831,-1.2826,-1.2801,-1.2668,-1.2427,-1.2241,-1.2112,-1.1805,-1.1505,-1.1262,-1.0968,-1.0667,-1.0285,0.0,0.0,0.0,0.0,0.0,0.0,0.0,0.0,0.0,0.0,0.0,0.0,0.0,0.0,0.0,-0.3986,-0.3684,-0.3346,-0.2743,-0.2537,-0.2192,-0.1106,0.0,0.3255,0.4275,0.5575,0.0,0.0,0.0,0.0,0.0,0.0,0.0,0.0,0.0,2.4236,2.5969,2.779,2.9527,3.1002,3.296,3.4356,3.4704,3.6948,3.8507,3.8768,3.9057,3.9343,3.9572,3.9658,4.0156,4.1245,4.2852,4.4231,4.5343,4.5378,4.5266,4.5,4.5077,4.5225,4.5399,4.5539,4.5675,4.5769,4.5891,4.5986,4.6055,4.6088,4.6088,4.6045,4.5851,4.5085,4.365,4.0293,3.7359,3.4195,0.0,0.0,0.0,0.0,0.0,0.0,0.0,0.0,0.0,0.0,0.0,0.0,0.0,0.0,0.0,0.0,0.0,0.0,0.0,0.0,-1.0248,-1.0201,-1.2072,-1.32,-1.3392,-1.3051,-1.2862,-1.2895,-1.2767,-1.2684,-1.2593,-1.2459,-1.2318,-1.2174,-1.1912,-1.1674,-1.1466,-1.1192,-1.092,-1.0632,-1.0285,0.0,0.0,0.0,0.0,0.0,0.0,0.0,0.0,0.0,0.0,0.0,0.0,0.0,-0.5439,-0.5093,-0.4804,-0.4499,-0.4159,-0.4108,-0.3886,-0.2887,-0.075,0.1343,0.2284,0.3432,0.0,0.595,0.0,0.0,0.0,0.0,0.0,0.0,0.0,2.3708,2.5077,0.0,2.9312,3.0348,3.1666,3.3273,3.5248,3.7396,3.8826,3.9222,3.9485,3.9719,3.9865,4.0057,4.0196,4.0308,4.269,4.4554,4.5764,4.577,4.5592,4.5265,4.5468,4.56,4.5689,4.5801,4.592,4.5967,4.6055,4.6117,4.6172,4.6128,4.604,4.5881,4.5554,4.2989,3.9327,3.819,3.3211,2.6834,0.0,0.0,0.0,0.0,0.0,0.0,0.0,0.0,0.0,0.0,0.0,0.0,0.0,0.0,0.0,0.0,0.0,0.0,0.0,-0.9572,-1.0269,-1.0557,-1.2084,-1.2899,-1.2852,-1.2736,-1.2702,-1.2767,-1.2684,-1.26,-1.2534,-1.2399,-1.2262,-1.2133,-1.1933,-1.1755,-1.1548,-1.133,-1.1085,-1.0849,-1.0583,-1.0311,0.0,0.0,0.0,0.0,0.0,0.0,0.0,0.0,-0.7734,-0.7443,-0.7216,-0.685,-0.6471,-0.6121,-0.5916,-0.5725,-0.5541,-0.5402,-0.5173,-0.4654,-0.367,0.0,0.0,0.1477,0.2624,0.3844,0.5198,0.0,0.0,0.0,0.0,0.0,0.0,2.1676,2.3612,2.6452,2.886,3.0282,3.1438,3.258,3.3769,3.6795,3.9063,3.9967,4.0257,4.041,4.0514,4.0595,4.066,4.0771,4.2743,4.451,4.5957,4.5998,4.5924,4.5794,4.5831,4.5869,4.5881,4.5974,4.606,4.6119,4.6113,4.608,4.6075,4.5955,4.5755,4.5263,4.2482,4.0056,3.7524,3.2451,2.8035,2.4024,0.0,0.0,0.0,0.0,0.0,0.0,0.0,0.0,0.0,0.0,0.0,0.0,0.0,0.0,0.0,0.0,0.0,0.0,-0.8578,-0.9203,-0.9717,-1.0065,-1.17,-1.2555,-1.2441,-1.2479,-1.2565,-1.2668,-1.26,-1.2534,-1.2459,-1.2343,-1.2221,-1.2091,-1.197,-1.1783,-1.1601,-1.1421,-1.1262,-1.1038,-1.0825,-1.0597,0.0,0.0,0.0,0.0,0.0,0.0,0.0,0.0,-0.8495,-0.8231,-0.8013,-0.7772,-0.7492,-0.715,-0.6915,-0.6836,-0.6916,-0.6723,-0.6486,-0.6448,0.0,0.0,-0.3075,-0.1297,0.0257,0.1416,0.3305,0.5584,0.8357,0.0,0.0,0.0,1.7381,1.9724,2.2153,2.5269,2.7984,2.9626,3.1281,3.3011,3.4837,3.758,3.9641,4.0564,4.0788,4.0917,4.0953,4.0974,4.1045,4.113,4.2241,4.3895,4.6072,4.5829,4.5836,4.6093,4.6036,4.6019,4.603,4.6083,4.6113,4.6119,4.6065,4.5967,4.5852,4.5719,4.471,4.2865,3.8695,3.5724,3.3169,2.7444,2.3568,2.048,0.0,0.0,0.0,0.0,0.0,0.0,0.0,0.0,0.0,0.0,0.0,0.0,0.0,0.0,0.0,0.0,0.0,0.0,-0.8505,-0.8437,-0.8424,-0.849,-1.0887,-1.2231,-1.2305,-1.2289,-1.2412,-1.26,-1.2538,-1.2459,-1.2399,-1.2266,-1.2164,-1.2091,-1.197,-1.1805,-1.1593,-1.1534,-1.1399,-1.1192,-1.1062,-1.0825,-1.0597,0.0,0.0,0.0,0.0,0.0,0.0,0.0,-0.9262,-0.9074,-0.88,-0.8634,-0.8445,-0.8107,-0.7878,-0.7802,-0.8203,-0.8035,0.0,0.0,0.0,0.0,-0.7457,-0.4998,-0.2487,-0.1371,0.1623,0.4463,0.5906,0.8206,0.0,1.2624,1.53,1.8048,2.0684,2.3852,2.6508,2.819,3.1074,3.4673,3.9165,4.0155,4.0629,4.0876,4.1019,4.1101,4.1107,4.1152,4.1191,4.1208,4.1066,4.2619,4.6007,4.5219,4.5226,4.6089,4.6014,4.6041,4.6091,4.6095,4.606,4.5994,4.593,4.5769,4.5572,4.534,4.2716,3.8443,3.4352,2.99,2.5585,2.3863,2.011,1.5475,0.0,0.0,0.0,0.0,0.0,0.0,0.0,0.0,0.0,0.0,0.0,0.0,0.0,0.0,0.0,0.0,0.0,0.0,-0.8438,-0.8414,-0.8379,-0.8356,-1.0876,-1.2266,-1.2229,-1.2276,-1.2327,-1.2403,-1.2363,-1.2323,-1.2266,-1.2221,-1.2153,-1.2033,-1.1949,-1.1826,-1.1659,-1.1601,-1.1511,-1.1399,-1.1215,-1.1038,-1.0873,0.0,0.0,0.0,0.0,0.0,0.0,0.0,0.0,0.0,-0.9461,-0.9316,-0.917,-0.8981,-0.8723,-0.8696,-0.9393,-0.9294,0.0,0.0,0.0,0.0,0.0,-0.7381,0.0,0.0,-0.0476,0.1285,0.27,0.4829,0.0,0.9114,1.1992,1.5141,1.8459,2.2604,2.6329,2.913,3.169,3.5043,3.9661,4.0604,4.0979,4.1099,4.1093,4.1094,4.1111,4.1039,4.0993,4.0999,4.0719,4.1042,4.2014,4.3675,4.4625,4.4843,4.5396,4.5753,4.5962,4.5896,4.5802,4.5628,4.5534,4.532,4.4808,4.183,3.8138,3.3979,2.9578,2.6292,2.3589,1.9521,1.6281,1.3567,0.0,0.0,0.0,0.0,0.0,0.0,0.0,0.0,0.0,0.0,0.0,0.0,0.0,0.0,0.0,0.0,0.0,0.0,0.0,-0.8321,-0.8789,-0.9804,-1.1353,-1.2148,-1.2133,-1.2164,-1.2179,-1.2179,-1.2226,-1.2226,-1.22,-1.2174,-1.2091,-1.197,-1.1912,-1.1826,-1.1703,-1.163,-1.1556,-1.1489,-1.133,-1.1215,-1.1085,0.0,0.0,0.0,0.0,0.0,0.0,0.0,0.0,0.0,-1.0059,-0.9957,-0.9867,-0.9712,-0.9516,-0.9559,-1.0454,0.0,0.0,0.0,0.0,-1.2107,-1.2004,0.0,0.0,0.0,0.0,-0.135,-0.0129,0.0911,0.0,0.4452,0.7487,1.1136,1.561,2.0664,2.5463,2.9629,3.2343,3.5112,3.8252,4.0095,4.1074,4.1031,4.0871,4.0771,4.0784,4.0707,4.0461,4.0034,3.9995,4.0162,4.062,4.2223,4.3205,4.3497,4.4288,4.4725,4.4851,4.5321,4.5436,4.517,4.3574,4.2619,4.1721,3.6356,3.2422,2.9267,2.4681,2.1829,1.986,1.603,1.3465,1.1536,0.0,0.0,0.0,0.0,0.0,0.0,0.0,0.0,0.0,0.0,-0.864,0.0,0.0,0.0,0.0,0.0,0.0,0.0,0.0,0.0,-0.938,-1.2058,-1.2051,-1.1999,-1.1997,-1.1991,-1.1991,-1.1991,-1.2123,-1.2179,-1.219,-1.2112,-1.2012,-1.1891,-1.1891,-1.1826,-1.1703,-1.1637,-1.1571,-1.1511,-1.1444,-1.1353,-1.1239,-1.1239,0.0,0.0,0.0,0.0,0.0,0.0,0.0,0.0,-1.0621,-1.0572,-1.0534,-1.0335,-1.0235,-1.0392,-1.1366,0.0,0.0,0.0,0.0,0.0,0.0,0.0,-0.8751,-0.7711,0.0,-0.3914,-0.324,-0.3542,-0.3162,-0.111,0.1944,0.6062,1.1675,1.7892,2.3993,2.9921,3.304,3.5017,3.5779,3.8954,4.0869,4.0646,4.0332,4.0137,4.0155,4.002,3.9504,3.8506,3.8902,3.97,4.0805,4.0851,4.1146,4.168,4.2391,4.2573,4.2277,4.4174,4.4744,4.4058,4.0211,3.7974,3.6505,2.9874,2.6252,2.441,1.9909,1.7059,1.5285,1.3177,1.1341,0.9485,0.0,0.0,0.0,0.0,0.0,0.0,0.0,0.0,0.0,0.0,0.0,0.0,0.0,0.0,0.0,0.0,0.0,0.0,0.0,0.0,-0.9307,-1.179,-1.1897,-1.1943,-1.2012,-1.1991,-1.1991,-1.1991,-1.2033,-1.2033,-1.2033,-1.197,-1.1927,-1.1891,-1.1848,-1.1805,-1.1768,-1.1703,-1.1659,-1.1637,-1.1571,-1.1541,-1.1511,-1.1511,-1.1466,0.0,0.0,0.0,0.0,0.0,0.0,0.0,-1.1085,-1.1038,-1.1038,-1.0991,-1.0944,-1.1049,0.0,-1.217,0.0,0.0,0.0,0.0,0.0,0.0,-1.3643,-1.1738,-0.9391,-0.8253,-1.0033,-0.964,-0.8491,-0.6899,-0.4501,-0.1027,0.4136,1.2957,2.2045,3.0504,3.396,3.5603,3.5588,3.8229,3.9795,3.9481,3.9189,3.9043,3.9044,3.7845,3.7059,3.682,3.7679,3.8253,3.8493,3.9486,3.8899,3.6803,3.7562,3.6774,3.4873,4.1415,4.2585,3.9276,3.5311,3.1754,2.8578,2.6225,2.3012,1.9371,1.6979,1.4988,1.3177,1.1239,0.9383,0.7515,0.0,0.0,0.0,0.0,0.0,0.0,0.0,0.0,0.0,0.0,0.0,0.0,0.0,0.0,0.0,0.0,0.0,0.0,0.0,0.0,-0.9248,-1.1702,-1.1865,-1.1897,-1.1891,-1.1891,-1.1891,-1.1891,-1.1891,-1.1912,-1.1949,-1.1927,-1.1869,-1.1848,-1.1826,-1.1805,-1.1805,-1.1725,-1.1703,-1.1681,-1.1637,-1.1593,-1.1608,-1.1608,-1.1586,-1.1541,-1.1586,0.0,0.0,0.0,0.0,0.0,0.0,0.0,-1.1497,-1.1519,-1.1519,-1.1628,0.0,0.0,0.0,0.0,0.0,0.0,0.0,0.0,-1.7518,-1.6276,-1.4991,-1.4403,-1.5497,-1.4848,-1.3763,-1.2522,-1.138,-0.9549,-0.6183,0.3023,1.5453,3.1859,3.4336,3.4442,3.378,3.4853,3.5527,3.5349,3.6504,3.3795,2.5979,2.5194,2.6284,2.9095,2.9782,3.091,3.248,3.3138,3.276,3.134,3.2155,3.1958,3.1014,3.6008,3.6961,3.4541,3.0586,2.7282,2.4603,2.1958,1.901,1.6035,1.4327,1.2587,1.084,0.9083,0.7304,0.5418,0.0,0.0,0.0,0.0,0.0,0.0,0.0,0.0,0.0,0.0,0.0,0.0,0.0,0.0,0.0,0.0,0.0,0.0,0.0,0.0,0.0,-1.1713,-1.1851,-1.1848,-1.1805,-1.1805,-1.1805,-1.1805,-1.1805,-1.1826,-1.1869,-1.1869,-1.1848,-1.1805,-1.1805,-1.1805,-1.1805,-1.1747,-1.1725,-1.1703,-1.1659,-1.1637,-1.1637,-1.1659,-1.1659,-1.1659,-1.1725,-1.1747,-1.1783,-1.1826,0.0,0.0,0.0,0.0,-1.1912,-1.1976,-1.2018,-1.2161,0.0,0.0,0.0,0.0,0.0,0.0,0.0,0.0,0.0,-2.0335,-2.0387,-2.0342,-1.9888,-1.9369,-1.875,-1.7807,-1.7889,-1.7824,-1.7173,-1.0729,0.2068,2.4079,2.7233,2.7475,2.7005,2.6771,2.6505,2.6065,2.8586,2.4436,1.1368,1.2313,1.5467,2.0476,2.1449,2.3288,2.6044,2.613,2.6009,2.5675,2.5955,2.6349,2.6938,2.8199,2.9172,2.955,2.5546,2.3082,2.1553,1.7788,1.5272,1.3555,1.193,1.0266,0.8484,0.6907,0.5114,0.3213,0.0,0.0,0.0,0.0,0.0,0.0,0.0,0.0,0.0,0.0,0.0,0.0,0.0,0.0,0.0,0.0,0.0,0.0,-0.8011,0.0,0.0,-1.1757,-1.181,-1.1805,-1.1805,-1.1805,-1.1805,-1.1805,-1.1805,-1.179,-1.1826,-1.1826,-1.1805,-1.1805,-1.1805,-1.1805,-1.1805,-1.1805,-1.1805,-1.1805,-1.1783,-1.1768,-1.1783,-1.1848,-1.1869,-1.1869,-1.1949,-1.1991,-1.2033,-1.207,-1.2096,0.0,0.0,0.0,-1.2323,-1.2399,-1.2467,-1.2549,0.0,0.0,0.0,0.0,0.0,0.0,0.0,0.0,0.0,0.0,-2.2532,-2.3071,-2.2988,-2.2907,-2.2818,-2.2669,-2.2694,-2.3746,-2.6743,-2.9104,-2.5602,-1.2364,-0.1767,0.5275,0.7344,0.8098,0.7605,0.5447,0.6987,0.8083,0.8289,1.2735,1.5987,1.7442,2.0749,2.2814,2.3477,2.3954,2.2924,2.0429,1.8066,1.703,1.7044,1.6815,1.9401,2.3662,1.9519,1.7069,1.5978,1.4291,1.2791,1.1332,0.978,0.8103,0.6213,0.4914,0.3012,0.1006,0.0,0.0,0.0,0.0,0.0,0.0,0.0,0.0,0.0,0.0,0.0,0.0,0.0,0.0,0.0,-0.939,-0.9374,-0.8988,-0.8051,-0.9597,-1.0929,-1.1756,-1.1805,-1.1805,-1.1805,-1.1805,-1.1805,-1.1805,-1.1805,-1.1805,-1.1805,-1.1805,-1.1805,-1.1805,-1.1805,-1.1805,-1.1805,-1.1805,-1.1805,-1.1805,-1.1805,-1.1826,-1.1869,-1.1891,-1.1912,-1.197,-1.2054,-1.2133,-1.2174,-1.2236,-1.2302,-1.2383,-1.2467,0.0,0.0,0.0,-1.2869,0.0,0.0,0.0,0.0,0.0,0.0,0.0,0.0,0.0,0.0,-2.2867,-2.3413,-2.4296,-2.6012,-2.6393,-2.6327,-2.5971,-2.6303,-2.7374,-2.9539,-2.9622,-2.7209,-2.108,-1.3557,-0.7559,-0.4204,-0.2071,-0.0888,-0.0833,0.0494,0.237,0.4692,0.7478,0.9734,1.1335,1.3417,1.4782,1.5465,1.5847,1.5545,1.4604,1.329,1.2707,1.285,1.2176,1.4211,1.789,1.5436,1.3797,1.2689,1.1628,1.016,0.8587,0.7102,0.5513,0.3817,0.2511,0.0703,-0.1207,0.0,0.0,0.0,0.0,0.0,0.0,0.0,0.0,0.0,0.0,0.0,0.0,0.0,0.0,0.0,0.0,-1.0314,-0.9845,-0.8784,-0.9901,-1.0976,-1.1788,-1.1803,-1.1805,-1.1805,-1.1805,-1.1805,-1.1805,-1.1805,-1.1805,-1.1805,-1.1805,-1.1805,-1.1805,-1.1805,-1.1895,-1.2044,-1.2044,-1.2149,-1.2314,-1.2321,-1.2366,-1.241,-1.2448,-1.2386,-1.2314,-1.2436,-1.2391,-1.2277,-1.2403,-1.2522,-1.2616,-1.2738,-1.285,0.0,0.0,0.0,0.0,0.0,0.0,0.0,0.0,0.0,0.0,0.0,0.0,0.0,0.0,-2.3879,-2.4937,-2.7474,-2.8595,-2.8943,-2.8481,-2.8927,-2.9561,-3.0148,-2.7559,-2.4851,-2.2715,-1.9347,-1.5642,-1.1779,-0.8827,-0.6259,-0.4146,-0.2582,-0.0874,0.1282,0.2357,0.3812,0.5771,0.658,0.7425,0.8237,0.8715,0.9178,0.9794,0.9534,0.9611,0.9846,0.9153,0.9953,1.2026,1.1833,1.1119,1.0022,0.9002,0.7546,0.5775,0.4505,0.3012,0.1308,0.0101,-0.1608,-0.3419,0.0,0.0,0.0,0.0,0.0,0.0,0.0,0.0,0.0,0.0,0.0,0.0,-1.0559,-1.0527,-1.0463,-1.0414,-1.0347,-1.039,-1.064,-1.0621,-1.0976,-1.1847,-1.1824,0.0,-1.1805,-1.1805,-1.1805,-1.1805,-1.1805,-1.1805,-1.1805,-1.1805,-1.1805,-1.1805,-1.1805,-1.2149,-1.2756,-1.2756,0.0,0.0,-1.3775,-1.3784,-1.3824,-1.3937,-1.3612,-1.3166,-1.3224,-1.2926,-1.2499,-1.2569,-1.2719,-1.2901,-1.2959,-1.3104,-1.3278,0.0,0.0,0.0,0.0,0.0,0.0,0.0,0.0,0.0,0.0,0.0,0.0,0.0,-2.4219,-2.5177,-2.6216,-2.8496,-3.0244,-3.035,-3.034,-3.02,-2.9796,-2.8377,-2.6322,-2.346,-2.1837,-1.9512,-1.5833,-1.3006,-1.0404,-0.8085,-0.6106,-0.407,-0.1846,-0.0402,0.0978,0.2252,0.3323,0.4222,0.4915,0.5801,0.6477,0.6916,0.6477,0.6395,0.6584,0.588,0.5594,0.5896,0.7873,0.8135,0.7127,0.6104,0.4789,0.3233,0.2193,0.0603,-0.1107,-0.2211,-0.3815,-0.5622,0.0,0.0,0.0,0.0,0.0,0.0,0.0,0.0,0.0,0.0,0.0,0.0,0.0,-1.1617,-1.1833,-1.1759,-1.1612,-1.1579,-1.1683,-1.1652,-1.1708,-1.1902,-1.1837,-1.1796,-1.1805,-1.1805,-1.1805,-1.1805,-1.1805,-1.1805,-1.1805,-1.1805,-1.1805,-1.182,-1.2239,-1.2591,-1.2831,-1.3256,0.0,0.0,0.0,-1.3955,-1.4029,-1.4126,-1.4069,0.0,0.0,0.0,-1.3855,-1.3541,-1.357,-1.3658,-1.3325,-1.3295,-1.3478,-1.3715,0.0,0.0,0.0,0.0,0.0,0.0,0.0,0.0,0.0,0.0,0.0,-2.3526,-2.4111,-2.4675,-2.5614,-2.693,-2.8413,-3.0098,-3.0278,-2.9979,-2.9342,-2.7904,-2.6177,-2.4137,-2.2437,-2.0306,-1.7513,-1.5083,-1.2635,-1.0298,-0.8668,-0.6954,-0.5004,-0.3763,-0.246,-0.1059,-0.0082,0.1005,0.2155,0.2863,0.3333,0.3739,0.3561,0.3563,0.3652,0.3209,0.2774,0.2344,0.299,0.3692,0.4263,0.3247,0.2108,0.0671,-0.058,-0.1841,-0.3101,-0.4357,-0.5706,-0.7152,0.0,0.0,0.0,0.0,0.0,0.0,0.0,0.0,0.0,-1.1612,0.0,0.0,0.0,0.0,-1.262,-1.2514,-1.2383,-1.2282,-1.22,-1.2205,-1.2127,-1.1955,-1.1861,-1.1818,-1.1796,-1.179,-1.1805,-1.1805,-1.1805,-1.1805,-1.1805,-1.1805,-1.1805,-1.1856,-1.2764,-1.3169,0.0,0.0,0.0,-1.4584,0.0,0.0,-1.4817,0.0,0.0,0.0,0.0,0.0,0.0,-1.4492,-1.4526,-1.4565,-1.3956,-1.3731,-1.3743,0.0,0.0,0.0,-1.4451,0.0,0.0,0.0,0.0,0.0,0.0,0.0,0.0,-2.2998,-2.3721,-2.4358,-2.4972,-2.5683,-2.681,-2.8768,-2.9182,-2.9113,-2.865,-2.7402,-2.6045,-2.4778,-2.3082,-2.1185,-1.8965,-1.6904,-1.4795,-1.2596,-1.1131,0.0,-0.7904,-0.684,-0.5479,-0.362,-0.2741,-0.1726,-0.0512,-0.0086,0.0348,0.0795,0.0622,0.0625,0.0714,0.0446,0.0,-0.0624,-0.0892,-0.0091,0.1487,0.0562,-0.0563,-0.1785,-0.3027,-0.4173,-0.531,-0.6441,-0.7754,-0.8971,0.0,0.0,0.0,0.0,0.0,0.0,0.0,0.0,-1.239,-1.3035,0.0,0.0,0.0,0.0,0.0,-1.2598,-1.2562,-1.2466,-1.2257,-1.2231,-1.2138,-1.2009,-1.194,-1.1876,-1.1788,-1.1796,-1.1805,-1.1805,-1.1805,-1.1805,-1.1805,-1.1805,-1.1848,-1.1951,-1.3301,-1.387,-1.3855,0.0,-1.5312,-1.5928,0.0,-1.6166,-1.6222,0.0,0.0,0.0,-1.579,-1.5508,0.0,-1.535,0.0,0.0,0.0,0.0,0.0,0.0,0.0,0.0,0.0,0.0,0.0,0.0,0.0,0.0,0.0,0.0,0.0,-2.1698,-2.3054,-2.4238,-2.4264,-2.4912,-2.5715,-2.649,-2.7144,-2.7593,-2.7755,-2.6946,-2.6056,-2.5265,-2.3975,-2.2346,-2.0229,-1.8572,-1.6877,-1.5003,-1.3564,-1.2109,-1.0551,-0.9479,-0.7872,-0.5456,-0.4586,-0.3828,-0.3253,-0.3068,-0.2673,-0.1987,-0.2385,-0.2498,-0.2231,-0.25,-0.2857,-0.3299,-0.3837,-0.3034,-0.134,-0.2008,-0.2944,-0.424,-0.5165,-0.6335,-0.7563,-0.8586,-0.9793,-1.1002,0.0,0.0,0.0,0.0,0.0,0.0,-1.289,-1.3429,-1.3813,0.0,0.0,0.0,-1.4554,-1.4435,-1.4272,-1.4153,-1.4088,-1.3763,-1.3178,-1.2596,-1.2222,-1.2153,-1.2133,-1.2039,-1.1888,-1.1918,-1.1933,-1.1933,-1.1933,-1.1933,-1.1933,-1.1933,-1.1933,-1.203,-1.3388,-1.3979,-1.4095,-1.5224,0.0,-1.6111,-1.6166,-1.6262,0.0,0.0,0.0,0.0,0.0,-1.6742,-1.6706,0.0,-1.6458,-1.6538,0.0,0.0,0.0,0.0,0.0,0.0,-1.4804,0.0,0.0,0.0,0.0,0.0,0.0,0.0,0.0,-2.1633,-2.2167,-2.2671,-2.3257,-2.3948,-2.445,-2.4523,-2.5571,-2.645,-2.6667,-2.5911,-2.5133,-2.459,-2.3325,-2.1962,-2.0612,-1.9383,-1.7872,0.0,-1.4921,-1.3699,-1.2359,-1.0598,-0.9109,-0.8043,-0.72,-0.6421,-0.5842,-0.5563,-0.5133,-0.4627,-0.4739,-0.479,-0.4706,-0.5127,-0.5606,-0.6054,-0.6492,-0.6662,-0.6392,-0.5552,-0.5836,-0.6818,-0.766,-0.8573,-0.9557,-1.0353,-1.1319,-1.2284,0.0,0.0,0.0,0.0,0.0,-1.3346,-1.3734,-1.4407,-1.4824,0.0,0.0,0.0,-1.5204,-1.5043,-1.4919,-1.4847,-1.4774,-1.4508,-1.3974,-1.3508,-1.295,-1.228,-1.2519,-1.2472,-1.2039,-1.2033,-1.2033,-1.1991,-1.1991,-1.1991,-1.1991,-1.2033,-1.2207,-1.2549,0.0,0.0,0.0,0.0,0.0,0.0,-1.6316,0.0,0.0,-1.6633,-1.6789,0.0,0.0,0.0,-1.7545,-1.7356,-1.7285,0.0,0.0,0.0,0.0,0.0,0.0,0.0,0.0,0.0,0.0,0.0,0.0,0.0,-2.0234,-2.0475,-2.0642,0.0,-2.1528,-2.1886,-2.234,-2.2962,-2.3341,-2.312,-2.3941,-2.4837,-2.5503,-2.488,-2.4254,-2.3956,-2.2848,-2.1668,-2.0607,-1.9636,-1.8494,-1.6976,-1.6167,-1.5024,-1.3579,-1.204,-1.0941,-1.0228,-0.959,-0.8946,-0.8289,-0.7981,-0.7676,-0.7134,-0.7213,-0.7326,-0.7395,-0.7655,-0.817,-0.869,-0.9122,-0.9557,-1.0077,-0.9369,-0.9113,-0.9035,-0.9908,-1.0687,-1.1558,-1.2322,-1.3087,-1.3937,0.0,0.0,-1.2348,-1.2517,-1.3633,-1.453,-1.4596,-1.5201,-1.5654,0.0,-1.5837,-1.5849,-1.5704,-1.56,-1.5478,-1.5395,-1.5311,-1.5156,-1.4906,-1.4804,-1.4083,-1.2693,-1.3102,-1.3053,-1.2391,-1.2209,-1.2085,-1.2033,-1.2033,-1.2033,-1.2033,-1.2096,-1.2507,-1.3266,0.0,0.0,0.0,0.0,0.0,-1.6382,-1.6501,-1.6628,0.0,0.0,-1.7154,-1.7445,-1.7632,-1.787,-1.8121,-1.8262,-1.8065,0.0,0.0,0.0,0.0,0.0,-1.7388,0.0,0.0,0.0,0.0,0.0,0.0,0.0,-2.0306,-2.0505,-2.0505,0.0,-2.1056,-2.1513,-2.1451,-2.1991,-2.2346,-2.2069,-2.2379,-2.3042,-2.418,-2.3807,-2.3405,-2.3289,-2.2415,-2.1396,-2.0331,-1.9615,-1.8721,-1.7541,-1.6978,-1.6035,-1.443,-1.3632,-1.2917,-1.2179,-1.1761,-1.1255,-1.0519,-1.0379,-1.0113,-0.9579,-0.9632,-0.9831,-1.002,-1.0123,-1.0516,-1.1252,-1.1508,-1.2037,-1.2662,-1.3178,-1.2407,-1.1123,-1.1986,-1.2753,-1.3432,-1.4357,-1.5108,-1.5779,0.0,0.0,-1.2684,-1.387,-1.4312,-1.4685,-1.5291,-1.6001,-1.6657,-1.7204,-1.8296,-1.8968,-1.8825,-1.8799,-1.8706,-1.8532,-1.7864,-1.7245,-1.6662,-1.596,-1.5304,-1.4738,-1.4122,-1.3687,-1.3498,-1.2682,-1.2244,-1.2226,-1.2226,-1.2226,-1.2226,-1.2246,-1.2676,-1.3465,-1.4154,0.0,0.0,0.0,0.0,-1.6853,-1.6779,0.0,-1.7839,-1.8013,-1.8581,-1.9301,-1.9504,-1.9743,-1.9941,-1.9709,-1.9254,-1.8817,0.0,0.0,0.0,-1.8279,0.0,0.0,0.0,0.0,0.0,0.0,0.0,0.0,-2.0369,-2.0544,-2.0497,0.0,-2.0545,-2.0557,-2.0488,-2.0974,-2.1293,-2.1045,-2.1415,-2.1948,-2.2513,-2.2573,-2.2534,-2.2459,-2.1697,-2.0998,-2.0584,-1.9731,-1.8797,-1.7775,-1.671,-1.5867,-1.5331,-1.4701,-1.4061,-1.3506,-1.3155,-1.2763,-1.2331,-1.1972,-1.1825,-1.1683,-1.1585,-1.1504,-1.1564,-1.208,-1.2569,-1.2991,-1.3661,-1.4214,-1.4851,-1.5282,-1.4692,-1.3678,-1.4021,-1.4699,-1.5448,-1.6034,-1.6698,-1.7359,-1.2211,-1.292,-1.3684,-1.4432,-1.52,-1.5814,-1.6163,-1.7143,-1.7952,-1.8262,-1.9252,-1.9924,-1.982,-1.9741,-1.9644,-1.9514,-1.9023,-1.8583,-1.8225,-1.7423,-1.6701,-1.6112,-1.5161,-1.4623,-1.4591,-1.3646,-1.3239,-1.3445,-1.3078,-1.3078,-1.343,-1.3146,-1.3584,-1.466,-1.508,-1.5695,0.0,0.0,-1.7059,-1.7183,-1.7474,0.0,-1.831,-1.8932,-1.9495,-1.9968,-2.0211,-2.0529,-2.0766,-2.0274,-1.9975,0.0,0.0,-1.9258,-1.9119,0.0,-1.9116,-1.8912,0.0,0.0,0.0,-1.9729,0.0,0.0,0.0,-2.0519,-2.05,-2.0454,-2.0347,-2.0227,-2.0125,-2.0278,-2.0364,-2.0096,-2.0473,-2.0802,-2.0792,-2.1029,-2.121,-2.1256,-2.0614,-2.0131,-2.0036,-1.9517,-1.8724,-1.7747,-1.7065,-1.6461,-1.6022,-1.5831,-1.5501,-1.4943,-1.4609,-1.4285,-1.4045,-1.3738,-1.3622,-1.3723,-1.366,-1.3673,-1.3834,-1.4146,-1.4473,-1.4934,-1.5412,-1.6,-1.6742,-1.6982,-1.7152,-1.705,-1.6429,-1.669,-1.7342,-1.7836,-1.8318,-1.8877,-1.2734,-1.3752,-1.4689,-1.4998,-1.6197,-1.7154,-1.7224,-1.8399,-1.9321,-1.9544,-2.0187,-2.0692,-2.0763,-2.0682,-2.0583,-2.0522,-2.0108,-1.9848,-1.9804,-1.8893,-1.8065,-1.7387,-1.6303,-1.5727,-1.5723,-1.5007,-1.4645,-1.4667,-1.4094,-1.4088,-1.4674,-1.4186,-1.4653,-1.5895,-1.6012,-1.6457,0.0,0.0,0.0,-1.7681,0.0,-1.875,-1.8833,-1.9823,-2.0374,-2.0662,-2.098,-2.1247,-2.1393,-2.0898,-2.0748,-2.0673,-1.9991,-1.9938,0.0,0.0,0.0,0.0,0.0,0.0,0.0,0.0,0.0,-2.0508,0.0,0.0,0.0,0.0,0.0,0.0,0.0,0.0,0.0,0.0,0.0,0.0,0.0,-1.9487,0.0,-2.0062,-1.9545,-1.917,-1.9298,-1.9063,-1.8551,-1.7681,-1.7456,-1.7117,-1.6682,-1.6786,-1.665,-1.6128,-1.5875,-1.568,-1.553,-1.5297,-1.5326,-1.5547,-1.5615,-1.574,-1.5956,-1.602,-1.6306,-1.6747,-1.6945,-1.7557,-1.833,-1.855,-1.9202,-1.9908,-1.8585,-1.8479,-1.9107,-1.952,-1.9913,-2.0285,-1.4331,-1.4468,-1.5032,-1.6402,-1.7367,-1.8155,-1.8756,-1.9593,-2.0593,-2.1844,-2.2575,-2.3245,-2.3826,0.0,0.0,0.0,0.0,0.0,-2.1615,0.0,-1.9176,-1.9023,-1.7658,-1.6924,-1.6905,-1.6919,-1.6279,-1.4967,-1.487,-1.487,-1.4951,-1.4957,-1.5376,-1.6174,-1.6219,0.0,0.0,0.0,-1.8011,0.0,-1.9719,-1.9967,0.0,-2.0858,-2.1764,-2.2539,-2.3006,-2.2841,-2.2475,0.0,-2.2256,-2.1711,0.0,-2.0958,-2.1001,-2.0363,0.0,0.0,0.0,0.0,0.0,0.0,-2.0507,0.0,0.0,0.0,-2.0399,-2.0328,0.0,0.0,0.0,0.0,0.0,0.0,0.0,0.0,-1.8473,-1.8224,-1.8382,-1.9323,-1.8922,-1.8608,-1.8698,-1.8347,-1.8015,-1.7791,-1.7339,-1.7207,-1.7548,-1.7059,-1.6841,-1.6896,-1.6652,-1.6487,-1.6274,-1.6603,-1.6751,-1.6798,-1.702,-1.7148,-1.7194,-1.7392,-1.7688,-1.8014,-1.8379,-1.8916,-1.9545,-1.967,-2.0072,-2.0442,-1.9841,-2.0051,-2.0605,-2.1068,-2.1375,-2.1614,-1.5236,-1.5649,0.0,-1.746,-1.8289,-1.9023,-1.975,-2.0839,-2.1934,-2.2954,-2.3755,-2.4292,0.0,0.0,0.0,0.0,0.0,-2.3276,0.0,0.0,-2.0903,-2.0874,-1.9679,-1.8894,-1.8614,-1.8435,-1.792,-1.7082,-1.6242,-1.6028,-1.6429,-1.6122,-1.6348,-1.7076,-1.7166,0.0,-1.7828,0.0,-1.8813,0.0,0.0,0.0,0.0,-2.2062,-2.273,-2.3312,-2.3602,-2.364,-2.3472,0.0,-2.3007,0.0,0.0,0.0,0.0,0.0,0.0,0.0,0.0,0.0,0.0,0.0,0.0,0.0,-2.0504,0.0,-2.0328,0.0,0.0,0.0,0.0,0.0,0.0,0.0,-1.8948,0.0,0.0,0.0,-1.8068,0.0,0.0,0.0,-1.784,-1.7797,-1.7616,-1.7316,-1.7454,-1.7571,-1.7518,-1.7633,-1.7595,-1.7508,-1.7434,-1.741,-1.7493,-1.7538,-1.7823,-1.8361,-1.8472,-1.8644,-1.8957,-1.9079,-1.9183,-1.9303,-1.9582,-2.0048,-2.0621,-2.0838,-2.1275,-2.1838,-2.1646,-2.1606,-2.1691,-2.235,-2.2681,-2.2905,-1.6607,0.0,0.0,0.0,-1.9275,-2.0257,-2.1179,-2.2382,-2.3425,-2.4167,0.0,0.0,-2.5561,-2.572,0.0,0.0,-2.5156,-2.4938,0.0,0.0,-2.2614,0.0,0.0,0.0,0.0,-1.9799,-1.9311,-1.8684,-1.7616,-1.7271,-1.7602,-1.7182,-1.7282,-1.7805,0.0,-1.8053,-1.819,0.0,-1.9599,-2.0004,-2.1472,-2.234,-2.2722,-2.3088,-2.3422,-2.3735,-2.3937,-2.4135,-2.4227,-2.3838,-2.3802,0.0,-2.3126,0.0,0.0,0.0,0.0,0.0,-2.0558,0.0,0.0,0.0,0.0,0.0,0.0,0.0,0.0,0.0,0.0,0.0,0.0,0.0,-1.9383,-1.915,0.0,-1.8622,0.0,-1.8057,0.0,0.0,0.0,0.0,0.0,-1.7332,-1.7351,-1.7085,-1.7477,-1.7665,-1.7581,-1.7902,-1.8129,-1.8169,-1.8084,-1.8139,-1.852,-1.8385,-1.8636,-1.9299,-1.9565,-1.9939,-2.0284,-2.0482,-2.0602,-2.0613,-2.0858,-2.119,-2.1598,-2.1804,-2.222,-2.2744,-2.2963,-2.2842,-2.2671,-2.3131,-2.3485,-2.3815,-1.8949,-1.8542,0.0,0.0,0.0,0.0,-2.346,0.0,0.0,0.0,0.0,0.0,0.0,0.0,0.0,0.0,0.0,-2.6517,-2.5802,0.0,-2.4086,0.0,0.0,-2.1915,0.0,0.0,-2.0269,-1.8894,-1.8843,-1.8494,-1.7883,-1.7927,-1.7997,-1.809,-1.8166,-1.8307,-1.8538,-1.9348,-2.0212,-2.1123,-2.195,-2.295,-2.3939,0.0,-2.3876,-2.4016,-2.421,0.0,0.0,-2.4693,-2.485,-2.4828,-2.4156,0.0,0.0,0.0,0.0,0.0,0.0,0.0,0.0,-2.0515,0.0,0.0,0.0,0.0,-2.0254,0.0,0.0,0.0,0.0,-1.9536,-1.9329,-1.9137,-1.8825,0.0,0.0,0.0,0.0,0.0,0.0,0.0,0.0,-1.6987,-1.7239,-1.7469,-1.7215,-1.7357,-1.8026,-1.781,-1.8004,-1.8858,-1.8509,-1.8521,-1.8958,-1.9285,-1.9392,-1.9294,-2.0264,-2.0731,-2.0827,-2.1516,-2.1815,-2.1877,-2.2187,-2.2384,-2.2396,-2.2506,-2.2567,-2.2702,-2.3393,-2.3628,-2.3638,-2.3448,-2.3748,-2.4186,0.0,0.0,0.0,0.0,0.0,0.0,0.0,-2.5665,0.0,0.0,0.0,0.0,0.0,-2.9196,-2.9265,0.0,0.0,-2.8152,-2.7367,-2.6599,0.0,0.0,0.0,-2.3636,0.0,0.0,0.0,-2.0683,-2.025,-1.9659,-1.8962,-1.9034,-1.8839,-1.8465,0.0,-1.944,0.0,0.0,0.0,0.0,0.0,-2.3897,-2.4266,0.0,-2.421,-2.4356,-2.4495,-2.4657,-2.4794,-2.4947,-2.5056,-2.5105,-2.4965,-2.4602,-2.4128,-2.3586,-2.3058,-2.2476,-2.1597,-2.1386,-2.1258,-2.0656,0.0,0.0,0.0,0.0,0.0,0.0,0.0,0.0,0.0,-1.9446,-1.9251,-1.9,-1.8752,-1.8506,0.0,0.0,0.0,0.0,0.0,0.0,0.0,0.0,-1.6731,-1.6646,-1.7098,-1.7429,-1.749,-1.8011,-1.8407,-1.8546,-1.899,-1.9268,-1.9321,-1.9759,-2.0117,-2.0424,-2.0784,-2.1331,-2.2097,-2.2297,-2.263,-2.3027,-2.3267,-2.3386,-2.3518,-2.3695,-2.38,-2.3872,-2.4033,-2.4123,-2.4107,-2.424,-2.4308,-2.4335,-2.117,0.0,0.0,0.0,0.0,0.0,0.0,0.0,0.0,0.0,-2.9178,0.0,-2.992,0.0,-3.0213,0.0,-2.985,-2.9524,-2.8767,-2.8266,0.0,-2.6495,-2.604,0.0,0.0,0.0,0.0,0.0,0.0,-2.077,-2.0043,-2.0135,-1.9934,-1.9587,0.0,-2.0569,-2.0698,0.0,-2.283,0.0,0.0,-2.4476,0.0,0.0,-2.4575,-2.4623,0.0,-2.4893,-2.5025,-2.5164,-2.5253,-2.533,-2.5437,-2.5143,-2.4705,-2.4417,-2.3976,-2.3376,-2.2499,-2.225,-2.2042,-2.1141,-2.0891,0.0,-2.0346,0.0,-2.0126,0.0,0.0,0.0,0.0,-1.9353,-1.9168,-1.8931,-1.8733,-1.8485,0.0,-1.7738,0.0,0.0,0.0,0.0,0.0,0.0,-1.6397,-1.6354,-1.6862,-1.7228,-1.7409,-1.797,-1.844,-1.8679,-1.9141,-1.9542,-1.9856,-2.009,-2.051,-2.1017,-2.116,-2.1809,-2.273,-2.305,-2.3511,-2.4105,-2.4266,-2.4439,-2.4567,-2.4681,-2.4738,-2.4794,-2.4694,-2.465,-2.4616,-2.4532,-2.4507,-2.4467,0.0,0.0,0.0,0.0,-2.4781,0.0,0.0,0.0,-2.8782,0.0,-3.0387,-3.0942,-3.0976,-3.1724,-3.1934,-3.115,-3.1063,-3.0715,-2.9965,-2.9878,0.0,0.0,-2.7596,-2.6894,-2.546,0.0,0.0,0.0,0.0,-2.1839,-2.1075,-2.1218,-2.1301,-2.1326,-2.1496,0.0,-2.1823,-2.2721,-2.3157,-2.3361,-2.4323,-2.476,-2.4818,-2.4962,-2.4942,-2.4847,-2.4968,-2.5103,-2.5233,-2.536,-2.5456,-2.5517,-2.5587,-2.559,-2.5459,-2.4681,-2.4469,-2.4277,-2.3404,-2.3166,-2.2931,-2.1983,-2.1706,-2.141,0.0,0.0,-2.0106,0.0,0.0,0.0,0.0,0.0,-1.9137,-1.8932,-1.8714,-1.8426,-1.7971,0.0,0.0,0.0,0.0,0.0,0.0,-1.6234,-1.6241,-1.6546,-1.6481,-1.6815,0.0,-1.7667,-1.8096,-1.91,-1.9031,-1.9451,-2.0487,-2.0388,-2.059,-2.1042,-2.1603,-2.219,-2.2857,-2.373,-2.4449,-2.5007,-2.5356,-2.5453,-2.5453,-2.5453,-2.5453,-2.5467,-2.5328,-2.5216,-2.5118,-2.4408,-2.4248,-2.4438,-2.4462,-2.56,-2.6844,0.0,-2.7473,-2.7528,0.0,0.0,0.0,0.0,-3.2106,-3.2802,-3.3393,-3.3674,-3.3709,-3.35,-3.2943,0.0,0.0,0.0,0.0,-2.9478,-2.8925,-2.8212,-2.7346,-2.6587,0.0,-2.4355,0.0,0.0,-2.2193,-2.233,-2.2117,-2.1697,0.0,0.0,-2.2891,-2.3808,-2.4304,-2.4483,-2.4839,-2.5006,-2.5034,0.0,-2.5234,-2.5235,-2.5243,-2.5274,-2.5369,-2.5461,-2.5517,-2.5577,-2.5593,-2.5623,-2.564,-2.5426,-2.537,-2.516,-2.4238,-2.4,-2.3764,-2.2837,-2.2535,-2.2254,-2.1301,-2.1004,0.0,0.0,0.0,0.0,0.0,-1.9246,-1.9067,-1.8861,-1.8526,-1.8225,0.0,0.0,0.0,-1.7361,0.0,0.0,0.0,-1.6409,-1.6311,-1.6226,-1.6563,0.0,-1.6757,0.0,-1.8231,-1.8289,-1.9072,-1.981,-2.0482,-2.0809,-2.1292,-2.1874,-2.2041,-2.2443,-2.3181,-2.3881,-2.4549,-2.5258,-2.5923,-2.6229,-2.6229,-2.6336,-2.6283,-2.6176,-2.6082,-2.5811,-2.5508,-2.4694,-2.4281,-2.417,-2.6109,0.0,0.0,-3.0557,0.0,0.0,-3.068,-3.1167,0.0,-3.2943,-3.3485,0.0,-3.4394,-3.4521,-3.4559,-3.4559,-3.423,0.0,-3.3459,0.0,0.0,-3.1303,-3.0446,-2.958,-2.8727,-2.7996,0.0,-2.5966,0.0,0.0,-2.3814,-2.3564,-2.3272,-2.2953,0.0,-2.3803,0.0,-2.4549,-2.491,-2.5043,-2.5164,-2.5203,0.0,-2.5348,-2.5406,-2.5444,-2.5422,-2.5468,-2.549,-2.5531,-2.5585,-2.5643,-2.5642,-2.5677,-2.5702,-2.5701,-2.5683,-2.5551,-2.5012,-2.4826,-2.4568,-2.3644,-2.3349,-2.3035,-2.2093,-2.1776,-2.1412,-2.0477,-2.0196,-1.9977,-1.9448,-1.92,-1.8966,-1.8696,-1.8408,0.0,0.0,0.0,0.0,0.0,-1.7345,0.0,-1.6847,-1.6639,-1.6425,-1.6234,-1.6475,0.0,0.0,0.0,-1.8199,-1.8306,-1.913,-1.9969,-2.0837,-2.1026,-2.1567,-2.2495,-2.2586,-2.2976,-2.3607,-2.4096,-2.4794,-2.5778,-2.6309,-2.6733,-2.6982,-2.7034,-2.6997,-2.6841,-2.6645,-2.6258,-2.5784,-2.5203,-2.4765,-2.4332,0.0,0.0,0.0,0.0,0.0,0.0,0.0,-3.251,0.0,-3.4391,0.0,-3.4734,-3.4821,-3.5025,-3.5153,-3.5153,0.0,-3.5173,-3.5173,-3.448,-3.3766,-3.3048,-3.1996,-3.0975,-2.9999,-2.9043,-2.8297,0.0,0.0,-2.5523,-2.5444,-2.4801,-2.4485,0.0,0.0,0.0,0.0,-2.5049,-2.5152,-2.5234,-2.5303,-2.5376,-2.5437,-2.5492,-2.5511,-2.5526,-2.5581,-2.5605,-2.56,-2.5604,-2.5658,-2.5709,-2.5703,-2.5702,-2.5696,-2.5698,-2.566,-2.5599,-2.5576,-2.5498,-2.5208,-2.4445,-2.4139,-2.3804,-2.2856,-2.2546,-2.219,-2.1232,-2.0864,-2.0431,-1.9591,-1.9175,-1.8861,0.0,0.0,0.0,0.0,0.0,0.0,0.0,0.0,0.0,0.0,0.0,0.0,0.0,0.0,0.0,0.0,0.0,-1.8085,-1.862,-1.9173,-2.0026,-2.1197,-2.1123,-2.1682,-2.2848,-2.3084,-2.3466,-2.4009,-2.4341,-2.5131,-2.6292,-2.6591,-2.706,-2.7675,-2.7675,-2.759,-2.7401,-2.6989,-2.6553,-2.6111,-2.5839,-2.5342,-2.4721,0.0,0.0,0.0,0.0,0.0,-3.4495,-3.5219,-3.4705,-3.4563,-3.5419,-3.5674,-3.5957,-3.6594,-3.6758,-3.6852,-3.6852,-3.6379,0.0,0.0,0.0,0.0,-3.4155,-3.3237,-3.2491,-3.1928,-2.9904,-2.8864,0.0,0.0,-2.6891,-2.5724,-2.5646,-2.53,0.0,0.0,0.0,-2.5138,-2.5225,0.0,-2.5363,-2.5444,-2.5512,-2.5562,-2.5574,-2.5619,-2.5668,-2.5673,-2.5651,-2.5603,-2.5657,-2.5693,-2.5703,-2.5697,-2.5698,-2.5694,-2.5632,-2.562,-2.5576,-2.5471,-2.5429,-2.5331,-2.5079,-2.4912,-2.4556,-2.3612,-2.3347,-2.3022,-2.2002,-2.1208,-2.0599,-2.0272,-1.9398,-1.8697,0.0,0.0,0.0,0.0,0.0,0.0,0.0,0.0,-1.7401,0.0,0.0,0.0,0.0,0.0,0.0,0.0,0.0,-1.8191,0.0,-1.9318,-2.0225,0.0,-2.1371,-2.1932,-2.2676,-2.3255,-2.367,-2.4036,-2.4638,-2.5394,-2.6337,-2.6902,-2.7544,-2.8073,-2.8073,-2.7875,-2.7524,-2.7115,-2.6736,-2.6351,-2.5879,-2.5397,-2.4892,0.0,0.0,0.0,0.0,0.0,0.0,0.0,-3.7253,-3.7235,-3.7179,-3.7273,-3.7574,-3.8298,-3.8522,-3.8475,-3.8105,-3.7825,-3.7524,-3.7236,-3.6584,-3.5923,-3.5253,-3.405,-3.3112,-3.2614,-3.1212,-3.0346,-2.9983,0.0,-2.7848,-2.724,-2.6857,-2.6291,-2.5568,0.0,-2.5184,0.0,0.0,-2.543,-2.5517,-2.555,-2.5586,-2.5648,-2.5652,-2.5676,-2.5698,-2.5703,-2.5684,-2.5664,-2.5684,-2.5702,-2.5693,-2.5655,-2.5652,-2.5639,-2.5579,-2.5518,-2.5471,-2.5421,-2.5341,-2.5271,-2.5164,-2.5069,-2.4858,-2.4337,-2.414,-2.3793,-2.2778,-2.2181,-2.1511,-2.0444,-1.9739,-1.9156,0.0,0.0,0.0,0.0,0.0,0.0,0.0,0.0,0.0,0.0,0.0,0.0,0.0,0.0,0.0,0.0,0.0,-1.8423,0.0,0.0,0.0,-2.1088,0.0,-2.2313,-2.2965,-2.3732,-2.4135,-2.425,-2.4641,-2.5407,-2.6528,-2.6853,-2.7551,-2.8493,-2.8348,-2.8088,-2.779,-2.7386,-2.6959,-2.651,-2.5988,-2.5453,-2.4892,0.0,-3.5349,0.0,0.0,-3.7281,0.0,-3.8663,-3.9248,-3.9408,-3.8823,-3.8752,-3.9022,-3.9607,-3.9797,-3.9661,-3.9187,-3.9048,-3.8762,-3.8307,-3.7682,-3.6994,-3.6213,-3.4801,-3.3734,-3.3093,-3.2519,-3.1823,0.0,0.0,-2.8798,-2.8628,-2.801,-2.7347,0.0,0.0,0.0,0.0,-2.6049,-2.6106,-2.6143,-2.6145,-2.6191,-2.6241,-2.6245,-2.623,-2.6209,-2.6015,-2.5963,-2.5921,-2.5726,-2.5668,-2.5678,-2.5604,-2.5574,-2.556,-2.5492,-2.5441,-2.5393,-2.537,-2.5271,-2.5153,-2.5101,-2.5018,-2.4922,-2.4791,-2.4663,-2.4346,-2.3508,-2.307,-2.2317,-2.066,-2.0092,-1.9651,-1.8951,0.0,0.0,0.0,0.0,0.0,0.0,0.0,0.0,-1.7479,0.0,0.0,0.0,0.0,0.0,-1.6789,0.0,0.0,0.0,-1.9858,-2.074,-2.1284,0.0,-2.27,-2.3219,-2.4175,-2.462,-2.462,-2.467,-2.5503,-2.6863,-2.6863,-2.7635,-2.8826,-2.8541,-2.8299,-2.8005,-2.759,-2.7115,-2.663,-2.6111,-2.5508,-2.4892,0.0,0.0,0.0,0.0,0.0,-3.9443,-3.9669,-3.974,-3.97,-3.9514,-3.9611,-3.9743,-3.995,-4.0027,-4.0105,-4.0146,-3.9608,-3.9244,-3.9171,-3.8678,-3.7906,-3.6838,-3.5964,-3.5053,-3.4092,-3.332,-3.2617,0.0,0.0,-3.0065,-2.8779,-2.8769,-2.8433,-2.7845,0.0,-2.7775,-2.7853,-2.7925,-2.796,-2.7962,-2.7961,-2.8007,-2.8047,-2.8,-2.7969,-2.7861,-2.7065,-2.6792,-2.6656,-2.5807,-2.5565,-2.561,-2.5537,-2.5512,-2.5492,-2.5429,-2.5406,-2.537,-2.5261,-2.5172,-2.5101,-2.5018,-2.4908,-2.4791,-2.4647,-2.4549,-2.4446,-2.4155,-2.3302,-2.2323,-2.138,-2.043,-1.9772,-1.9603,0.0,0.0,0.0,0.0,-1.8031,0.0,0.0,0.0,0.0,-1.7635,0.0,0.0,-1.724,0.0,0.0,0.0,0.0,-1.8783,-2.0115,-2.0843,-2.0856,-2.2181,-2.2875,-2.2954,-2.4295,-2.5005,-2.5052,-2.5052,-2.5886,-2.7306,-2.7306,-2.7989,-2.9045,-2.8716,-2.8429,-2.8137,-2.7725,-2.7203,-2.663,-2.6111,-2.5508,-2.4892,0.0,0.0,0.0,0.0,0.0,0.0,0.0,-4.1117,-4.1461,-4.1403,-4.101,-4.0903,-4.1504,-4.1579,-4.1477,-4.1178,-4.0908,-4.0418,-3.971,-3.953,-3.8879,-3.7572,-3.7728,-3.7024,-3.5208,-3.4483,-3.3805,0.0,0.0,0.0,-3.0404,-2.9992,-2.9454,-2.8819,-2.8345,-2.8139,-2.8165,-2.824,-2.8259,-2.8261,-2.8221,-2.8229,-2.8249,-2.8217,-2.8203,-2.816,-2.775,-2.7628,-2.7556,-2.7094,-2.6331,-2.5525,-2.5456,-2.5434,-2.5429,-2.5313,-2.5283,-2.5241,-2.5111,-2.5057,-2.5018,-2.4908,-2.4802,-2.4711,-2.4566,-2.45,-2.4394,-2.419,-2.3678,-2.3001,-2.217,-2.159,-2.1065,-2.0566,0.0,0.0,0.0,0.0,0.0,0.0,0.0,0.0,0.0,0.0,0.0,0.0,0.0,0.0,0.0,0.0,0.0,-1.9747,0.0,-2.1071,-2.1038,-2.241,-2.306,-2.3092,-2.4493,-2.5201,-2.524,-2.524,-2.6023,-2.7454,-2.82,-2.8751,-2.9075,-2.8826,-2.8525,-2.8137,-2.7775,-2.7255,-2.663,-2.6111,-2.5453,-2.4778,-3.9385,0.0,-4.0042,0.0,-4.1253,-4.1647,-4.1722,-4.2228,-4.2627,-4.2649,-4.2163,-4.2019,-4.2616,-4.267,-4.2531,-4.2177,-4.196,-4.1464,-4.0483,-4.0283,-3.9623,-3.8375,-3.8775,0.0,-3.607,-3.5524,-3.4794,-3.3743,-3.2648,0.0,-3.1546,-3.0813,-3.0259,-2.9797,-2.9219,-2.8968,-2.8977,-2.9027,-2.9042,-2.9038,-2.8973,-2.8961,-2.8924,-2.8916,-2.8897,-2.8831,-2.8528,-2.8399,-2.8335,-2.7961,-2.7094,-2.6105,-2.5812,-2.5543,-2.5313,-2.5241,-2.5157,-2.5111,-2.5044,-2.4966,-2.4903,-2.4787,-2.4711,-2.4613,-2.45,-2.4412,-2.4284,-2.4056,-2.385,-2.352,-2.2919,-2.2478,-2.2007,-2.1436,-2.0504,0.0,0.0,-1.8914,0.0,0.0,-1.8009,-1.7944,-1.7856,-1.7794,0.0,0.0,0.0,0.0,0.0,-1.9017,-1.9698,-2.0404,-2.1,-2.1407,-2.1649,-2.278,-2.3455,-2.3681,-2.4906,-2.5486,-2.5502,-2.5883,-2.6583,-2.7554,-2.879,-2.9321,-2.9183,-2.8936,-2.8589,-2.8186,-2.7775,-2.7255,-2.663,-2.6042,-2.5397,-2.4721,-4.0381,-4.0865,-4.1258,-4.0951,-4.1797,-4.2555,-4.2663,-4.2681,-4.2703,-4.2802,-4.2862,-4.2882,-4.29,-4.29,-4.2957,-4.316,-4.266,-4.2099,-4.1696,-4.0859,-4.0049,0.0,0.0,-3.776,-3.6632,-3.6328,-3.5435,-3.391,0.0,0.0,-3.1675,-3.1017,-3.0723,-3.0788,-3.0767,-3.0765,-3.0779,-3.0761,-3.0779,-3.0777,-3.0764,-3.0724,-3.0672,-3.0595,-3.0518,-3.0356,-2.9496,-2.9138,-2.8951,-2.8034,-2.768,-2.7539,-2.6749,-2.5904,-2.5201,-2.5203,-2.5106,-2.5013,-2.5004,-2.4903,-2.4798,-2.4723,-2.4594,-2.4478,-2.443,-2.4303,-2.4132,-2.3876,-2.3747,-2.3678,-2.3589,-2.283,-2.2202,-2.2184,-2.1339,0.0,0.0,-1.943,0.0,-1.8199,-1.8091,-1.807,-1.8005,-1.7944,0.0,0.0,0.0,0.0,0.0,-1.9204,-1.9877,-2.0475,-2.1196,-2.1933,-2.2654,-2.3358,-2.4063,-2.48,-2.5537,-2.5881,-2.5946,-2.7271,-2.7802,-2.7745,-2.8982,-2.9518,-2.9473,-2.8983,-2.8652,-2.8348,-2.7825,-2.7255,-2.663,-2.5934,-2.5342,-2.4677,-4.199,-4.2778,-4.3332,-4.326,-4.384,-4.4201,-4.3854,-4.3884,-4.3984,-4.4095,-4.3502,-4.3323,-4.4035,-4.3524,-4.3196,0.0,-4.3164,-4.282,0.0,-4.1723,-4.1016,-4.0345,-3.9774,-3.9025,-3.8033,-3.7547,-3.6774,-3.5737,-3.4737,-3.3415,-3.1831,-3.1661,-3.1306,-3.0808,-3.0799,-3.0798,-3.08,-3.0806,-3.0794,-3.0808,-3.0743,-3.0695,-3.061,-3.0559,-3.05,-3.0398,-3.0071,-2.9908,-2.9794,-2.9453,-2.894,-2.8412,-2.8093,-2.7458,-2.6708,-2.6059,-2.5848,-2.5674,-2.5045,-2.4802,-2.4723,-2.4645,-2.4566,-2.4464,-2.4358,-2.419,-2.4016,-2.3837,-2.3747,-2.3678,-2.3607,-2.3234,-2.2959,-2.2959,-2.2125,-2.1429,-2.1162,0.0,-2.0056,-1.9774,-1.9705,-1.9659,-1.9653,-1.9566,0.0,0.0,0.0,0.0,0.0,-2.0438,-2.0861,-2.1487,-2.1665,-2.2101,-2.2845,-2.3408,-2.4079,-2.4816,-2.5537,-2.5844,-2.5803,-2.7248,-2.7818,-2.7786,-2.8982,-2.9473,-2.9321,-2.8858,-2.8429,-2.8073,-2.7524,-2.6945,-2.6336,-2.5742,-2.5021,-2.4247,-4.348,-4.4038,-4.4599,-4.4983,-4.5367,-4.5494,-4.5182,-4.521,-4.5103,-4.4756,-4.4142,-4.3871,-4.4089,-4.3722,-4.3483,-4.3582,-4.3572,-4.3508,-4.3346,-4.238,-4.1608,-4.1154,-4.0409,-3.9631,-3.8822,-3.8169,-3.7459,-3.668,-3.5118,-3.3876,-3.2901,-3.2305,-3.1768,-3.1265,-3.0953,-3.08,-3.0804,-3.0771,-3.0764,-3.075,-3.0668,-3.0585,-3.052,-3.0447,-3.0367,-3.0266,-3.0226,-3.0166,-3.009,-3.0034,-2.9661,-2.9213,-2.9128,-2.8802,-2.8188,-2.7005,-2.662,-2.6405,-2.5502,-2.5196,-2.5054,-2.4655,-2.4515,-2.4411,-2.4229,-2.4095,-2.3955,-2.3792,-2.3725,-2.3656,-2.3585,-2.3407,-2.3289,-2.3289,-2.2764,-2.224,-2.1936,0.0,-2.0865,0.0,0.0,-2.0405,-2.0405,-2.0357,-2.0445,0.0,0.0,0.0,0.0,-2.121,-2.1306,-2.1965,-2.2212,-2.2668,-2.3383,-2.3984,-2.4644,-2.537,-2.5812,-2.5934,-2.584,-2.7271,-2.7843,-2.7704,-2.8938,-2.9428,-2.9213,-2.8763,-2.8365,-2.7974,-2.7423,-2.6788,-2.6136,-2.5481,-2.4738,-2.3884,-4.4945,-4.4816,-4.5128,-4.6172,-4.6373,-4.6446,-4.6594,-4.6612,-4.6209,-4.5108,-4.5003,-4.462,-4.3541,-4.3697,-4.3867,-4.373,-4.3892,-4.4091,-4.4223,-4.2911,-4.1977,-4.1772,-4.0699,-3.9794,-3.9125,-3.8364,-3.7603,-3.6819,-3.5329,-3.4588,-3.4567,-3.302,-3.2221,-3.2069,-3.1249,-3.0862,-3.0802,-3.0735,-3.0697,-3.0676,-3.0548,-3.0441,-3.0386,-3.0324,-3.0204,-3.0087,-3.0072,-2.9991,-2.9891,-2.9876,-2.9878,-2.9878,-2.9808,-2.979,-2.947,-2.7935,-2.7415,-2.7198,-2.632,-2.6026,-2.5753,-2.481,-2.4465,-2.4321,-2.4056,-2.3996,-2.3935,-2.3743,-2.37,-2.3656,-2.3539,-2.3383,-2.3289,-2.3289,-2.3193,-2.2849,-2.21,-2.1923,-2.1572,-2.0755,-2.0597,-2.0567,-2.0567,-2.056,-2.0845,0.0,0.0,0.0,0.0,-2.1661,-2.1446,-2.2077,-2.2815,-2.3569,-2.4292,-2.4913,-2.5597,-2.6295,-2.6222,-2.6112,-2.6012,-2.7388,-2.7843,-2.766,-2.891,-2.9321,-2.9029,-2.8716,-2.8317,-2.786,-2.7372,-2.6698,-2.5948,-2.5216,-2.4465,-2.3623,-4.5915,-4.6081,-4.6227,-4.6627,-4.7211,-4.763,-4.7703,-4.7727,-4.7675,-4.7624,-4.6911,-4.6194,-4.5651,-4.4595,-4.399,-4.4092,-4.4128,-4.424,-4.4421,-4.3592,-4.2858,-4.2325,-4.1546,-4.0807,-4.0087,-3.9335,-3.8331,-3.7027,-3.6052,-3.5243,-3.4598,-3.4245,-3.3374,-3.2088,-3.1873,-3.1426,-3.0806,-3.0724,-3.063,-3.0548,-3.046,-3.0355,-3.0226,-3.0128,-2.9991,-2.9876,-2.9805,-2.9771,-2.9756,-2.9738,-2.9719,-2.9664,-2.9664,-2.9608,-2.9401,-2.8495,-2.8195,-2.7955,-2.7078,-2.6783,-2.6525,-2.5633,-2.4838,-2.4192,-2.4036,-2.3996,-2.3935,-2.3743,-2.37,-2.3656,-2.3539,-2.3383,-2.3289,-2.3289,-2.3193,-2.3025,-2.2849,-2.274,-2.2646,-2.2429,-2.2287,-2.2237,-2.2237,-2.2177,-2.2237,-2.241,0.0,-2.239,-2.2579,-2.2846,-2.3034,-2.3134,-2.3249,-2.3883,-2.5177,-2.5296,-2.5681,-2.6295,-2.6222,-2.6376,-2.67,-2.7601,-2.8119,-2.8367,-2.9074,-2.9121,-2.8732,-2.8301,-2.781,-2.7321,-2.6721,-2.6122,-2.5467,-2.4751,-2.3989,-2.3135,-4.7201,-4.7311,-4.7366,-4.7492,-4.7858,-4.8151,-4.8187,-4.8247,-4.8343,-4.8493,-4.8053,-4.7404,-4.6576,-4.5482,-4.4718,-4.4408,-4.4391,-4.4477,-4.4672,-4.3958,-4.3236,-4.2631,-4.1934,-4.1203,-4.0511,-3.9764,-3.864,-3.7106,-3.6281,-3.5666,-3.5229,-3.4876,-3.4198,-3.325,-3.2424,-3.1765,-3.1268,-3.0816,-3.0539,-3.0449,-3.0355,-3.0213,-3.0049,-2.9905,-2.9789,-2.9645,-2.9589,-2.9532,-2.9512,-2.9512,-2.9492,-2.9472,-2.9511,-2.9472,-2.9379,-2.9045,-2.8933,-2.8708,-2.783,-2.7587,-2.7233,-2.5931,-2.5189,-2.4651,-2.4127,-2.3996,-2.3935,-2.3743,-2.37,-2.3656,-2.3539,-2.3383,-2.3289,-2.3289,-2.3193,-2.3095,-2.3095,-2.3045,-2.2995,-2.2995,-2.2919,-2.2842,-2.2842,-2.279,-2.2738,-2.2738,-2.2995,-2.3148,-2.3148,-2.3813,-2.3996,-2.3568,-2.4113,-2.4797,-2.5559,-2.5799,-2.6032,-2.6295,-2.617,-2.6405,-2.6929,-2.7564,-2.8093,-2.8506,-2.8987,-2.8982,-2.8605,-2.8155,-2.766,-2.6982,-2.6404,-2.5756,-2.5034,-2.4279,-2.3446,-2.2604,-4.8306,-4.8306,-4.8306,-4.8306,-4.8306,-4.8306,-4.8306,-4.8401,-4.8494,-4.8494,-4.8642,-4.8229,-4.701,-4.6318,-4.5624,-4.4824,-4.4674,-4.4718,-4.4889,-4.4302,-4.3555,-4.2756,-4.2124,-4.144,-4.0622,-3.976,-3.8675,-3.7306,-3.6364,-3.5947,-3.5987,-3.5234,-3.4832,-3.4638,-3.3067,-3.2181,-3.1833,-3.1003,-3.0546,-3.0362,-3.0213,-3.0034,-2.9839,-2.9681,-2.957,-2.9433,-2.9372,-2.9291,-2.9251,-2.9251,-2.9251,-2.9291,-2.9351,-2.9372,-2.9372,-2.9433,-2.9453,-2.9303,-2.8574,-2.8275,-2.7808,-2.6243,-2.5666,-2.5257,-2.4383,-2.4087,-2.3935,-2.3743,-2.37,-2.3656,-2.3539,-2.3383,-2.3313,-2.3289,-2.3193,-2.3119,-2.3095,-2.3045,-2.302,-2.302,-2.297,-2.2919,-2.2919,-2.2972,-2.2989,-2.2989,-2.3628,-2.3988,-2.3988,-2.4689,-2.4751,-2.3996,-2.5105,-2.5756,-2.5858,-2.6286,-2.6434,-2.633,-2.6234,-2.648,-2.7054,-2.7607,-2.813,-2.8562,-2.8898,-2.8842,-2.8477,-2.8057,-2.7444,-2.6745,-2.6204,-2.5453,-2.4607,-2.3754,-2.2967,-2.2113,-4.8306,-4.8306,-4.8306,-4.8306,-4.8306,-4.8306,-4.8306,-4.8401,-4.8532,-4.8569,-4.8697,-4.8486,-4.7727,-4.6973,-4.6277,-4.5575,-4.5055,-4.4808,-4.4908,-4.4943,-4.4317,-4.2852,-4.2771,-4.2117,-4.0712,-3.9295,-3.8482,-3.8279,-3.6737,-3.5981,-3.5993,-3.5857,-3.5405,-3.4672,-3.4289,-3.3266,-3.1805,-3.154,-3.0976,-3.0213,-3.0019,-2.9839,-2.9626,-2.9435,-2.9312,-2.9222,-2.9112,-2.9044,-2.9044,-2.9044,-2.9089,-2.9134,-2.9134,-2.9178,-2.9243,-2.9243,-2.9283,-2.931,-2.9243,-2.8623,-2.7943,-2.7601,-2.6473,-2.5346,-2.5074,-2.4488,-2.3935,-2.3743,-2.37,-2.3656,-2.3539,-2.3448,-2.336,-2.3313,-2.3241,-2.3168,-2.3119,-2.3095,-2.3077,-2.3077,-2.3045,-2.2977,-2.2977,-2.3537,-2.3894,-2.3894,-2.4535,-2.4895,-2.4895,-2.5552,-2.5855,-2.5734,-2.5695,-2.5961,-2.6555,-2.6521,-2.6485,-2.6485,-2.6763,-2.7235,-2.7863,-2.8354,-2.8828,-2.9146,-2.8873,-2.8494,-2.8057,-2.7524,-2.6945,-2.6336,-2.5605,-2.4935,-2.4234,-2.3148,-2.2298,-2.1553,-4.8306,-4.8306,-4.8306,-4.8306,-4.8306,-4.8306,-4.8419,-4.8476,-4.8587,-4.8697,-4.8857,-4.8699,-4.7961,-4.7299,-4.6577,-4.5923,-4.5236,-4.4895,-4.4991,-4.517,-4.4553,-4.2966,-4.2992,-4.2338,-4.0843,-3.9682,-3.8889,-3.8494,-3.7297,-3.6454,-3.5996,-3.5957,-3.57,-3.5281,-3.4707,-3.3935,-3.301,-3.1994,-3.1226,-3.0684,-3.0011,-2.9626,-2.9415,-2.9209,-2.9071,-2.8975,-2.8834,-2.8785,-2.8785,-2.8785,-2.8834,-2.8905,-2.8929,-2.8998,-2.9089,-2.9152,-2.9218,-2.9323,-2.9347,-2.8987,-2.8532,-2.8043,-2.7258,-2.6402,-2.5421,-2.4887,-2.4421,-2.3833,-2.37,-2.3656,-2.3539,-2.3448,-2.3383,-2.3313,-2.3241,-2.3168,-2.3119,-2.3095,-2.3277,-2.3681,-2.3708,-2.3858,-2.4244,-2.4576,-2.4758,-2.4758,-2.539,-2.5768,-2.5704,-2.6407,-2.6778,-2.6747,-2.651,-2.6502,-2.6691,-2.6572,-2.6686,-2.7019,-2.7007,-2.7519,-2.8478,-2.8485,-2.871,-2.9059,-2.8637,-2.8155,-2.771,-2.7152,-2.6578,-2.592,-2.5147,-2.4408,-2.3695,-2.247,-2.1667,-2.0846,-4.8363,-4.8306,-4.8306,-4.8306,-4.8324,-4.8363,-4.8457,-4.8587,-4.8678,-4.8787,-4.898,-4.8893,-4.8357,-4.7522,-4.6807,-4.6334,-4.5445,-4.4967,-4.5125,-4.5256,-4.4633,-4.3057,-4.2722,-4.2054,-4.0917,-4.0128,-3.9325,-3.85,-3.7692,-3.6854,-3.5992,-3.5927,-3.5852,-3.5762,-3.5008,-3.4494,-3.4103,-3.2642,-3.1797,-3.1351,-3.0452,-2.9954,-2.9761,-2.9531,-2.9363,-2.9232,-2.9078,-2.8917,-2.8781,-2.8799,-2.8724,-2.8644,-2.8737,-2.8834,-2.8947,-2.9021,-2.9152,-2.924,-2.924,-2.9218,-2.9008,-2.8334,-2.793,-2.7364,-2.6038,-2.5576,-2.5125,-2.4176,-2.3988,-2.3871,-2.3575,-2.3471,-2.3383,-2.3336,-2.3406,-2.3481,-2.3407,-2.3541,-2.3857,-2.4471,-2.4567,-2.4769,-2.5349,-2.5522,-2.56,-2.56,-2.6277,-2.6626,-2.6514,-2.7061,-2.7362,-2.7218,-2.7089,-2.6909,-2.6674,-2.6689,-2.6969,-2.7431,-2.7427,-2.7931,-2.8858,-2.859,-2.86,-2.8826,-2.8365,-2.7925,-2.7473,-2.6841,-2.615,-2.5495,-2.4624,-2.3872,-2.304,-2.1791,-2.091,-2.0128,-4.8513,-4.8401,-4.8306,-4.8306,-4.8401,-4.8513,-4.8513,-4.8642,-4.8787,-4.8787,-4.898,-4.9098,-4.9104,-4.7859,-4.7032,-4.7099,-4.5818,-4.5057,-4.5192,-4.532,-4.469,-4.3075,-4.1699,-4.0955,-4.0904,-4.0169,-3.9363,-3.8502,-3.768,-3.6855,-3.6007,-3.5923,-3.5852,-3.5801,-3.5611,-3.5029,-3.4166,-3.3729,-3.2995,-3.2089,-3.1688,-3.1422,-3.1212,-3.0875,-3.0685,-3.0546,-3.0409,-2.9886,-2.9272,-2.9382,-2.8981,-2.8432,-2.8562,-2.8662,-2.8743,-2.8881,-2.8998,-2.9112,-2.9112,-2.9112,-2.9089,-2.8966,-2.8311,-2.7657,-2.7483,-2.6795,-2.5959,-2.5023,-2.4815,-2.4536,-2.3664,-2.3494,-2.3471,-2.3407,-2.3956,-2.4367,-2.4317,-2.4857,-2.5261,-2.5314,-2.5331,-2.5349,-2.5401,-2.6086,-2.6497,-2.6497,-2.714,-2.75,-2.75,-2.7434,-2.7282,-2.7024,-2.7024,-2.6876,-2.6606,-2.7157,-2.7381,-2.7226,-2.8385,-2.8869,-2.8806,-2.9102,-2.9012,-2.8685,-2.8204,-2.7725,-2.7167,-2.6433,-2.5784,-2.5104,-2.4105,-2.3267,-2.247,-2.1152,-2.0268,-1.9486,-4.8513,-4.8457,-4.8401,-4.8306,-4.8401,-4.8494,-4.855,-4.8697,-4.8822,-4.8839,-4.903,-4.9164,-4.9197,-4.7939,-4.7137,-4.7193,-4.5905,-4.5103,-4.5192,-4.5341,-4.4744,-4.3254,-4.1679,-4.0888,-4.096,-4.0727,-3.99,-3.8507,-3.8231,-3.7381,-3.6004,-3.5929,-3.584,-3.5721,-3.5639,-3.5303,-3.4772,-3.3935,-3.326,-3.2689,-3.1853,-3.1359,-3.1074,-3.0772,-3.0523,-3.0373,-3.0238,-2.9982,-2.9766,-2.9844,-2.9787,-2.9565,-2.916,-2.9206,-2.9341,-2.9004,-2.8975,-2.904,-2.904,-2.9085,-2.9067,-2.9017,-2.8686,-2.825,-2.7716,-2.7276,-2.6705,-2.5769,-2.5584,-2.5446,-2.5022,-2.4944,-2.492,-2.4906,-2.5131,-2.5232,-2.5085,-2.5306,-2.5622,-2.6086,-2.6156,-2.6332,-2.6771,-2.7104,-2.728,-2.728,-2.7514,-2.763,-2.7617,-2.7452,-2.7489,-2.7691,-2.7691,-2.7556,-2.7279,-2.7442,-2.7844,-2.8566,-2.8829,-2.9085,-2.9219,-2.9025,-2.8685,-2.8253,-2.7725,-2.7152,-2.6563,-2.5825,-2.516,-2.4523,-2.3446,-2.2592,-2.1791,-2.0462,-1.9552,-1.87,-4.8569,-4.8494,-4.8457,-4.8306,-4.8438,-4.855,-4.8587,-4.8714,-4.8857,-4.8909,-4.9079,-4.9197,-4.9197,-4.7999,-4.7221,-4.7221,-4.5905,-4.5148,-4.5233,-4.4902,-4.4292,-4.3336,-4.1757,-4.0936,-4.1003,-4.1078,-4.0262,-3.8532,-3.8586,-3.771,-3.6005,-3.5938,-3.582,-3.5697,-3.5585,-3.5397,-3.5136,-3.4226,-3.3682,-3.3324,-3.2445,-3.1838,-3.1492,-3.1181,-3.0932,-3.0771,-3.0623,-3.04,-3.0223,-3.0322,-3.0293,-3.0168,-2.9751,-2.9717,-2.9689,-2.9047,-2.8905,-2.8975,-2.8994,-2.904,-2.9062,-2.9017,-2.89,-2.864,-2.8117,-2.7852,-2.7513,-2.6603,-2.6393,-2.6272,-2.5922,-2.5818,-2.5793,-2.5804,-2.5992,-2.61,-2.5977,-2.6144,-2.6488,-2.6979,-2.7049,-2.7232,-2.7713,-2.7748,-2.7748,-2.7701,-2.7701,-2.7747,-2.7888,-2.783,-2.7987,-2.8425,-2.8459,-2.8422,-2.8337,-2.8206,-2.8555,-2.9296,-2.9237,-2.9253,-2.9425,-2.892,-2.8446,-2.7959,-2.7357,-2.6788,-2.619,-2.5384,-2.4708,-2.3989,-2.2895,-2.1978,-2.1101,-1.9814,-1.8834,-1.7949,-4.8642,-4.855,-4.8457,-4.8306,-4.8495,-4.8587,-4.8587,-4.8785,-4.8909,-4.8909,-4.9079,-4.9197,-4.9179,-4.7999,-4.7221,-4.7174,-4.5905,-4.5148,-4.5297,-4.3991,-4.3241,-4.3311,-4.1759,-4.0924,-4.1006,-4.1075,-4.0272,-3.861,-3.8606,-3.771,-3.6005,-3.5928,-3.5826,-3.5697,-3.5488,-3.5326,-3.5157,-3.4771,-3.4386,-3.4074,-3.3643,-3.3256,-3.2852,-3.2454,-3.2197,-3.2073,-3.1873,-3.1282,-3.0627,-3.0855,-3.0471,-2.9974,-3.0305,-3.0127,-2.9663,-2.9016,-2.8858,-2.8929,-2.8994,-2.8994,-2.8994,-2.8994,-2.89,-2.8785,-2.8785,-2.8687,-2.8352,-2.7507,-2.7252,-2.6968,-2.6175,-2.5922,-2.5818,-2.5818,-2.6419,-2.6899,-2.6899,-2.7546,-2.8014,-2.8014,-2.8014,-2.7957,-2.7906,-2.7888,-2.7842,-2.7701,-2.7701,-2.7992,-2.8575,-2.8627,-2.8795,-2.9194,-2.9211,-2.9353,-2.9733,-2.9649,-2.941,-2.9124,-2.9556,-2.9633,-2.9289,-2.8873,-2.8446,-2.7959,-2.7225,-2.6602,-2.6002,-2.5174,-2.4305,-2.3518,-2.247,-2.1479,-2.0462,-1.9222,-1.822,-1.7198,-4.8642,-4.8587,-4.8495,-4.8344,-4.8495,-4.8587,-4.8587,-4.8785,-4.8909,-4.8909,-4.9079,-4.8973,-4.8413,-4.7661,-4.6976,-4.641,-4.5588,-4.5173,-4.5361,-4.4025,-4.3241,-4.3311,-4.1759,-4.0924,-4.1006,-4.1075,-4.0272,-3.861,-3.8606,-3.7688,-3.5919,-3.5917,-3.583,-3.5689,-3.5483,-3.5243,-3.4962,-3.4572,-3.4184,-3.3762,-3.3339,-3.288,-3.242,-3.2091,-3.1856,-3.1654,-3.1445,-3.1253,-3.1107,-3.131,-3.1426,-3.1445,-3.1328,-3.0586,-2.97,-2.9595,-2.9247,-2.8929,-2.8994,-2.8994,-2.8994,-2.8994,-2.89,-2.8785,-2.8785,-2.8687,-2.8515,-2.8211,-2.8098,-2.7949,-2.7681,-2.7549,-2.7496,-2.7496,-2.7683,-2.7798,-2.7743,-2.7911,-2.8071,-2.8014,-2.8014,-2.7986,-2.7957,-2.7957,-2.7929,-2.7842,-2.8275,-2.8815,-2.941,-2.9445,-2.9643,-3.0031,-3.0048,-3.0183,-3.052,-2.9916,-2.9633,-2.9734,-2.9625,-2.9335,-2.8873,-2.8398,-2.791,-2.7423,-2.6759,-2.6082,-2.5397,-2.465,-2.3754,-2.2774,-2.1803,-2.0782,-1.9759,-1.8499,-1.7413,-1.6437,-4.8623,-4.8569,-4.8495,-4.8344,-4.8495,-4.8587,-4.8587,-4.8785,-4.8909,-4.8909,-4.9079,-4.888,-4.8095,-4.7511,-4.6881,-4.607,-4.548,-4.5082,-4.4921,-4.3833,-4.3052,-4.2808,-4.1565,-4.0924,-4.0993,-4.1075,-4.0277,-3.8608,-3.857,-3.7645,-3.5908,-3.5859,-3.5788,-3.5648,-3.5451,-3.5181,-3.487,-3.4464,-3.4043,-3.3597,-3.3081,-3.257,-3.2109,-3.1674,-3.1389,-3.1179,-3.1015,-3.0975,-3.11,-3.1274,-3.1691,-3.2039,-3.1703,-3.1106,-3.0458,-3.0015,-2.9642,-2.9284,-2.9044,-2.8994,-2.8994,-2.8994,-2.89,-2.8785,-2.8785,-2.8687,-2.8587,-2.8562,-2.8484,-2.8406,-2.8353,-2.8273,-2.8237,-2.8209,-2.8182,-2.82,-2.8154,-2.8126,-2.8126,-2.8099,-2.8071,-2.8071,-2.8042,-2.8042,-2.811,-2.8329,-2.8991,-2.9671,-3.0211,-3.0245,-3.0439,-3.0834,-3.0813,-3.0866,-3.0912,-3.0259,-2.9972,-2.9973,-2.9621,-2.9152,-2.8685,-2.8204,-2.7725,-2.7181,-2.6472,-2.5756,-2.5061,-2.4176,-2.3267,-2.2286,-2.129,-2.0204,-1.9166,-1.7823,-1.6733,-1.5604,-4.8642,-4.855,-4.8458,-4.8326,-4.8458,-4.8587,-4.8587,-4.875,-4.8909,-4.8909,-4.9079,-4.8861,-4.7983,-4.7473,-4.6835,-4.5957,-4.5447,-4.4913,-4.4231,-4.3511,-4.2772,-4.2028,-4.1294,-4.0932,-4.1007,-4.1081,-4.0285,-3.8606,-3.8534,-3.7604,-3.5903,-3.584,-3.5735,-3.5596,-3.5364,-3.5138,-3.4851,-3.4454,-3.3961,-3.3429,-3.2876,-3.2335,-3.1821,-3.1278,-3.0965,-3.0764,-3.0551,-3.0568,-3.0733,-3.0975,-3.1504,-3.2022,-3.1626,-3.1649,-3.1572,-3.0441,-3.0072,-2.9856,-2.9263,-2.9049,-2.8994,-2.8994,-2.8905,-2.881,-2.8785,-2.8687,-2.8612,-2.8587,-2.8562,-2.8484,-2.8406,-2.8353,-2.8273,-2.8209,-2.8209,-2.8182,-2.8182,-2.8182,-2.8182,-2.8182,-2.8182,-2.82,-2.8126,-2.817,-2.8504,-2.9175,-2.9898,-3.0492,-3.0994,-3.1029,-3.1183,-3.1483,-3.1517,-3.1308,-3.0912,-3.0609,-3.0316,-2.9973,-2.9531,-2.9059,-2.8653,-2.8155,-2.766,-2.7063,-2.6218,-2.5495,-2.4835,-2.3767,-2.2847,-2.1916,-2.091,-1.9738,-1.8566,-1.7276,-1.6105,-1.484,-4.8733,-4.8605,-4.8495,-4.8344,-4.8438,-4.855,-4.8587,-4.8732,-4.8857,-4.8909,-4.903,-4.859,-4.7161,-4.7027,-4.6478,-4.5081,-4.5105,-4.4913,-4.4231,-4.3511,-4.2772,-4.2028,-4.1294,-4.0924,-4.0993,-4.1075,-4.0285,-3.8606,-3.8534,-3.7619,-3.5892,-3.5826,-3.5726,-3.5581,-3.5336,-3.5032,-3.4694,-3.4274,-3.3743,-3.3124,-3.2603,-3.2073,-3.1542,-3.1044,-3.0723,-3.0551,-3.0359,-3.0401,-3.0651,-3.1196,-3.1709,-3.2126,-3.2228,-3.2048,-3.1787,-3.1725,-3.0893,-2.9983,-2.9941,-2.9494,-2.8994,-2.8994,-2.8929,-2.8858,-2.881,-2.8737,-2.8644,-2.8612,-2.8562,-2.851,-2.8484,-2.838,-2.83,-2.8273,-2.8237,-2.8182,-2.8182,-2.8182,-2.8182,-2.8182,-2.8182,-2.8182,-2.8182,-2.8696,-2.958,-3.0857,-3.1006,-3.1298,-3.19,-3.1864,-3.1756,-3.1579,-3.1428,-3.1196,-3.0912,-3.0568,-3.0231,-2.9853,-2.938,-2.8905,-2.8444,-2.784,-2.7218,-2.6616,-2.5851,-2.5077,-2.4234,-2.3339,-2.2359,-2.1239,-2.0204,-1.9034,-1.7833,-1.6664,-1.5392,-1.397,-4.866,-4.8605,-4.855,-4.8344,-4.8364,-4.8458,-4.8587,-4.8732,-4.8822,-4.8909,-4.9015,-4.8501,-4.6869,-4.6885,-4.6403,-4.4921,-4.5014,-4.4679,-4.3599,-4.3227,-4.2549,-4.1429,-4.107,-4.0926,-4.1006,-4.107,-4.0281,-3.8606,-3.8534,-3.7614,-3.5898,-3.583,-3.5708,-3.5538,-3.5307,-3.5015,-3.4632,-3.4203,-3.3662,-3.305,-3.247,-3.1877,-3.1257,-3.0821,-3.0452,-3.0172,-3.006,-3.0231,-3.0609,-3.1173,-3.1634,-3.2001,-3.2405,-3.2406,-3.2312,-3.2249,-3.1438,-3.0513,-3.0301,-2.9646,-2.9017,-2.904,-2.9017,-2.8929,-2.8858,-2.8767,-2.8694,-2.8644,-2.8587,-2.8536,-2.851,-2.844,-2.8362,-2.8353,-2.8273,-2.8264,-2.8264,-2.8209,-2.8182,-2.8182,-2.8548,-2.8923,-2.928,-3.0,-3.0742,-3.1483,-3.1792,-3.2049,-3.2284,-3.2161,-3.1965,-3.1617,-3.1411,-3.1157,-3.0831,-3.0443,-3.0103,-2.9633,-2.9198,-2.8748,-2.8299,-2.759,-2.6959,-2.6258,-2.5536,-2.4681,-2.3767,-2.2907,-2.1854,-2.073,-1.9617,-1.8499,-1.7285,-1.5956,-1.4171,-1.2204,-4.8642,-4.8605,-4.8569,-4.8344,-4.8289,-4.8365,-4.855,-4.8697,-4.8768,-4.8874,-4.8996,-4.8449,-4.685,-4.6623,-4.6139,-4.4978,-4.5033,-4.4446,-4.291,-4.2925,-4.2322,-4.0778,-4.0834,-4.0927,-4.0979,-4.1058,-4.0277,-3.8606,-3.8535,-3.7611,-3.5898,-3.5834,-3.5679,-3.5495,-3.5273,-3.4961,-3.4551,-3.4136,-3.3616,-3.3019,-3.2403,-3.1731,-3.1044,-3.0634,-3.0215,-2.981,-2.9902,-3.0162,-3.0568,-3.1032,-3.1445,-3.1893,-3.2371,-3.269,-3.2885,-3.2596,-3.2001,-3.1331,-3.0827,-2.9987,-2.9265,-2.931,-2.9177,-2.9017,-2.8952,-2.8815,-2.8718,-2.8694,-2.8662,-2.8612,-2.8536,-2.8492,-2.8466,-2.8432,-2.8353,-2.8327,-2.8327,-2.8264,-2.829,-2.8415,-2.9147,-2.9904,-3.0636,-3.1314,-3.1729,-3.1795,-3.2317,-3.2557,-3.2422,-3.2232,-3.1965,-3.1654,-3.1428,-3.1117,-3.0692,-3.0359,-2.993,-2.947,-2.9044,-2.859,-2.8122,-2.7423,-2.675,-2.6002,-2.5216,-2.435,-2.3446,-2.2408,-2.1353,-2.0333,-1.9156,-1.7959,-1.6724,-1.5029,-1.2858,-1.0513,-4.8733,-4.8697,-4.8606,-4.8363,-4.8288,-4.8344,-4.8494,-4.8587,-4.8678,-4.8787,-4.8874,-4.8345,-4.685,-4.5679,-4.4957,-4.4833,-4.4991,-4.4446,-4.291,-4.2925,-4.2306,-4.0777,-4.0823,-4.0898,-4.0913,-4.1046,-4.0277,-3.8606,-3.8535,-3.7611,-3.5898,-3.5834,-3.5679,-3.5495,-3.5224,-3.4887,-3.4486,-3.4012,-3.3447,-3.2813,-3.2197,-3.1562,-3.0975,-3.0568,-3.0172,-2.981,-2.9902,-3.0162,-3.0568,-3.1032,-3.1521,-3.1948,-3.2387,-3.2737,-3.3099,-3.3277,-3.2903,-3.2405,-3.2378,-3.1328,-3.0212,-3.0212,-2.965,-2.9067,-2.9085,-2.8975,-2.8839,-2.8718,-2.8694,-2.8687,-2.8612,-2.8536,-2.851,-2.8484,-2.8432,-2.8398,-2.8398,-2.8398,-2.8631,-2.9314,-3.0048,-3.0796,-3.1457,-3.1635,-3.1961,-3.261,-3.2619,-3.2573,-3.2507,-3.2249,-3.2001,-3.18,-3.1406,-3.1072,-3.0692,-3.0274,-2.9842,-2.947,-2.8858,-2.8383,-2.8024,-2.7152,-2.6472,-2.5893,-2.4865,-2.393,-2.3088,-2.1939,-2.0869,-1.977,-1.8566,-1.7276,-1.5824,-1.3302,-1.1477,-1.0062,-4.866,-4.8605,-4.8514,-4.8344,-4.8306,-4.8363,-4.8457,-4.855,-4.8642,-4.8787,-4.8839,-4.8311,-4.6805,-4.5444,-4.4685,-4.4738,-4.4943,-4.4424,-4.2851,-4.2889,-4.2313,-4.0764,-4.0788,-4.0858,-4.0904,-4.0526,-3.973,-3.8549,-3.8513,-3.7614,-3.5898,-3.583,-3.5698,-3.5495,-3.5224,-3.4887,-3.4464,-3.4005,-3.3419,-3.2731,-3.2162,-3.147,-3.0861,-3.0526,-3.0146,-2.9754,-2.9886,-3.0189,-3.0551,-3.1078,-3.1524,-3.1966,-3.2454,-3.2834,-3.3178,-3.3502,-3.3131,-3.264,-3.2773,-3.1972,-3.0956,-3.0553,-3.0142,-2.9687,-2.92,-2.9044,-2.8975,-2.8839,-2.8743,-2.8694,-2.8662,-2.8612,-2.8562,-2.8562,-2.851,-2.8603,-2.9053,-2.9098,-2.9521,-3.079,-3.1153,-3.1613,-3.234,-3.2398,-3.2509,-3.2834,-3.2705,-3.2606,-3.2557,-3.2284,-3.2001,-3.18,-3.1423,-3.0975,-3.0609,-3.013,-2.9694,-2.9259,-2.87,-2.8204,-2.768,-2.6916,-2.619,-2.5453,-2.458,-2.3636,-2.2604,-2.1577,-2.0431,-1.9253,-1.8027,-1.6219,-1.4171,-1.2198,-1.0651,-0.9306]}]]